[[{"header":{"parameterUnit":"m.s-1","parameterCategory":1,"la1":30.6,"la2":29.2853,"lo1":-89.7004,"lo2":-87.6739,"dy":0.0162,"dx":0.0183,"nx":112,"ny":82,"refTime":"2024-04-15T12:00:00:Z","depth":0,"parameterNumber":2,"parameterNumberName":"U-component_of_WINDS"},"data":[0.0,0.0,0.0,0.0,0.0,0.0,0.0,0.0,0.0,0.0,0.0,0.0,0.0,0.0,0.0,0.0,0.0,0.0,0.0,0.0,0.0,0.0,0.0,0.0,0.0,0.0,0.0,0.0,0.0,0.0,0.0,0.0,0.0,0.0,0.0,0.0,0.0,0.0,0.0,0.0,0.0,0.0,0.0,0.0,0.0,0.0,0.0,0.0,0.0,0.0,0.0,0.0,0.0,0.0,0.0,0.0,0.0,0.0,0.0,0.0,0.0,0.0,0.0,0.0,0.0,0.0,0.0,0.0,0.0,0.0,0.0,0.0,0.0,0.0,0.0,0.0,0.0,0.0,0.0,0.0,0.0,0.0,0.0,0.0,0.0,0.0,0.0,0.0,0.0,0.0,0.0,-1.4552,-1.8841,-2.1706,-2.1979,-2.2172,-2.1531,-1.9727,0.0,0.0,0.0,0.0,0.0,0.0,0.0,0.0,0.0,0.0,0.0,0.0,0.0,0.0,0.0,0.0,0.0,0.0,0.0,0.0,0.0,0.0,0.0,0.0,0.0,0.0,0.0,0.0,0.0,0.0,0.0,0.0,0.0,0.0,0.0,0.0,0.0,0.0,0.0,0.0,0.0,0.0,0.0,0.0,0.0,0.0,0.0,0.0,0.0,0.0,0.0,0.0,0.0,0.0,0.0,0.0,0.0,0.0,0.0,0.0,0.0,0.0,0.0,0.0,0.0,0.0,0.0,0.0,0.0,0.0,0.0,0.0,0.0,0.0,0.0,0.0,0.0,0.0,0.0,0.0,0.0,0.0,0.0,0.0,0.0,0.0,0.0,0.0,0.0,0.0,0.0,0.0,0.0,0.0,0.0,0.0,0.0,0.0,0.0,0.0,0.0,0.0,0.0,0.0,-1.3169,-1.7007,-1.9386,-2.1297,-2.2778,-2.0313,-1.9466,-2.1289,0.0,0.0,0.0,0.0,0.0,0.0,0.0,0.0,0.0,0.0,0.0,0.0,0.0,0.0,0.0,0.0,0.0,0.0,0.0,0.0,0.0,0.0,0.0,0.0,0.0,0.0,0.0,0.0,0.0,0.0,0.0,0.0,0.0,0.0,0.0,0.0,0.0,0.0,0.0,0.0,0.0,0.0,0.0,0.0,0.0,0.0,0.0,0.0,0.0,0.0,0.0,0.0,0.0,0.0,0.0,0.0,0.0,0.0,0.0,0.0,0.0,0.0,0.0,0.0,0.0,0.0,0.0,0.0,0.0,0.0,0.0,0.0,0.0,0.0,0.0,0.0,0.0,0.0,0.0,0.0,0.0,0.0,0.0,0.0,0.0,0.0,0.0,0.0,0.0,0.0,0.0,0.0,0.0,0.0,0.0,0.0,0.0,0.0,0.0,0.0,0.0,0.0,0.0,-1.1954,-1.3501,-1.6929,-1.8802,-2.013,-2.0927,-1.952,-1.9123,-2.0378,-1.9597,0.0,0.0,0.0,0.0,0.0,0.0,0.0,0.0,0.0,0.0,0.0,0.0,0.0,0.0,0.0,0.0,0.0,0.0,0.0,0.0,0.0,0.0,0.0,0.0,0.0,0.0,0.0,0.0,0.0,0.0,0.0,0.0,0.0,0.0,0.0,0.0,0.0,0.0,0.0,0.0,0.0,0.0,0.0,0.0,0.0,0.0,0.0,0.0,0.0,0.0,0.0,0.0,0.0,0.0,0.0,0.0,0.0,0.0,0.0,0.0,0.0,0.0,0.0,0.0,0.0,0.0,0.0,0.0,0.0,0.0,0.0,0.0,0.0,0.0,0.0,0.0,0.0,0.0,0.0,0.0,0.0,0.0,0.0,0.0,0.0,0.0,0.0,0.0,0.0,0.0,0.0,0.0,0.0,0.0,0.0,0.0,0.0,0.0,0.0,0.0,0.0,0.0,-1.2618,-1.3423,-1.5838,-1.7224,-1.8082,-1.8297,-1.8121,-1.8271,-1.8955,-1.8121,0.0,0.0,0.0,0.0,0.0,0.0,0.0,0.0,0.0,0.0,0.0,0.0,0.0,0.0,0.0,0.0,0.0,0.0,0.0,0.0,0.0,0.0,0.0,0.0,0.0,0.0,0.0,0.0,0.0,0.0,0.0,0.0,0.0,0.0,0.0,0.0,0.0,0.0,0.0,0.0,0.0,0.0,0.0,0.0,0.0,0.0,0.0,0.0,0.0,0.0,0.0,0.0,0.0,0.0,0.0,0.0,0.0,0.0,0.0,0.0,0.0,0.0,0.0,0.0,0.0,0.0,0.0,0.0,0.0,0.0,0.0,0.0,0.0,0.0,0.0,0.0,0.0,0.0,0.0,0.0,0.0,0.0,0.0,0.0,0.0,0.0,0.0,0.0,0.0,0.0,0.0,0.0,0.0,0.0,0.0,0.0,0.0,0.0,0.0,0.0,0.0,0.0,-1.209,-1.2275,-1.4086,-1.4397,-1.4787,-1.5605,-1.4923,-1.5502,-1.7941,-1.7275,0.0,0.0,0.0,0.0,0.0,0.0,0.0,0.0,0.0,0.0,0.0,0.0,0.0,0.0,0.0,0.0,0.0,0.0,0.0,0.0,0.0,0.0,0.0,0.0,0.0,0.0,0.0,0.0,0.0,0.0,0.0,0.0,0.0,0.0,0.0,0.0,0.0,0.0,0.0,0.0,0.0,0.0,0.0,0.0,0.0,0.0,0.0,0.0,0.0,0.0,0.0,0.0,0.0,0.0,0.0,0.0,0.0,0.0,0.0,0.0,0.0,0.0,0.0,0.0,0.0,0.0,0.0,0.0,0.0,0.0,0.0,0.0,0.0,0.0,0.0,0.0,0.0,0.0,0.0,0.0,0.0,0.0,0.0,0.0,0.0,0.0,0.0,0.0,0.0,0.0,0.0,0.0,0.0,0.0,0.0,0.0,0.0,0.0,0.0,0.0,0.0,0.0,-1.2657,-1.315,0.0,-1.4268,-1.5049,-1.5371,-1.5106,-1.5782,-1.7864,0.0,0.0,0.0,0.0,0.0,0.0,0.0,0.0,0.0,0.0,0.0,0.0,0.0,0.0,0.0,0.0,0.0,0.0,0.0,0.0,0.0,0.0,0.0,0.0,0.0,0.0,0.0,0.0,0.0,0.0,0.0,0.0,0.0,0.0,0.0,0.0,0.0,0.0,0.0,0.0,0.0,0.0,0.0,0.0,0.0,0.0,0.0,0.0,0.0,0.0,0.0,0.0,0.0,0.0,0.0,0.0,0.0,0.0,0.0,0.0,0.0,0.0,0.0,0.0,0.0,0.0,0.0,0.0,0.0,0.0,0.0,0.0,0.0,0.0,0.0,0.0,0.0,0.0,0.0,0.0,0.0,0.0,0.0,0.0,0.0,0.0,0.0,0.0,0.0,0.0,0.0,0.0,0.0,0.0,0.0,0.0,0.0,0.0,0.0,0.0,0.0,0.0,-1.2489,-1.2892,-1.3075,0.0,-1.3476,-1.4199,-1.4165,-1.4664,-1.5729,-1.7474,0.0,0.0,0.0,0.0,0.0,0.0,0.0,0.0,0.0,0.0,0.0,0.0,0.0,0.0,0.0,0.0,0.0,0.0,0.0,0.0,0.0,0.0,0.0,0.0,0.0,0.0,0.0,0.0,0.0,0.0,0.0,0.0,0.0,0.0,0.0,0.0,0.0,0.0,0.0,0.0,0.0,0.0,0.0,0.0,0.0,0.0,0.0,0.0,0.0,0.0,0.0,0.0,0.0,0.0,0.0,0.0,0.0,0.0,0.0,0.0,0.0,0.0,0.0,0.0,0.0,0.0,0.0,0.0,0.0,0.0,0.0,0.0,0.0,0.0,0.0,0.0,0.0,0.0,0.0,0.0,0.0,0.0,0.0,0.0,0.0,0.0,0.0,0.0,0.0,0.0,0.0,0.0,0.0,0.0,0.0,0.0,0.0,0.0,0.0,0.0,0.0,0.0,-1.4101,-1.266,-1.1618,-1.1517,-1.1572,-1.1594,-1.1537,-1.3108,-1.4854,0.0,0.0,0.0,0.0,0.0,0.0,0.0,0.0,0.0,0.0,0.0,0.0,0.0,0.0,0.0,0.0,0.0,0.0,0.0,0.0,0.0,0.0,0.0,0.0,0.0,0.0,0.0,0.0,0.0,0.0,0.0,0.0,0.0,0.0,0.0,0.0,0.0,0.0,0.0,0.0,0.0,0.0,0.0,0.0,0.0,0.0,0.0,0.0,0.0,0.0,0.0,0.0,0.0,0.0,0.0,0.0,0.0,0.0,0.0,0.0,0.0,0.0,0.0,0.0,0.0,0.0,0.0,0.0,0.0,0.0,0.0,0.0,0.0,0.0,0.0,0.0,0.0,0.0,0.0,0.0,0.0,0.0,0.0,0.0,0.0,0.0,0.0,0.0,0.0,0.0,0.0,0.0,0.0,0.0,0.0,0.0,0.0,0.0,0.0,0.0,0.0,0.0,0.0,-1.4259,-1.4212,-1.3793,-1.2554,-1.2981,-1.3353,-1.3338,-1.38,-1.5105,-1.7474,0.0,0.0,0.0,0.0,0.0,0.0,0.0,0.0,0.0,0.0,0.0,0.0,0.0,0.0,0.0,0.0,0.0,0.0,0.0,0.0,0.0,0.0,0.0,0.0,0.0,0.0,0.0,0.0,0.0,0.0,0.0,0.0,0.0,0.0,0.0,0.0,0.0,0.0,0.0,0.0,0.0,0.0,0.0,0.0,0.0,0.0,0.0,0.0,0.0,0.0,0.0,0.0,0.0,0.0,0.0,0.0,0.0,0.0,0.0,0.0,0.0,0.0,0.0,0.0,0.0,0.0,0.0,0.0,0.0,0.0,0.0,0.0,0.0,0.0,0.0,0.0,0.0,0.0,0.0,0.0,0.0,0.0,0.0,0.0,0.0,0.0,0.0,0.0,0.0,0.0,0.0,0.0,0.0,0.0,0.0,0.0,0.0,0.0,0.0,0.0,0.0,0.0,-1.4796,-1.4764,-1.4479,-1.3432,-1.3786,-1.4099,-1.4099,-1.4429,-1.5286,-1.6868,0.0,0.0,0.0,0.0,0.0,0.0,0.0,0.0,0.0,0.0,0.0,0.0,0.0,0.0,0.0,0.0,0.0,0.0,0.0,0.0,0.0,0.0,0.0,0.0,0.0,0.0,0.0,0.0,0.0,0.0,0.0,0.0,0.0,0.0,0.0,0.0,0.0,0.0,0.0,0.0,0.0,0.0,0.0,0.0,0.0,0.0,0.0,0.0,0.0,0.0,0.0,0.0,0.0,0.0,0.0,0.0,0.0,0.0,0.0,0.0,0.0,0.0,0.0,0.0,0.0,0.0,0.0,0.0,0.0,0.0,0.0,0.0,0.0,0.0,0.0,0.0,0.0,0.0,0.0,0.0,0.0,0.0,0.0,0.0,0.0,0.0,0.0,0.0,0.0,0.0,0.0,0.0,0.0,0.0,0.0,0.0,0.0,0.0,0.0,0.0,0.0,0.0,-1.5521,-1.4709,-1.4225,-1.4224,-1.4218,-1.4219,-1.422,-1.5015,-1.5526,-1.552,0.0,0.0,0.0,0.0,0.0,0.0,0.0,0.0,0.0,0.0,0.0,0.0,0.0,0.0,0.0,0.0,0.0,0.0,0.0,0.0,0.0,0.0,0.0,0.0,0.0,0.0,0.0,0.0,0.0,0.0,0.0,0.0,0.0,0.0,0.0,0.0,0.0,0.0,0.0,0.0,0.0,0.0,0.0,0.0,0.0,0.0,0.0,0.0,0.0,0.0,0.0,0.0,0.0,0.0,0.0,0.0,0.0,0.0,0.0,0.0,-2.1238,0.0,0.0,0.0,0.0,0.0,0.0,0.0,0.0,0.0,0.0,0.0,0.0,0.0,0.0,0.0,0.0,0.0,0.0,0.0,0.0,0.0,0.0,0.0,0.0,0.0,0.0,0.0,0.0,0.0,0.0,0.0,0.0,0.0,0.0,0.0,0.0,0.0,0.0,0.0,0.0,0.0,-1.5603,-1.524,-1.5111,-1.5116,-1.5113,-1.5113,-1.5117,-1.5912,-1.6413,-1.6418,-1.7429,0.0,0.0,0.0,0.0,0.0,0.0,0.0,0.0,0.0,0.0,0.0,0.0,0.0,0.0,0.0,0.0,0.0,0.0,0.0,0.0,0.0,0.0,0.0,0.0,0.0,0.0,0.0,0.0,0.0,0.0,0.0,0.0,0.0,0.0,0.0,0.0,0.0,0.0,0.0,0.0,0.0,0.0,0.0,0.0,0.0,0.0,0.0,0.0,0.0,0.0,0.0,0.0,0.0,0.0,0.0,0.0,0.0,0.0,0.0,0.0,-2.2422,0.0,0.0,0.0,0.0,0.0,0.0,0.0,0.0,0.0,0.0,0.0,0.0,0.0,0.0,0.0,0.0,0.0,0.0,0.0,0.0,0.0,0.0,0.0,0.0,0.0,0.0,0.0,0.0,0.0,0.0,0.0,0.0,0.0,0.0,0.0,0.0,0.0,0.0,0.0,0.0,-1.5623,-1.5398,-1.5404,-1.5408,-1.5407,-1.5563,-1.5994,-1.6437,-1.6704,-1.6699,-1.7886,0.0,0.0,0.0,0.0,0.0,0.0,0.0,0.0,0.0,0.0,0.0,0.0,0.0,0.0,0.0,0.0,0.0,0.0,0.0,0.0,0.0,0.0,0.0,0.0,0.0,0.0,0.0,0.0,0.0,0.0,0.0,0.0,0.0,0.0,0.0,0.0,0.0,0.0,0.0,0.0,0.0,0.0,0.0,0.0,0.0,0.0,0.0,0.0,0.0,0.0,0.0,0.0,0.0,-2.4602,-2.4236,-2.3677,-2.3521,-2.3786,-2.4231,-2.2809,-2.2982,-2.4295,0.0,0.0,0.0,0.0,0.0,0.0,0.0,0.0,0.0,0.0,0.0,0.0,0.0,0.0,0.0,0.0,0.0,0.0,0.0,0.0,0.0,0.0,0.0,0.0,0.0,-1.9428,-1.9809,0.0,0.0,0.0,0.0,0.0,0.0,0.0,0.0,0.0,0.0,0.0,0.0,-1.6053,-1.5729,-1.5636,-1.5636,-1.5623,-1.5915,-1.6639,-1.698,-1.7095,-1.6935,-1.8376,-1.8565,0.0,0.0,0.0,0.0,0.0,0.0,0.0,0.0,0.0,0.0,0.0,0.0,0.0,0.0,0.0,0.0,0.0,0.0,0.0,0.0,0.0,0.0,0.0,0.0,0.0,0.0,0.0,0.0,0.0,0.0,0.0,0.0,-2.4827,-2.4943,0.0,0.0,0.0,0.0,0.0,0.0,0.0,0.0,0.0,0.0,0.0,0.0,0.0,-2.413,-2.4137,-2.4234,-2.5063,-2.6546,-2.5847,-2.5827,-2.6353,-2.5652,-2.4992,-2.437,-2.4135,0.0,-2.4295,-2.4292,0.0,0.0,0.0,0.0,0.0,0.0,0.0,0.0,0.0,0.0,0.0,0.0,0.0,0.0,0.0,0.0,0.0,0.0,0.0,0.0,0.0,0.0,-1.9389,-2.0149,-2.0324,-2.0381,0.0,-2.0572,-2.0495,-2.0495,-2.0497,0.0,0.0,0.0,0.0,0.0,0.0,0.0,-1.7774,-1.6999,-1.6532,-1.6532,-1.6534,-1.6571,-1.6699,-1.8086,-1.8631,-1.7881,-1.8754,-1.918,-1.8944,-1.9215,0.0,0.0,0.0,0.0,0.0,0.0,0.0,0.0,0.0,0.0,0.0,0.0,0.0,0.0,0.0,0.0,0.0,0.0,0.0,0.0,0.0,0.0,0.0,0.0,0.0,0.0,0.0,0.0,0.0,-2.4856,-2.4926,-2.4984,-2.4998,-2.5004,0.0,0.0,0.0,0.0,0.0,0.0,0.0,0.0,0.0,-2.4316,-2.5257,-2.5756,-2.576,-2.6247,-2.6621,-2.6905,-2.6537,-2.6554,-2.6885,-2.6537,-2.6439,-2.6517,-2.603,-2.5537,-2.5059,-2.4553,-2.4323,-2.4396,0.0,0.0,0.0,0.0,-2.5057,-2.4361,-2.4865,-2.4462,0.0,-2.3726,0.0,0.0,0.0,0.0,0.0,0.0,0.0,0.0,0.0,0.0,0.0,-2.0402,-2.013,-1.9896,-2.0383,-2.0498,-2.0498,0.0,-2.011,-1.9915,-2.0425,0.0,0.0,0.0,0.0,-1.8806,-1.7444,-1.7351,-1.7431,-1.7431,-1.7431,-1.7623,-1.8123,-1.8863,-1.9328,-1.9396,-1.9764,-1.9743,-1.9256,-1.9683,-1.9218,0.0,0.0,0.0,0.0,0.0,0.0,0.0,0.0,0.0,0.0,0.0,0.0,0.0,0.0,0.0,0.0,0.0,0.0,0.0,0.0,0.0,0.0,0.0,0.0,0.0,0.0,0.0,0.0,-2.4749,-2.4771,-2.4991,-2.4822,-2.4721,0.0,0.0,0.0,0.0,0.0,0.0,-2.4515,-2.4552,-2.4593,-2.4654,-2.5926,-2.6697,-2.6905,-2.7548,-2.7764,-2.7573,-2.7573,-2.7671,-2.7905,-2.7907,-2.8139,-2.8502,-2.7848,-2.6973,-2.5976,-2.5097,-2.4442,-2.4073,-2.4953,-2.5294,-2.5293,-2.5293,-2.5018,-2.4751,-2.5396,-2.505,-2.4326,-2.433,0.0,-2.3902,-2.3499,0.0,0.0,0.0,0.0,-2.2678,-2.2249,-2.1482,-2.083,-2.083,-2.0344,-1.9974,-2.0402,-2.0324,-2.0227,0.0,-1.9974,-1.9741,-2.0386,0.0,0.0,0.0,0.0,-1.8829,-1.7525,-1.7937,-1.8329,-1.8329,-1.8329,-1.8599,-1.9232,-1.9485,-1.9851,-2.0461,-2.0498,-2.0208,-1.9564,-2.0154,-1.9305,-1.6749,0.0,0.0,0.0,0.0,0.0,0.0,0.0,0.0,0.0,0.0,0.0,0.0,0.0,0.0,0.0,0.0,0.0,0.0,0.0,0.0,0.0,0.0,0.0,0.0,0.0,0.0,0.0,0.0,0.0,-2.4915,-2.4373,0.0,0.0,0.0,0.0,-2.4049,-2.413,-2.4557,-2.5396,-2.5482,-2.5556,-2.5638,-2.5716,-2.6126,-2.6885,-2.6944,-2.7768,-2.9379,-2.9379,-2.9808,-3.0605,-3.0597,-3.0182,-2.944,-2.9384,-2.8434,-2.6866,-2.5997,-2.4666,-2.3244,-2.4119,-2.445,-2.447,-2.447,-2.4955,-2.5636,-2.5677,-2.5112,-2.4392,-2.4392,-2.3828,-2.3302,-2.4099,-2.3749,0.0,0.0,-2.2504,-2.2055,-2.2835,-2.2387,-2.1726,-2.1726,-2.1706,-2.1453,-2.0674,-1.9857,-1.9506,0.0,-2.0461,-2.0441,-2.05,0.0,-1.9321,-1.9251,-1.9274,-1.9278,-1.9186,-1.9206,-1.9226,-1.9226,-1.9226,-1.9242,-1.9291,-1.9992,-2.0454,-2.05,-2.0498,-2.048,-2.0441,-2.0479,-2.0411,-2.0255,-1.7973,0.0,0.0,0.0,0.0,0.0,0.0,0.0,0.0,0.0,0.0,0.0,0.0,0.0,0.0,0.0,0.0,0.0,0.0,0.0,0.0,0.0,0.0,0.0,0.0,0.0,0.0,0.0,0.0,-2.5088,-2.498,0.0,-2.5582,-2.5742,-2.5568,-2.5003,-2.5579,-2.5851,-2.5649,-2.6147,-2.645,-2.6476,-2.7567,-2.8288,-2.8561,-2.9126,-2.9713,-3.0341,-3.0349,-3.0509,-3.0802,-3.0794,-3.0634,-3.0347,-3.0336,-2.9671,-2.8587,-2.8271,-2.6813,-2.4796,-2.5118,-2.5235,-2.5239,-2.5233,-2.5079,-2.4946,-2.5506,-2.4764,-2.3556,-2.3556,-2.3731,-2.3887,-2.3634,-2.3343,-2.3109,-2.3109,-2.2876,-2.2837,-2.3712,-2.3285,-2.2778,-2.3343,-2.2622,-2.1706,-2.1395,-2.1083,-2.0966,-2.1278,-2.001,-1.9076,-1.9626,-1.9492,-1.9107,-1.8552,-1.9863,-2.0529,-1.944,-2.0239,-2.0708,-2.0183,-2.0142,-2.0117,-2.009,-2.0342,-2.0493,-2.05,-2.0498,-2.0498,-2.0498,-2.0498,-1.9735,-1.8089,-1.8754,-1.9008,0.0,0.0,0.0,0.0,0.0,0.0,0.0,0.0,0.0,0.0,0.0,0.0,0.0,0.0,0.0,0.0,0.0,0.0,0.0,0.0,0.0,0.0,0.0,0.0,0.0,0.0,-2.511,-2.5983,-2.6219,-2.6506,-2.7028,-2.7187,-2.6904,-2.6046,-2.6554,-2.6807,-2.6556,-2.7041,-2.747,-2.7762,-2.8892,-2.9632,-2.9944,-3.0509,-3.0806,-3.0795,-3.08,-3.0806,-3.0794,-3.0801,-3.0796,-3.0802,-3.0792,-3.0478,-2.9918,-2.9626,-2.8501,-2.689,-2.6038,-2.5527,-2.5258,-2.5253,-2.5079,-2.489,-2.5155,-2.451,-2.3536,-2.3536,-2.3926,-2.4296,-2.3712,-2.3536,-2.348,-2.3187,-2.3109,-2.3304,-2.4179,-2.3965,-2.3673,-2.4257,-2.3517,-2.2603,-2.2291,-2.2233,-2.2233,-2.2233,-2.0886,-1.9893,-2.0483,-2.035,-1.9944,-1.937,-2.0719,-2.1404,-2.0296,-2.1366,-2.2028,-2.1504,-2.1442,-2.1301,-2.0964,-2.1217,-2.1134,-2.0539,-2.0771,-2.081,-2.0518,-2.0498,-1.9719,-1.8022,-2.0029,-2.0168,-1.8332,0.0,0.0,0.0,0.0,0.0,0.0,0.0,0.0,0.0,0.0,0.0,0.0,0.0,0.0,0.0,0.0,0.0,0.0,0.0,0.0,0.0,0.0,0.0,-2.5053,-2.4487,-2.5082,-2.7599,-2.8043,-2.8126,-2.8097,-2.8176,-2.7879,-2.7002,-2.6983,-2.7372,-2.8191,-2.8269,-2.8678,-2.9515,-2.9535,-2.9944,-3.0782,-3.0801,-3.0793,-3.0798,-3.0806,-3.0794,-3.0792,-3.0792,-3.0803,-3.0804,-3.0791,-3.0792,-3.0719,-2.9863,-2.9473,-2.9218,-2.6702,-2.5212,-2.4471,-2.4452,-2.4978,-2.5582,-2.4705,-2.4413,-2.4432,-2.4374,-2.4374,-2.4394,-2.4394,-2.4374,-2.4199,-2.3363,-2.3129,-2.3304,-2.4218,-2.4413,-2.4413,-2.4432,-2.4394,-2.4121,-2.3246,-2.309,-2.3109,-2.3109,-2.3129,-2.3129,-2.307,-2.2353,-2.1794,-2.1802,-2.1841,0.0,-2.1831,-2.2606,-2.3127,-2.3107,-2.3107,-2.2756,-2.1915,-2.2615,-2.2378,-2.0695,-2.1375,-2.1453,-2.0615,-2.0576,-2.0576,-2.0576,-2.1684,-2.1303,-1.9375,0.0,0.0,0.0,0.0,0.0,0.0,0.0,0.0,0.0,0.0,0.0,0.0,0.0,0.0,0.0,0.0,0.0,0.0,0.0,0.0,0.0,0.0,-2.6105,-2.5937,-2.699,-2.827,-2.9603,-2.9385,-2.9362,-2.998,-2.9487,-2.8775,-2.7918,-2.9009,-2.9554,-2.9165,-2.9749,-3.0197,-3.0431,-3.0431,-3.0567,-3.0801,-3.0801,-3.0804,-3.0793,-3.0798,-3.0808,-3.0803,-3.0803,-3.0803,-3.0804,-3.0798,-3.0796,-3.0739,-2.9854,-2.9131,-2.8429,-2.7088,-2.6443,-2.6213,-2.5584,-2.5485,-2.5582,-2.4705,-2.4803,-2.5134,-2.3867,-2.3887,-2.4394,-2.4394,-2.3965,-2.3536,-2.3926,-2.3595,-2.3458,-2.4959,-2.4861,-2.4569,-2.5192,-2.4374,-2.3226,-2.2349,-2.2642,-2.3109,-2.3109,-2.36,-2.3642,-2.239,-2.1961,-2.1809,-2.1798,-2.289,0.0,-2.2818,-2.3496,-2.3806,-2.3166,-2.3106,-2.3005,-2.2752,-2.2966,-2.2903,-2.2427,-2.2603,-2.2642,-2.2408,-2.2388,-2.2388,-2.2388,-2.3266,-2.3458,0.0,0.0,0.0,0.0,0.0,0.0,0.0,0.0,0.0,0.0,0.0,0.0,0.0,0.0,0.0,0.0,0.0,0.0,0.0,0.0,0.0,0.0,-2.7304,-2.8051,-2.8824,-2.9376,-3.0168,-3.1391,-3.161,-3.184,-3.234,-3.1934,-3.1135,-2.9927,-3.0765,-3.0957,-3.01,-3.0528,-3.0801,-3.0801,-3.0801,-3.0801,-3.0801,-3.0801,-3.0804,-3.0808,-3.0791,-3.0802,-3.0798,-3.0423,-3.0251,0.0,-3.0267,-3.0051,-2.9764,-2.9967,-2.9535,0.0,0.0,0.0,0.0,0.0,-2.5699,-2.5621,-2.5114,-2.527,-2.5524,-2.451,-2.453,-2.4939,-2.4939,-2.4588,-2.4296,-2.4803,-2.4588,-2.4491,-2.5855,-2.5835,-2.5485,-2.566,-2.5465,-2.4705,-2.2759,-2.3575,-2.4471,-2.377,-2.436,0.0,-2.3602,-2.3137,-2.3004,-2.3374,-2.4294,-2.4766,-2.4243,-2.463,-2.4747,-2.4243,-2.4181,-2.4043,-2.3671,-2.398,0.0,0.0,0.0,-2.348,-2.3129,-2.3109,0.0,0.0,0.0,-2.452,-2.4898,0.0,0.0,0.0,-2.3637,-2.3439,0.0,0.0,0.0,0.0,0.0,0.0,0.0,0.0,0.0,0.0,0.0,0.0,0.0,0.0,0.0,0.0,-2.9319,-3.0991,-3.2648,-3.1832,-3.1634,-3.3119,-3.4065,-3.4565,-3.4464,-3.4372,-3.367,-3.2072,-3.1956,-3.1622,-3.084,0.0,0.0,0.0,0.0,-3.0801,-3.0801,-3.0801,-3.0806,-3.0798,-3.0709,-3.0659,-3.062,-2.9753,-2.9363,-2.9372,-2.945,-2.9079,-2.8553,-3.0045,-3.0139,-2.9203,-2.7718,-2.6543,-2.5718,-2.579,-2.5769,-2.5691,-2.5788,0.0,0.0,-2.5697,-2.5699,-2.5718,-2.5816,-2.5835,-2.5855,-2.5952,-2.5972,-2.6147,-2.6866,-2.6963,-2.6691,-2.5894,-2.6848,-2.7061,-2.3926,-2.5095,-2.6303,-2.4705,-2.5017,-2.5547,-2.5554,-2.4997,-2.4805,-2.5579,-2.5704,-2.571,-2.571,-2.571,-2.571,-2.571,0.0,0.0,-2.4612,-2.5267,-2.5049,-2.349,-2.4126,-2.4199,-2.3421,-2.338,-2.3751,-2.453,-2.4549,-2.492,-2.5695,-2.5639,-2.5605,-2.5578,-2.4736,-2.4358,0.0,0.0,0.0,0.0,0.0,0.0,0.0,0.0,0.0,0.0,0.0,0.0,0.0,0.0,0.0,-3.0238,-3.1938,-3.3415,-3.4412,-3.4991,-3.5254,-3.5115,-3.4753,-3.4282,-3.3685,-3.3008,-3.217,-3.1132,-3.1055,-3.0977,-3.0801,-3.0801,0.0,-3.0801,-3.0801,-3.0801,-3.0801,-3.0801,-3.0801,-3.0784,0.0,0.0,-2.9714,-2.8844,-2.848,-2.8576,-2.9221,-2.9418,-2.9297,-2.9616,-2.9242,-2.8423,-2.8082,-2.7043,-2.5771,-2.6362,-2.6134,-2.5635,-2.6345,-2.6134,-2.5568,-2.5667,-2.5699,-2.5816,-2.6478,-2.6671,0.0,-2.7528,-2.7723,-2.7743,-2.7918,-2.7431,-2.6691,-2.5894,-2.5952,-2.5816,-2.4432,-2.5095,-2.5621,-2.4608,-2.4535,-2.4656,-2.465,-2.5085,-2.5503,-2.5666,-2.5708,-2.571,-2.571,-2.571,-2.571,-2.571,-2.5702,-2.5637,-2.5462,-2.5609,-2.5564,-2.5214,-2.537,-2.5368,-2.5192,-2.5192,-2.527,-2.5446,-2.5446,-2.5496,-2.5615,-2.561,-2.5565,-2.5515,-2.5321,-2.5253,0.0,0.0,0.0,0.0,0.0,0.0,0.0,0.0,0.0,0.0,0.0,-2.7119,-2.7234,0.0,-3.0977,-3.2236,-3.3587,-3.4734,-3.5532,-3.577,-3.5741,-3.547,-3.486,-3.433,-3.3985,-3.3223,-3.2384,-3.1525,-3.1447,-3.1252,-3.0821,-3.0801,-3.0801,-3.0801,-3.0801,-3.0801,-3.0801,-3.0373,-3.0158,-3.0139,-2.9262,-2.9072,-2.9466,-2.8602,-2.8455,-2.892,-2.9329,-2.9254,-2.8881,-2.9316,-2.9234,-2.884,-2.8807,-2.8015,-2.6898,-2.6789,-2.6738,-2.6757,-2.7195,-2.7063,-2.6652,-2.6354,-2.6257,-2.6323,-2.6762,-2.6905,-2.708,-2.7957,-2.8191,-2.8191,-2.8191,-2.7879,-2.7236,-2.5991,-2.6673,-2.6887,-2.4316,-2.5777,-2.6963,-2.4822,-2.5079,-2.551,-2.5122,-2.5403,-2.5545,-2.5113,-2.5045,-2.505,-2.5041,-2.5439,-2.5698,-2.5694,-2.569,-2.5707,-2.5707,-2.5694,-2.5703,-2.5699,-2.5699,-2.5699,-2.5699,-2.5699,-2.5699,-2.5699,-2.5699,-2.5675,-2.5645,-2.5645,-2.5627,-2.5546,-2.5547,-2.5541,0.0,0.0,0.0,0.0,0.0,0.0,0.0,0.0,-2.5714,-2.6135,-2.7658,-2.8945,-2.8945,-3.1088,-3.3164,-3.4036,-3.5096,-3.5988,-3.6463,-3.5888,-3.5321,-3.5054,-3.465,-3.4274,-3.4019,-3.3475,-3.2793,-3.1917,-3.1858,-3.1544,-3.084,-3.0801,-3.0801,-3.0801,-3.0801,-3.0801,-3.0801,-3.01,-2.9749,-2.9749,-2.8873,-2.8814,-2.9476,-2.86,-2.8587,-2.9258,-2.9425,-2.9098,-2.8525,-2.9394,-2.9732,-2.9715,-2.9464,-2.9031,-2.8415,-2.7495,-2.7479,-2.7894,-2.8068,-2.801,-2.7777,-2.7206,-2.6928,-2.6819,-2.6856,-2.6898,-2.7041,-2.7743,-2.8074,-2.8152,-2.7996,-2.7957,-2.7567,-2.6069,-2.7392,-2.8054,-2.4588,-2.6556,-2.8132,-2.5212,-2.5738,-2.6402,-2.5591,-2.5446,-2.5273,-2.4734,-2.4656,-2.4644,-2.4646,-2.5265,-2.5703,-2.5698,-2.5696,-2.5694,-2.5693,-2.5699,-2.5707,-2.5699,-2.5699,-2.5699,-2.5699,-2.5699,-2.5699,-2.5699,-2.5699,-2.5699,-2.5699,-2.5695,-2.5643,-2.56,-2.5587,-2.5544,-2.3555,-2.3407,-2.3567,-2.3863,-2.3945,-2.4228,0.0,0.0,-2.7189,-2.7937,-2.9581,-3.0884,-3.0884,-3.2928,-3.4908,-3.5789,-3.7318,-3.8145,-3.7461,-3.6691,-3.5642,-3.4233,-3.4206,-3.3752,-3.2338,-3.2216,-3.1878,-3.1016,-3.0957,-3.0899,-3.0801,-3.0801,-3.0801,-3.0801,-3.0801,-3.0801,-3.0801,-3.0704,-3.0645,-3.0645,-2.9769,-2.9418,-2.9476,-2.86,-2.8249,-2.8388,-2.9158,-2.9441,-2.9429,-3.0297,-3.0622,-3.0471,-2.9643,-2.9616,-2.9952,-2.9121,-2.8404,-2.7928,-2.8692,-2.8462,-2.781,-2.7773,-2.7331,-2.6809,-2.6805,-2.6848,-2.6924,-2.7022,-2.7606,-2.8015,-2.7255,-2.7041,-2.6827,-2.5913,-2.6459,-2.7061,-2.6574,-2.6846,-2.6866,-2.5777,-2.5718,-2.5563,-2.4688,-2.4558,-2.4783,-2.5452,-2.5558,-2.5541,-2.5552,-2.5632,-2.5692,-2.5692,-2.5702,-2.5692,-2.5705,-2.5701,-2.5699,-2.5699,-2.5699,-2.5699,-2.5699,-2.5699,-2.5699,-2.5699,-2.5699,-2.5699,-2.5699,-2.5641,-2.5617,-2.5604,-2.5535,-2.5515,-2.3389,-2.3481,-2.3941,-2.5005,-2.5371,-2.5878,-2.7492,-2.8568,-2.9392,-2.993,-3.1434,-3.2653,-3.2653,-3.4301,-3.578,0.0,-3.6833,-3.7034,-3.616,-3.4942,-3.3356,-3.1234,-3.1168,-3.1418,-3.1747,-3.1524,-3.1191,-3.084,-3.0801,-3.0801,-3.0801,-3.0314,-3.0275,-3.0782,-3.0314,-3.0041,-3.0041,-3.0041,-2.9788,-2.9282,-2.8911,-2.9009,-2.9496,-2.9115,-2.9238,-2.9733,-3.0108,-3.0267,-3.0289,-3.0601,-3.0728,-3.0646,-3.0143,-3.0109,-3.0248,-2.9321,-2.9072,-2.9251,-2.9609,-2.9494,-2.9136,-2.8723,-2.8381,-2.8058,-2.7578,-2.7168,-2.6835,-2.6835,-2.6802,-2.6654,-2.6303,-2.6205,-2.6128,-2.5777,-2.6303,-2.6768,-2.6303,-2.6963,-2.7275,-2.5952,-2.6089,-2.6128,-2.5309,-2.5161,-2.5283,-2.5653,-2.5275,-2.4948,-2.4935,-2.5392,-2.5707,-2.5701,-2.5696,-2.5708,-2.5699,-2.5699,-2.5699,-2.5699,-2.5699,-2.5699,-2.5699,-2.5699,-2.5699,-2.5699,-2.5699,-2.5699,-2.5699,-2.5639,-2.5593,-2.5598,-2.5531,-2.5501,-2.3542,-2.398,-2.4725,-2.6236,-2.6881,-2.7632,-2.9414,-3.0495,-3.1269,-3.173,-3.2824,-3.3695,-3.3695,-3.468,-3.5571,-3.5799,-3.6084,-3.598,-3.5115,-3.3602,-3.1748,-2.9491,-2.8944,-2.9245,-3.05,-3.0272,-3.0163,-3.0429,-3.0431,-3.0548,-3.0782,-3.0197,-3.0158,-3.0782,-3.0197,-2.9866,-2.9866,-2.9866,-2.9535,-2.8911,-2.8911,-2.9243,-2.9866,-2.986,-3.0069,-3.045,-3.0705,-3.0668,-3.0471,-3.0641,-3.0684,-3.0649,-3.0486,-3.0395,-3.0288,-2.9551,-2.9664,-3.0211,-3.0211,-3.0211,-3.0065,-2.9308,-2.9069,-2.8956,-2.8111,-2.7503,-2.7108,-2.7152,-2.6771,-2.6305,-2.6085,-2.603,-2.603,-2.603,-2.6478,-2.6729,-2.6167,-2.6983,-2.7411,-2.5972,-2.6167,-2.6381,-2.5796,-2.5705,-2.5707,-2.5699,-2.5164,-2.4758,-2.4766,-2.5304,-2.5699,-2.571,-2.5708,-2.5707,-2.5699,-2.5699,-2.5699,-2.5699,-2.5699,-2.5699,-2.5699,-2.5699,-2.5699,-2.5699,-2.5699,-2.5699,-2.5699,-2.5639,-2.5598,-2.5593,-2.5544,-2.5527,-2.4251,0.0,-2.6044,-2.7323,-2.8242,-2.9174,-3.055,-3.1571,-3.2468,-3.3279,-3.3564,-3.3695,-3.3695,-3.3733,-3.4036,-3.4813,-3.5647,-3.5913,-3.5106,-3.3568,-3.1903,-3.0266,-2.8747,-2.7855,0.0,-2.8086,-2.8568,-2.9472,-2.9535,-2.9905,-3.0743,-3.0762,-3.0762,-3.0801,-3.0762,-3.0762,-3.0762,-3.0762,-3.0743,-3.0723,-3.0723,-3.0723,-3.0762,-3.0756,-3.0305,-2.958,-3.0422,-3.0367,-2.9688,-3.0414,-3.0667,-3.0595,-3.0516,-3.0411,-3.0292,-3.0273,-3.0227,-3.0211,-3.0211,-3.0211,-3.0051,-2.9185,-2.8983,-2.8939,-2.8066,-2.7831,-2.789,-2.8022,-2.8045,-2.7847,-2.7069,-2.6866,-2.6866,-2.6866,-2.6885,-2.6885,-2.6866,-2.6905,-2.6691,-2.5855,-2.5718,-2.5738,-2.5699,-2.5699,-2.5699,-2.5699,-2.5679,-2.566,-2.566,-2.5679,-2.5699,-2.5699,-2.5699,-2.5699,-2.5699,-2.5699,-2.5699,-2.5699,-2.5699,-2.5699,-2.5699,-2.5699,-2.5699,-2.5699,-2.5699,-2.5699,-2.5699,-2.5639,-2.5608,-2.5608,-2.5596,-2.5564,-2.5047,0.0,-2.73,-2.9491,-3.0332,-3.1082,-3.2821,-3.3095,-3.2917,-3.2741,-3.1891,-3.1188,-3.1185,-3.0705,-3.0791,-3.2208,-3.3145,-3.3392,-3.2594,-3.203,-3.0692,-2.7906,-2.7166,0.0,0.0,0.0,0.0,-2.9368,-2.9479,-2.9886,-3.0743,-3.0256,-3.0197,-3.0782,-3.0236,-2.9944,-2.9944,-3.0509,-3.0509,-2.9944,-3.0528,-3.0806,-3.0795,-3.08,-3.0634,-3.0373,-3.0672,-3.0625,-3.0345,-3.0556,-3.0582,-3.0528,-3.0455,-3.039,-3.0311,-3.0311,-3.0299,-3.0253,-3.0226,-3.0194,-3.0155,-2.9867,-2.9792,-2.9787,-2.9481,-2.9063,-2.8716,-2.8758,-2.8442,-2.8049,-2.7759,-2.7736,-2.7762,-2.7762,-2.7762,-2.7762,-2.7762,-2.7762,-2.7509,-2.6652,-2.6498,-2.6322,-2.5796,-2.6147,-2.6498,-2.6498,-2.605,-2.5699,-2.5699,-2.5699,-2.5699,-2.5699,-2.5699,-2.5699,-2.5699,-2.5699,-2.5699,-2.5699,-2.5699,-2.5699,-2.5699,-2.5699,-2.5699,-2.5699,-2.5699,-2.5699,-2.5699,-2.5639,-2.5608,-2.5608,-2.5559,-2.5557,-2.5844,-2.7442,-2.9296,-3.1084,-3.209,-3.2849,-3.3622,-3.331,-3.2637,-3.1948,-3.0517,-2.9324,-2.9093,-2.8542,-2.8423,-2.9271,-3.0113,-3.0576,-3.0376,-3.0102,-2.9273,-2.7456,-2.6988,-2.6421,0.0,0.0,0.0,-2.8887,-2.9527,-3.0294,-3.121,-3.0726,-3.0687,-3.1252,-3.0412,-2.9964,-2.9964,-3.0528,-3.0528,-2.9964,-3.0528,-3.0808,-3.0802,-3.0802,-3.0808,-3.0798,-3.0771,-3.073,-3.0692,-3.0595,-3.0542,-3.0492,-3.04,-3.054,-3.0764,-3.0413,-3.0516,-3.074,-3.0369,-3.0221,-3.015,-2.9868,-2.997,-3.0128,-2.9822,-2.9627,-2.9506,-2.9529,-2.9255,-2.8962,-2.899,-2.8832,-2.8814,-2.9459,-2.9126,-2.8756,-2.9067,-2.8873,-2.8405,-2.7528,-2.71,-2.6729,-2.6225,-2.6556,-2.6807,-2.6517,-2.6283,-2.603,-2.5738,-2.5699,-2.5699,-2.5699,-2.5699,-2.5699,-2.5699,-2.5699,-2.5699,-2.5699,-2.5699,-2.5699,-2.5699,-2.5699,-2.5699,-2.5699,-2.5699,-2.5699,-2.5699,-2.5667,-2.5617,-2.5608,-2.5551,-2.555,-2.6796,-2.939,-3.189,-3.2162,-3.3433,-3.4258,-3.2947,-3.2231,-3.1645,-3.0864,-2.9419,-2.8106,0.0,0.0,-2.6907,-2.6354,-2.6994,-2.7862,-2.8727,-2.8183,-2.8004,0.0,0.0,0.0,0.0,0.0,0.0,-2.8262,0.0,-3.1054,-3.2104,-3.217,-3.217,-3.217,-3.133,-3.0899,-3.0938,-3.0899,-3.0879,-3.0879,-3.0821,-3.0808,-3.08,-3.08,-3.0806,-3.0794,-3.073,-3.0703,-3.0688,-3.061,-3.0535,-3.0476,-3.0404,-3.088,-3.1513,-3.0625,-3.0849,-3.1488,-3.0599,-3.0266,-3.008,-2.9302,-2.9588,-3.0058,-2.9223,-2.9535,-3.0213,-3.0279,-3.0425,-3.0573,-3.0645,-3.0172,-3.0117,-3.178,-3.0862,-2.9866,-3.0684,-3.0178,-2.9301,-2.8444,-2.7567,-2.6963,-2.6963,-2.6924,-2.6632,-2.5874,-2.6381,-2.6554,-2.5796,-2.5699,-2.5699,-2.5699,-2.5699,-2.5699,-2.5699,-2.5699,-2.5699,-2.5699,-2.5699,-2.5699,-2.5699,-2.5699,-2.5699,-2.5699,-2.5697,-2.5697,-2.5697,-2.5697,-2.5667,-2.5605,-2.5605,-2.5557,-2.9885,-3.1941,-3.3538,-3.3772,-3.3701,-3.327,-3.2082,-3.0857,-2.961,-2.8278,-2.6749,-2.5626,0.0,0.0,0.0,-2.6865,-2.7858,0.0,-2.9496,-3.0021,0.0,-2.9772,0.0,-2.9462,-2.9487,-3.0087,0.0,0.0,-3.0636,-3.128,-3.2849,-3.3,-3.3066,-3.3066,-3.2228,-3.2072,-3.2732,-3.2092,-3.178,-3.1761,-3.1113,-3.0801,-3.0806,-3.0806,-3.0808,-3.0791,-3.0789,-3.0684,-3.0599,-3.1209,-3.1032,-3.0406,-3.1021,-3.1015,-3.0625,-3.0395,-3.0452,-3.0618,-3.0375,-3.0286,-3.0228,-2.9985,-3.0035,-3.0162,-2.9952,-3.0015,-3.0199,-3.0214,-3.074,-3.135,-3.1468,-3.186,-3.2396,-3.2939,-3.2228,-3.1507,-3.1722,-3.1076,-3.0217,-2.934,-2.8463,-2.7879,-2.7879,-2.7333,-2.6827,-2.6613,-2.6264,-2.5933,-2.5738,-2.5699,-2.5699,-2.5699,-2.5699,-2.5699,-2.5699,-2.5699,-2.5699,-2.5699,-2.5699,-2.5699,-2.5699,-2.5699,-2.5699,-2.5699,-2.5645,-2.5637,-2.5637,-2.5634,-2.5621,-2.5593,-2.5553,-2.5544,-3.1729,-3.3633,-3.497,-3.442,-3.3993,-3.3192,-3.1172,-2.9637,-2.8203,-2.6693,-2.5432,0.0,-2.4327,0.0,0.0,0.0,0.0,0.0,-2.8161,-2.9352,-3.0249,0.0,-3.0915,0.0,-3.12,-3.1646,-3.2138,0.0,-3.2326,-3.258,-3.363,-3.3817,-3.3878,-3.3878,-3.309,-3.291,-3.3397,-3.291,-3.2677,-3.2657,-3.1797,-3.1369,-3.1369,-3.1369,-3.1369,-3.1386,0.0,-3.1697,-3.1603,-3.1644,-3.1551,-3.1377,-3.1083,-3.1384,-3.1864,-3.1076,-3.1045,-3.134,-3.0923,-3.0567,-3.0292,-3.0208,-3.0188,-3.0265,-3.0654,-3.0506,-3.0359,-3.1138,-3.1181,-3.1324,-3.2575,-3.2766,-3.2942,-3.4202,-3.3261,-3.2209,-3.2599,-3.17,-3.0548,-2.9671,-2.9418,-2.9106,-2.8327,-2.8424,-2.821,-2.7061,-2.6846,-2.6537,-2.5796,-2.5699,-2.5699,-2.5699,-2.5699,-2.5699,-2.5699,-2.5699,-2.5699,-2.5699,-2.5699,-2.5699,-2.5699,-2.5699,-2.5699,-2.5699,-2.5669,-2.5643,-2.5643,-2.5647,-2.5634,-2.5601,-2.555,-2.5557,-3.2957,-3.4757,-3.6024,-3.449,-3.3992,-3.3121,-3.0193,-2.8445,-2.7043,-2.5689,0.0,-2.4317,-2.382,-2.4257,-2.4321,-2.3177,0.0,-2.5477,-2.6406,-2.7877,-2.9515,-3.1252,-3.2163,-3.2721,-3.2891,-3.2926,-3.3274,-3.4093,-3.4211,-3.4308,-3.4447,-3.4589,-3.4614,-3.4529,-3.401,-3.369,-3.3553,-3.3553,-3.3553,-3.3553,-3.2677,-3.2267,-3.2267,-3.2267,-3.2267,-3.2301,0.0,0.0,-3.2947,-3.2161,-3.2218,-3.2656,-3.1259,-3.2008,-3.3722,-3.2156,-3.2094,-3.2642,-3.1716,-3.0985,-3.0426,-3.0259,-3.029,-3.0482,-3.1139,-3.096,-3.08,-3.2096,-3.166,-3.1295,-3.3539,-3.3252,-3.2951,-3.5181,-3.3955,-3.2482,-3.3242,-3.2129,-3.0704,-2.9847,-3.0275,-3.0275,-2.8658,-2.9632,-2.9788,-2.7275,-2.7645,-2.7587,-2.5913,-2.5699,-2.5699,-2.5699,-2.5699,-2.5699,-2.5699,-2.5699,-2.5699,-2.5699,-2.5699,-2.5699,-2.5699,-2.5699,-2.5699,-2.5699,-2.5697,-2.5695,-2.5695,-2.5691,-2.5661,-2.5603,-2.5593,-2.5567,-3.458,-3.5578,-3.6024,-3.449,-3.263,-3.0739,-2.9026,-2.7001,0.0,0.0,-2.4385,-2.4352,-2.4417,-2.4575,-2.487,-2.5393,0.0,0.0,0.0,0.0,-3.0379,0.0,0.0,0.0,0.0,0.0,0.0,0.0,0.0,-3.5078,-3.5194,-3.5388,-3.5204,-3.4606,-3.5162,-3.5109,-3.4411,-3.4391,-3.4391,-3.4372,-3.3553,-3.3164,-3.3164,-3.3164,-3.3164,-3.3178,-3.3172,0.0,-3.303,-3.3468,-3.3276,-3.2764,-3.3173,-3.3181,-3.2894,-3.2592,-3.2573,-3.2581,-3.1713,-3.1358,-3.1162,-3.0437,-3.0692,-3.1178,-3.0597,-3.1295,-3.2038,-3.0963,-3.1953,-3.3324,-3.3173,-3.405,-3.4928,-3.4785,-3.3942,-3.3222,-3.3378,-3.2599,-3.1622,-3.0743,-3.0704,-3.049,-2.9457,-2.9535,-2.9087,-2.7197,-2.7645,-2.7587,-2.5913,-2.5699,-2.5699,-2.5699,-2.5699,-2.5699,-2.5699,-2.5699,-2.5699,-2.5699,-2.5699,-2.5699,-2.5699,-2.5699,-2.5699,-2.5699,-2.5643,-2.5615,-2.5615,-2.5629,-2.5613,-2.561,-2.5604,-2.5598,-3.6024,-3.6417,-3.6024,-3.449,-3.2295,-2.999,-2.8098,0.0,0.0,0.0,-2.4098,-2.4284,-2.4425,-2.4586,0.0,0.0,0.0,0.0,0.0,0.0,0.0,0.0,0.0,0.0,0.0,0.0,0.0,0.0,0.0,-3.5226,-3.5289,-3.5438,-3.5417,-3.513,-3.5562,-3.5603,-3.5175,-3.5175,-3.5214,-3.5265,-3.4393,-3.3987,-3.4018,-3.3984,-3.3965,-3.4001,-3.4231,0.0,-3.4248,-3.41,-3.4029,-3.396,-3.3509,-3.3597,-3.3941,-3.3528,-3.3375,-3.3318,-3.2898,-3.2477,-3.2057,-3.1651,-3.1501,-3.1503,-3.1541,-3.212,-3.2768,-3.2832,-3.3085,-3.3452,-3.4057,-3.4562,-3.4967,-3.5094,-3.4555,-3.3904,-3.3495,-3.2715,-3.1975,-3.1563,-3.1486,-3.1193,-3.0334,-3.055,-3.0258,-2.8522,-2.8619,-2.8424,-2.7158,-2.6615,-2.6167,-2.5738,-2.5699,-2.5699,-2.5699,-2.5699,-2.5699,-2.5699,-2.5699,-2.5699,-2.5699,-2.5699,-2.5699,-2.5699,-2.5669,-2.5645,-2.5645,-2.5651,-2.5644,-2.5644,-2.5612,-2.5607,-3.6149,-3.6363,-3.5685,-3.3812,-3.1637,-2.944,-2.7246,-2.5631,0.0,-2.3808,-2.3949,-2.4173,-2.4256,0.0,-2.4715,0.0,-2.5418,0.0,0.0,0.0,0.0,0.0,0.0,0.0,0.0,0.0,0.0,0.0,0.0,0.0,-3.5239,-3.5328,-3.5464,-3.5602,-3.565,-3.5687,-3.5687,-3.5687,-3.5725,-3.5827,-3.508,-3.4754,-3.4815,-3.4769,-3.4732,-3.4762,-3.5212,0.0,0.0,-3.458,-3.4636,-3.5076,-3.375,-3.4036,-3.5114,-3.4483,-3.4254,-3.4235,-3.4071,-3.3547,-3.2947,-3.2756,-3.2397,-3.2127,-3.2625,-3.3027,-3.3517,-3.4473,-3.4155,-3.38,-3.5045,-3.5207,-3.5226,-3.5827,-3.5431,-3.4703,-3.4079,-3.3242,-3.2579,-3.2404,-3.2072,-3.1602,-3.0918,-3.1369,-3.1291,-2.973,-2.9652,-2.9399,-2.8346,-2.7762,-2.7061,-2.6069,-2.5796,-2.5699,-2.5699,-2.5699,-2.5699,-2.5699,-2.5699,-2.5699,-2.5699,-2.5699,-2.5699,-2.5699,-2.5699,-2.5699,-2.5699,-2.5695,-2.5695,-2.5699,-2.5632,-2.5603,-3.3471,-3.4294,-3.4597,-3.1581,-2.9604,-2.7964,-2.63,0.0,-2.3627,-2.3678,-2.3858,-2.4066,-2.4192,-2.4486,-2.4684,-2.4639,0.0,-2.5374,0.0,0.0,0.0,0.0,0.0,0.0,0.0,0.0,0.0,0.0,0.0,0.0,-3.539,-3.5391,-3.5464,-3.5602,-3.5618,-3.5604,-3.5604,-3.5604,-3.5629,-3.5639,-3.5532,-3.5493,-3.5503,-3.5493,-3.5507,-3.5496,-3.5425,0.0,0.0,-3.5185,-3.5133,-3.519,-3.5029,-3.5048,-3.519,-3.5114,-3.5095,-3.4999,-3.4254,-3.3956,-3.3738,-3.2967,-3.3184,-3.3632,-3.2917,-3.3777,-3.4694,-3.3318,-3.4495,-3.6012,-3.5379,-3.6385,-3.7442,-3.6983,-3.6323,-3.5752,-3.5694,-3.4993,-3.4157,-3.3417,-3.1992,-3.0899,-3.0801,-3.0879,-3.0606,-2.9632,-3.0178,-3.008,-2.8405,-2.8814,-2.8639,-2.6963,-2.6147,-2.5699,-2.5699,-2.5699,-2.5699,-2.5699,-2.5699,-2.5699,-2.5699,-2.5699,-2.5699,-2.5699,-2.5699,-2.5699,-2.5699,-2.5641,-2.5641,-2.5697,-2.5632,-2.5601,-3.1867,-3.2989,-3.3169,-3.0511,-2.9016,-2.766,-2.5604,0.0,-2.3528,-2.3571,-2.3707,-2.3868,-2.4047,-2.4293,-2.4493,-2.458,0.0,0.0,-2.5978,0.0,0.0,0.0,0.0,0.0,0.0,0.0,0.0,0.0,0.0,0.0,-3.5266,-3.5274,-3.5304,-3.5362,-3.5432,-3.5476,-3.5476,-3.5476,-3.5519,-3.5607,-3.5513,-3.5519,-3.5607,-3.5513,-3.5476,-3.547,-3.534,0.0,0.0,-3.5215,-3.5209,-3.5209,-3.5209,-3.5209,-3.5209,-3.5209,-3.5209,-3.5152,-3.4827,-3.4713,-3.4674,-3.4323,-3.4445,-3.4579,-3.3738,-3.4292,-3.5057,-3.438,-3.5316,-3.6424,-3.6061,-3.6995,-3.7983,-3.7817,-3.7626,-3.7467,-3.7467,-3.6785,-3.5752,-3.4391,-3.3161,-3.2031,-3.0977,-3.0801,-3.0684,-3.0334,-3.0587,-3.0548,-2.9847,-2.9613,-2.9028,-2.7801,-2.6924,-2.6225,-2.5738,-2.5699,-2.5699,-2.5699,-2.5699,-2.5673,-2.5641,-2.5641,-2.5634,-2.5637,-2.5634,-2.5634,-2.5634,-2.5607,-2.5607,-2.5634,-2.5613,-2.5607,-2.9469,-3.0871,-3.1311,-2.8923,-2.791,-2.6929,0.0,0.0,-2.3505,-2.3505,-2.3598,-2.3764,-2.3947,-2.4164,-2.4363,-2.453,0.0,-2.4983,-2.557,0.0,0.0,0.0,0.0,0.0,0.0,0.0,0.0,0.0,0.0,0.0,0.0,-3.5201,-3.5209,-3.5209,-3.5289,-3.5348,-3.5348,-3.5348,-3.5378,-3.5476,-3.5397,-3.5385,-3.547,-3.5378,-3.5348,-3.534,0.0,0.0,0.0,-3.5209,-3.5209,-3.5209,-3.5209,-3.5209,-3.5209,-3.5209,-3.5209,-3.5209,-3.5209,-3.5209,-3.5209,-3.5209,-3.5209,-3.5152,-3.4827,-3.5133,-3.5583,-3.5583,-3.6385,-3.7302,-3.7551,-3.802,-3.8511,-3.8926,-3.8913,-3.8903,-3.9195,-3.8383,-3.7155,-3.5655,-3.4294,-3.293,-3.1447,-3.0977,-3.0801,-3.0801,-3.0801,-3.0801,-3.0801,-3.0256,-2.9554,-2.8678,-2.7801,-2.6846,-2.5796,-2.5699,-2.5699,-2.5699,-2.5699,-2.5673,-2.5639,-2.5639,-2.5625,-2.5596,-2.5596,-2.559,-2.5601,-2.5573,-2.5573,-2.5601,-2.558,-2.557,-2.5762,-2.7571,-2.8869,-2.6443,-2.5836,-2.5426,0.0,0.0,-2.3505,-2.3505,-2.3598,-2.3764,-2.3947,-2.4164,-2.4346,-2.4472,-2.4604,0.0,-2.4615,0.0,0.0,0.0,0.0,0.0,0.0,0.0,0.0,0.0,0.0,0.0,0.0,-3.5204,-3.5209,-3.5209,-3.5209,-3.5209,-3.5209,-3.5209,-3.5209,-3.519,-3.5209,-3.5209,-3.519,-3.5209,-3.5209,0.0,0.0,0.0,0.0,-3.5209,-3.5209,-3.5209,-3.5209,-3.5209,-3.5209,-3.5209,-3.5209,-3.5209,-3.5209,-3.5209,-3.5209,-3.5209,-3.5209,-3.5354,-3.6214,-3.6481,-3.6481,-3.6481,-3.7684,-3.9164,-4.0034,-3.9727,-3.9441,-4.043,-4.0128,-3.9861,-4.086,-3.9708,-3.8227,-3.7331,-3.5132,-3.3125,-3.2248,-3.1369,-3.0801,-3.0801,-3.0801,-3.0801,-3.0801,-3.0782,-3.0451,-2.9574,-2.8717,-2.7509,-2.5835,-2.5699,-2.5699,-2.5699,-2.5699,-2.5699,-2.5699,-2.5699,-2.5669,-2.5608,-2.5608,-2.5593,-2.5601,-2.5531,-2.5531,-2.5598,-2.5529,-2.5492,-2.3,-2.4649,-2.5747,-2.3873,-2.423,-2.4623,-2.3035,-2.3106,-2.3505,-2.3505,-2.3533,-2.3616,-2.3764,-2.3959,-2.4144,-2.4266,-2.4488,0.0,0.0,0.0,0.0,0.0,0.0,0.0,0.0,0.0,0.0,0.0,0.0,0.0,0.0,-3.5201,-3.5209,-3.5209,-3.5209,-3.5209,-3.5209,-3.5209,-3.5209,-3.5209,-3.5209,-3.5209,-3.5209,-3.5209,0.0,0.0,0.0,0.0,0.0,-3.5209,-3.5209,-3.5267,-3.5851,-3.5717,-3.5343,-3.6489,-3.6184,-3.5286,-3.587,-3.5698,-3.5305,-3.5889,-3.5679,-3.5477,-3.6891,-3.6939,-3.6748,-3.7894,-3.8591,-3.9202,-4.0072,-4.0177,-4.0046,-3.9863,-4.0167,-4.0449,-4.0257,-3.9786,-3.8948,-3.7487,-3.5597,-3.3768,-3.2345,-3.1388,-3.0801,-3.0801,-3.0801,-3.0801,-3.0801,-3.0801,-3.047,-2.9593,-2.9245,-2.8386,-2.6671,-2.603,-2.5699,-2.5699,-2.5699,-2.5673,-2.5639,-2.5639,-2.5627,-2.5596,-2.5559,-2.5522,-2.5531,-2.551,-2.5518,-2.5526,-2.5503,-2.5507,-2.0765,-2.2134,-2.3061,-2.2089,-2.2607,-2.3088,-2.2082,0.0,-2.3053,-2.3053,-2.3291,-2.3544,-2.3678,-2.3806,-2.3958,-2.4173,-2.4338,0.0,0.0,0.0,0.0,0.0,0.0,0.0,0.0,0.0,0.0,0.0,0.0,0.0,0.0,-3.5204,-3.5212,-3.5209,-3.5209,-3.5209,-3.5209,-3.5209,-3.5209,-3.5209,-3.5209,-3.5209,-3.5209,-3.5209,0.0,0.0,0.0,0.0,0.0,-3.5209,-3.5209,-3.5248,-3.5793,-3.587,-3.5812,-3.6871,-3.6776,-3.6184,-3.6424,-3.6137,-3.5736,-3.5946,-3.6061,-3.6394,-3.7769,-3.7846,-3.7722,-3.9107,-3.9489,-3.9623,-4.0148,-4.0363,-4.0334,-3.9986,-4.0366,-4.0733,-4.0367,-4.0039,-3.9474,-3.8383,-3.6512,-3.4761,-3.3709,-3.2284,-3.1291,-3.1291,-3.1016,-3.0796,-3.0767,-3.0767,-3.055,-3.0014,-2.9663,-2.9018,-2.7945,-2.678,-2.5987,-2.5687,-2.5658,-2.5647,-2.5593,-2.5593,-2.559,-2.5534,-2.5475,-2.5456,-2.5422,-2.5472,-2.548,-2.5417,-2.5417,-2.5404,0.0,-2.0054,-2.0852,-2.0927,-2.1019,-2.1108,-2.1108,0.0,0.0,-2.2386,-2.2981,-2.3544,-2.3667,-2.3692,-2.3798,-2.4107,-2.4192,0.0,0.0,0.0,0.0,0.0,0.0,0.0,0.0,0.0,0.0,0.0,0.0,0.0,0.0,-3.5162,-3.5198,-3.5201,-3.5201,-3.5201,-3.5209,-3.5209,-3.5209,-3.5209,-3.5209,-3.5209,-3.5209,-3.5209,0.0,0.0,0.0,0.0,0.0,-3.5209,-3.5209,-3.5209,-3.5267,-3.5793,-3.6519,-3.6634,-3.712,-3.7597,-3.692,-3.6634,-3.6443,-3.5641,-3.6528,-3.8018,-3.8763,-3.9049,-3.926,-4.0072,-4.0301,-4.0301,-4.0301,-4.0301,-4.0344,-4.0557,-4.0649,-4.0746,-4.0875,-4.0266,-3.9688,-3.963,-3.7545,-3.5791,-3.5733,-3.3709,-3.2092,-3.209,-3.1347,-3.0808,-3.0875,-3.0775,-3.0727,-3.0794,-3.0007,-2.9463,-2.9408,-2.779,-2.6481,-2.5739,-2.5638,-2.5601,-2.5601,-2.5598,-2.5538,-2.541,-2.5397,-2.5352,-2.5288,-2.5427,-2.5408,-2.5288,-2.5288,-2.5269,-1.8174,0.0,-1.919,-1.9313,-2.0224,-2.1108,0.0,-2.2196,0.0,0.0,0.0,0.0,0.0,-2.3642,-2.3724,-2.3798,0.0,0.0,0.0,0.0,0.0,0.0,0.0,0.0,0.0,0.0,0.0,0.0,0.0,0.0,0.0,-3.4767,-3.5147,-3.5198,-3.5198,-3.5196,-3.5209,-3.5209,-3.5209,-3.5209,-3.5209,-3.5209,-3.5209,-3.5209,0.0,0.0,0.0,0.0,-3.5209,-3.5209,-3.5209,-3.5267,-3.5927,-3.6328,-3.6653,-3.7933,-3.8113,-3.7769,-3.8247,-3.798,-3.7387,-3.7177,-3.8285,-3.9603,-3.9145,-3.947,-4.0034,-4.0244,-4.0301,-4.0301,-4.0301,-4.0301,-4.0174,-3.9662,-4.0133,-4.0388,-3.9203,-3.8889,-3.8617,-3.7935,-3.624,-3.4703,-3.4099,-3.2949,-3.2085,-3.2035,-3.1276,-3.1186,-3.2449,-3.1497,-3.0953,-3.1623,-3.0874,-3.0071,-2.9444,-2.779,-2.6722,-2.6539,-2.5931,-2.5601,-2.5601,-2.5509,-2.5439,-2.5398,-2.5348,-2.5293,-2.5224,-2.5259,-2.5239,-2.5224,-2.5224,-2.5214,-1.7919,-1.8537,-1.9172,-1.9313,-2.0234,-2.1108,-2.1108,0.0,0.0,0.0,0.0,0.0,0.0,0.0,0.0,0.0,0.0,0.0,0.0,0.0,0.0,0.0,0.0,0.0,0.0,0.0,0.0,0.0,0.0,0.0,0.0,-3.4791,-3.4893,-3.4575,-3.4937,-3.5162,-3.5201,-3.5209,-3.5209,-3.5209,-3.5209,-3.5209,-3.5209,-3.5209,-3.4999,0.0,0.0,0.0,-3.4674,-3.5057,-3.5209,-3.5248,-3.5717,-3.6156,-3.6653,-3.7941,-3.8362,-3.8362,-3.8839,-3.819,-3.7273,-3.8056,-3.8667,-3.9164,-3.9508,-3.9919,-4.0301,-4.0301,-4.0301,-4.0301,-4.0301,-4.0301,-4.0223,-3.9884,-3.9951,-3.9873,-3.9073,-3.8369,-3.7873,-3.7761,-3.6375,-3.5184,-3.5107,-3.4033,-3.3187,-3.3144,-3.2402,-3.2177,-3.3087,-3.2407,-3.2011,-3.2452,-3.1693,-3.0972,-3.0532,-2.8555,-2.7186,-2.6815,-2.6026,-2.5524,-2.546,-2.5391,-2.5322,-2.5255,-2.5233,-2.5198,-2.5145,-2.5171,-2.5171,-2.5145,-2.5145,-2.5147,-1.7958,-1.8958,-1.9952,-1.999,-2.0644,-2.1286,-2.1286,0.0,0.0,0.0,0.0,0.0,0.0,0.0,0.0,0.0,0.0,0.0,0.0,0.0,0.0,0.0,0.0,0.0,0.0,0.0,0.0,0.0,0.0,0.0,0.0,-3.4669,-3.4422,-3.3638,-3.4456,-3.488,-3.4803,-3.4945,-3.5002,-3.501,-3.4877,-3.4885,-3.5018,-3.4885,-3.4445,0.0,0.0,0.0,-3.3853,-3.4674,-3.5018,-3.5037,-3.5305,-3.5908,-3.6787,-3.7597,-3.8457,-3.9202,-3.9202,-3.8257,-3.7302,-3.8744,-3.8706,-3.8362,-3.9843,-4.0301,-4.0301,-4.0301,-4.0301,-4.0301,-4.0301,-4.0205,-4.0137,-4.0244,-3.9718,-3.9209,-3.917,-3.8121,-3.7355,-3.7913,-3.6754,-3.59,-3.658,-3.5367,-3.4334,-3.4462,-3.3739,-3.3296,-3.3547,-3.3349,-3.3156,-3.3112,-3.2314,-3.1753,-3.1637,-2.9505,-2.7871,-2.7187,-2.6095,-2.5404,-2.5284,-2.526,-2.5208,-2.5088,-2.5082,-2.5082,-2.5082,-2.5134,-2.5128,-2.5082,-2.5082,-2.5044,-1.7958,-1.9299,-2.0534,-2.0105,-2.1082,-2.2118,-2.2118,-2.2749,0.0,0.0,0.0,0.0,0.0,0.0,0.0,0.0,0.0,0.0,0.0,0.0,0.0,0.0,0.0,0.0,0.0,0.0,0.0,0.0,0.0,0.0,0.0,-3.3135,-3.3542,-3.2712,-3.3557,-3.3678,-3.3005,-3.3724,-3.411,-3.4091,-3.3409,-3.3463,-3.4159,-3.3425,-3.3024,0.0,0.0,-3.3005,-3.2967,-3.3834,-3.4178,-3.4331,-3.5755,-3.6795,-3.7617,-3.8476,-3.9355,-4.0091,-4.0091,-3.9919,-3.9766,-4.0014,-4.0014,-3.9938,-4.0225,-4.0301,-4.0301,-4.0301,-4.0301,-4.0301,-4.0301,-3.9747,-3.9211,-3.9219,-3.8753,-3.8096,-3.7378,-3.7161,-3.6959,-3.6388,-3.5429,-3.4758,-3.4882,-3.4066,-3.3627,-3.4302,-3.3716,-3.3702,-3.5125,-3.4031,-3.3117,-3.3107,-3.2314,-3.1521,-3.0849,-2.9646,-2.8872,-2.8747,-2.6607,-2.5269,-2.5141,-2.513,-2.5082,-2.503,-2.5023,-2.5023,-2.5023,-2.5024,-2.5024,-2.5023,-2.5023,-2.5017,-1.7855,-1.9328,-2.0632,-1.9947,-2.1391,-2.2946,-2.2946,-2.3238,0.0,0.0,0.0,0.0,0.0,0.0,0.0,0.0,0.0,0.0,0.0,0.0,0.0,0.0,0.0,0.0,0.0,0.0,0.0,0.0,0.0,0.0,0.0,0.0,-3.2624,-3.1826,-3.2612,-3.2431,-3.1157,-3.2042,-3.2722,-3.3184,-3.282,-3.2862,-3.323,-3.2829,-3.2436,-3.2069,0.0,-3.2451,-3.2126,-3.2955,-3.3586,-3.409,-3.4846,-3.5935,-3.7215,-3.8514,-3.9546,-4.0301,-4.0301,-3.9995,-3.968,-4.0148,-3.9976,-3.9699,-4.0148,-3.9948,-3.9547,-3.9594,-3.9938,-4.0186,-3.9681,-3.9279,-3.8868,-3.8365,-3.7739,-3.7179,-3.6826,-3.6515,-3.619,-3.5849,-3.5448,-3.515,-3.5141,-3.4827,-3.4681,-3.5044,-3.4792,-3.4821,-3.5593,-3.5007,-3.4331,-3.3847,-3.2998,-3.2102,-3.1267,-2.9432,-2.8338,-2.8332,-2.6776,-2.5807,-2.5755,-2.5304,-2.5031,-2.5003,-2.5003,-2.5003,-2.5003,-2.5003,-2.5003,-2.5003,-2.5003,-2.5003,-1.7777,-1.9063,-2.0304,-1.997,-2.1706,-2.3452,-2.3255,-2.3362,0.0,0.0,0.0,0.0,0.0,0.0,0.0,0.0,0.0,0.0,0.0,0.0,0.0,0.0,0.0,0.0,0.0,0.0,0.0,0.0,0.0,0.0,0.0,0.0,-3.1734,-3.092,-3.1678,-3.1393,-2.9916,-3.062,-3.142,-3.2287,-3.2105,-3.211,-3.2294,-3.2103,-3.1718,-3.1214,-3.1817,-3.1741,-3.1233,-3.2046,-3.2779,-3.3425,-3.3818,-3.5002,-3.6682,-3.8372,-3.9298,-3.9747,-4.0148,-3.9603,-3.8839,-3.9709,-3.9546,-3.9126,-3.9785,-3.9471,-3.8909,-3.8965,-3.9308,-3.9509,-3.8794,-3.8479,-3.8193,-3.7461,-3.6791,-3.6315,-3.6372,-3.5957,-3.559,-3.5614,-3.5499,-3.5431,-3.5581,-3.5483,-3.5447,-3.5623,-3.5673,-3.5698,-3.5656,-3.5673,-3.5345,-3.4411,-3.3521,-3.2555,-3.1417,-2.9436,-2.8243,-2.8224,-2.7185,-2.6497,-2.6288,-2.5632,-2.5193,-2.5003,-2.5003,-2.5003,-2.5003,-2.5003,-2.5003,-2.5003,-2.5003,-2.5003,-1.7743,-1.8444,-1.9367,-2.046,-2.2125,-2.3291,-2.2553,-2.2963,0.0,-2.3505,0.0,0.0,0.0,0.0,0.0,0.0,0.0,0.0,0.0,0.0,0.0,0.0,0.0,0.0,0.0,0.0,0.0,0.0,0.0,0.0,0.0,0.0,0.0,-3.0029,-3.0825,-3.0844,-2.9916,-2.9972,-3.0479,-3.1382,-3.0651,-3.0666,-3.137,-3.0617,-3.0255,-3.0198,-3.0255,-3.0255,-3.0255,-3.1074,-3.1478,-3.1745,-3.3231,-3.4878,-3.6618,-3.8363,-3.8534,-3.8113,-3.9728,-3.9202,-3.7941,-3.882,-3.9049,-3.9011,-3.9069,-3.8994,-3.8909,-3.8909,-3.8366,-3.7794,-3.7793,-3.7137,-3.6491,-3.6406,-3.5878,-3.5392,-3.54,-3.5451,-3.5486,-3.5438,-3.4921,-3.4673,-3.524,-3.4853,-3.4734,-3.5419,-3.5614,-3.5656,-3.5534,-3.5614,-3.5274,-3.4143,-3.3417,-3.225,-3.0362,-3.0047,-2.9874,-2.9758,-2.8279,-2.7046,-2.625,-2.6148,-2.5761,-2.5003,-2.5003,-2.5003,-2.5003,-2.5003,-2.5003,-2.5003,-2.5003,-2.5003,-1.7587,-1.8749,-1.9912,-1.9881,-2.1694,0.0,0.0,-2.4034,-2.4248,-2.4248,-2.4248,0.0,0.0,0.0,0.0,0.0,0.0,0.0,0.0,0.0,0.0,0.0,0.0,0.0,0.0,0.0,0.0,0.0,0.0,0.0,0.0,0.0,0.0,-2.9158,-2.948,-2.9499,-2.9158,-2.965,-2.9829,-2.9701,-2.9888,-3.0159,-3.0467,-3.019,-3.0053,-3.0095,-3.0095,-3.0095,-3.0114,-3.0438,-3.0864,-3.1565,-3.3758,-3.5015,-3.5851,-3.8061,-3.8356,-3.7812,-3.9013,-3.8642,-3.7698,-3.8069,-3.8155,-3.8127,-3.8127,-3.7728,-3.7272,-3.7281,-3.6625,-3.6065,-3.6672,-3.6568,-3.6159,-3.5571,-3.5274,-3.5132,-3.5163,-3.5224,-3.5265,-3.5333,-3.5133,-3.5198,-3.591,-3.5439,-3.5212,-3.5996,-3.5736,-3.543,-3.5388,-3.5416,-3.5082,-3.41,-3.2795,-3.146,-3.0155,-3.0007,-2.9736,-2.9196,-2.857,-2.8104,-2.7782,-2.674,-2.6065,-2.5743,-2.525,-2.5003,-2.5003,-2.5003,-2.5003,-2.5003,-2.5003,-2.5003,-1.7962,-1.921,-2.0443,-2.0205,0.0,0.0,-2.4438,-2.4694,-2.4694,-2.4694,-2.4694,0.0,0.0,0.0,0.0,0.0,0.0,0.0,0.0,0.0,0.0,0.0,0.0,0.0,0.0,0.0,0.0,0.0,0.0,0.0,0.0,0.0,0.0,0.0,-2.8332,-2.8332,-2.8332,-2.8881,-2.8881,-2.8332,-2.8881,-2.9428,-2.9964,-2.9964,-2.998,-3.0038,-3.0038,-3.0038,-3.0038,-3.0038,-3.0353,-3.1064,-3.3105,-3.3904,-3.4162,-3.6396,-3.6881,-3.6557,-3.7708,-3.7356,-3.6443,-3.6775,-3.666,-3.6443,-3.6728,-3.6378,-3.5941,-3.6216,-3.5619,-3.505,-3.5695,-3.5856,-3.5694,-3.5059,-3.4936,-3.4973,-3.5027,-3.507,-3.5113,-3.5163,-3.5235,-3.5458,-3.5905,-3.5618,-3.5465,-3.5982,-3.5622,-3.5274,-3.5235,-3.5266,-3.4967,-3.406,-3.2615,-3.1342,-3.0454,-3.0086,-2.9669,-2.912,-2.9082,-2.8855,-2.8351,-2.7221,-2.6349,-2.5837,-2.5288,-2.5003,-2.5003,-2.525,-2.525,-2.5003,-2.525,-2.5231,-1.8998,-1.9727,-2.0749,0.0,0.0,0.0,-2.4272,-2.4694,-2.4694,-2.4712,0.0,-2.4736,0.0,0.0,0.0,0.0,0.0,0.0,0.0,0.0,0.0,0.0,0.0,0.0,0.0,0.0,0.0,0.0,0.0,0.0,0.0,0.0,0.0,0.0,-2.7494,-2.7494,-2.7494,-2.7494,-2.7494,-2.7494,-2.7494,-2.8339,-2.9897,-2.9897,-2.9897,-2.9897,-2.9897,-2.9897,-2.9897,-2.9897,-2.9897,-3.0,-3.0931,-3.1301,-3.1496,-3.317,-3.3788,-3.4027,-3.5776,-3.5235,-3.3932,-3.4788,-3.4492,-3.3949,-3.4807,-3.5019,-3.5153,-3.6027,-3.559,-3.4889,-3.4889,-3.4889,-3.4889,-3.4908,-3.4908,-3.4908,-3.4908,-3.5,-3.5062,-3.4936,-3.5113,-3.5211,-3.4955,-3.5122,-3.5243,-3.5141,-3.5231,-3.5243,-3.5113,-3.5211,-3.4937,-3.4015,-3.3006,-3.2075,-3.128,-3.0408,-2.9897,-2.9897,-2.9897,-2.9185,-2.7589,-2.7494,-2.6716,-2.5041,-2.5003,-2.5003,-2.5003,-2.5799,-2.578,-2.5022,-2.5818,-2.5761,-1.8522,-1.9561,0.0,-2.1513,0.0,0.0,0.0,-2.4302,0.0,0.0,0.0,0.0,0.0,0.0,0.0,0.0,0.0,0.0,0.0,0.0,0.0,0.0,0.0,0.0,0.0,0.0,0.0,0.0,0.0,0.0,0.0,0.0,0.0,0.0,-2.6596,-2.6596,-2.6596,-2.7191,-2.7191,-2.6596,-2.7209,-2.8055,-2.9063,-2.9063,-2.9366,-2.9897,-2.9897,-2.9897,-2.9897,-2.9897,-2.9897,-2.9991,-3.0877,-3.1227,-3.1419,-3.3114,-3.3342,-3.2981,-3.4165,-3.3795,-3.2867,-3.3168,-3.3064,-3.2867,-3.3114,-3.3191,-3.322,-3.3486,-3.3363,-3.3278,-3.3903,-3.4055,-3.4207,-3.4775,-3.4908,-3.4908,-3.4908,-3.4926,-3.4945,-3.4917,-3.4963,-3.5181,-3.5723,-3.5362,-3.5209,-3.5799,-3.539,-3.5,-3.4963,-3.4497,-3.4277,-3.4565,-3.2774,-3.1678,-3.2019,-3.073,-2.9897,-2.9897,-2.9897,-2.9423,-2.8389,-2.7809,-2.6982,-2.5875,-2.5288,-2.5003,-2.5003,-2.5231,-2.5515,-2.5837,-2.5515,-2.5534,-1.9282,-2.0534,0.0,-2.2247,-2.2923,-2.3505,-2.3505,0.0,0.0,0.0,0.0,0.0,0.0,0.0,0.0,0.0,0.0,0.0,0.0,0.0,0.0,0.0,0.0,0.0,0.0,0.0,0.0,0.0,0.0,0.0,0.0,0.0,0.0,0.0,-2.5724,-2.5724,-2.5724,-2.6235,-2.6235,-2.5724,-2.6254,-2.7107,-2.8237,-2.8551,-2.8968,-2.9423,-2.9423,-2.9593,-2.9897,-2.9897,-2.9897,-2.9953,-3.0484,-3.0673,-3.0806,-3.181,-3.2084,-3.2008,-3.2574,-3.2395,-3.1933,-3.1967,-3.1722,-3.1469,-3.181,-3.1924,-3.1981,-3.2303,-3.2653,-3.3051,-3.3562,-3.3941,-3.4301,-3.4775,-3.4908,-3.4908,-3.4908,-3.4908,-3.4908,-3.4908,-3.4908,-3.5059,-3.559,-3.5249,-3.5078,-3.559,-3.523,-3.4908,-3.4908,-3.4472,-3.4245,-3.4415,-3.2785,-3.1734,-3.1905,-3.0673,-2.9897,-2.9897,-2.9897,-2.9537,-2.8741,-2.7941,-2.7096,-2.6216,-2.5724,-2.5648,-2.5989,-2.5989,-2.6065,-2.6197,-2.5705,-2.5572,-2.077,0.0,0.0,-2.3453,-2.3482,0.0,0.0,0.0,0.0,0.0,0.0,0.0,0.0,0.0,0.0,0.0,0.0,0.0,0.0,0.0,0.0,0.0,0.0,0.0,0.0,0.0,0.0,0.0,0.0,0.0,0.0,0.0,0.0,-2.5003,-2.5003,-2.5003,-2.5003,-2.5003,-2.5003,0.0,-2.5003,-2.5875,-2.7513,-2.8256,-2.8627,-2.8703,-2.8703,-2.912,-2.9802,-2.9802,-2.984,-2.9897,-2.9897,-2.9897,-2.9897,-2.9897,-3.0408,-3.1071,-3.1071,-3.1071,-3.1071,-3.1071,-3.0541,-3.0048,-3.0844,-3.1071,-3.1223,-3.1962,-3.2747,-3.3373,-3.3449,-3.4017,-3.4586,-3.4643,-3.4794,-3.4908,-3.4908,-3.4908,-3.4908,-3.4908,-3.4908,-3.4908,-3.4908,-3.4908,-3.4908,-3.4908,-3.4908,-3.4908,-3.4908,-3.4775,-3.4415,-3.3771,-3.2785,-3.1905,-3.1261,-3.0408,-2.9897,-2.9897,-2.9897,-2.9537,-2.8741,-2.7991,-2.7202,-2.633,-2.6311,-2.6671,-2.738,-2.738,-2.6975,-2.6197,-2.6122,-2.5743,-2.0871,-2.167,0.0,0.0,-2.3336,0.0,0.0,0.0,0.0,0.0,0.0,0.0,0.0,0.0,0.0,0.0,0.0,0.0,0.0,0.0,0.0,0.0,0.0,0.0,0.0,0.0,0.0,0.0,0.0,0.0,0.0,0.0,0.0,-2.5003,-2.5003,-2.5003,-2.5003,-2.5003,-2.5003,0.0,-2.5003,-2.5875,-2.7513,-2.7676,-2.8104,-2.8703,-2.8703,-2.8798,-2.8968,-2.8968,-2.9328,-2.9897,-2.9897,-2.9897,-2.9897,-2.9897,-3.0029,-3.0181,-3.0181,-3.0181,-3.0181,-3.0181,-3.0048,-2.9934,-3.0124,-3.0181,-3.0219,-3.0389,-3.0579,-3.0863,-3.1564,-3.1876,-3.216,-3.2785,-3.3941,-3.4908,-3.4908,-3.4908,-3.4908,-3.4908,-3.4908,-3.4908,-3.4908,-3.4908,-3.4908,-3.4908,-3.4908,-3.4908,-3.4908,-3.3752,-3.3126,-3.3657,-3.1734,-3.0635,-3.1147,-3.0408,-2.9897,-2.9897,-2.9897,-2.9537,-2.8741,-2.8532,-2.8066,-2.7247,-2.7228,-2.6982,-2.6482,-2.6482,-2.6387,-2.6178,-2.5553,-2.5496,-2.1368,0.0,0.0,-2.3212,0.0,0.0,0.0,0.0,0.0,0.0,0.0,0.0,0.0,0.0,0.0,0.0,0.0,0.0,0.0,0.0,0.0,0.0,0.0,0.0,0.0,0.0,0.0,0.0,0.0,0.0,0.0,-2.5003,-2.5003,-2.5003,-2.5003,-2.5003,-2.5003,-2.5003,-2.5193,-2.5572,-2.5572,-2.6254,-2.7494,-2.7494,-2.7733,-2.8104,-2.7687,-2.7744,-2.8161,-2.8532,-2.8722,-2.8825,-2.9593,-2.9669,-2.9366,-2.9764,-2.9897,-2.9897,-2.9897,-2.9897,-2.9897,-2.9897,-2.9897,-2.9897,-2.9897,-2.9897,-2.9897,-2.9897,-3.02,-3.0635,-3.1071,-3.18,-3.2501,-3.2918,-3.3695,-3.432,-3.432,-3.4624,-3.4908,-3.4908,-3.4908,-3.4908,-3.4908,-3.4908,-3.4908,-3.4908,-3.4908,-3.4756,-3.4377,-3.3562,-3.2899,-3.2539,-3.1299,-3.0541,-3.0579,-3.0162,-2.9897,-2.9897,-2.9897,-2.9707,-2.929,-2.9271,-2.8711,-2.7513,-2.7494,-2.7285,-2.6823,-2.6406,-2.6197,-2.6178,-2.5363,-2.5212,-2.1965,0.0,-2.3505,-2.3505,-2.3505,0.0,0.0,0.0,0.0,0.0,0.0,0.0,0.0,0.0,0.0,0.0,0.0,0.0,0.0,0.0,0.0,0.0,0.0,0.0,0.0,0.0,0.0,0.0,0.0,0.0,-2.5003,-2.5003,-2.5003,-2.5003,-2.5003,-2.5003,-2.5003,-2.5136,-2.5534,-2.6197,-2.6349,-2.6709,-2.7285,-2.7285,-2.7285,-2.7247,-2.6501,-2.6614,-2.7342,-2.7991,-2.7953,-2.7627,-2.8976,-2.9082,-2.8589,-2.9404,-2.9593,-2.9537,-2.9802,-2.9821,-2.9726,-2.9859,-2.9897,-2.9897,-2.9897,-2.9897,-2.9897,-2.9897,-3.0427,-3.0977,-3.0977,-3.2122,-3.3278,-3.3278,-3.3486,-3.3733,-3.3884,-3.4434,-3.4908,-3.4908,-3.4908,-3.4908,-3.4908,-3.4908,-3.4908,-3.4908,-3.4908,-3.4605,-3.3809,-3.3695,-3.3042,-3.1357,-3.1168,-3.0827,-2.9967,-2.9872,-2.9899,-2.9897,-2.9897,-2.9897,-2.9897,-2.9897,-2.9147,-2.7532,-2.7638,-2.7562,-2.7266,-2.6539,-2.6122,-2.597,-2.5307,-2.5003,0.0,0.0,-2.3505,0.0,-2.3505,0.0,0.0,0.0,0.0,0.0,0.0,0.0,0.0,0.0,0.0,0.0,0.0,0.0,0.0,0.0,0.0,0.0,0.0,0.0,0.0,0.0,0.0,0.0,0.0,0.0,-2.5003,-2.5003,-2.5003,-2.5003,-2.5003,-2.5003,-2.5003,-2.5686,-2.6084,-2.6216,-2.6982,-2.6994,-2.6368,-2.6368,-2.6368,-2.6368,-2.6254,-2.6273,-2.6387,-2.6482,-2.6918,-2.7513,-2.7733,-2.7752,-2.7752,-2.8551,-2.8427,-2.8017,-2.9423,-2.9442,-2.8987,-2.9669,-2.9897,-2.9897,-2.9897,-2.9897,-2.9897,-2.9897,-2.9991,-3.0067,-3.0067,-3.0806,-3.1526,-3.1526,-3.2634,-3.3884,-3.4586,-3.4813,-3.4908,-3.4908,-3.4908,-3.4908,-3.4908,-3.4908,-3.4908,-3.4908,-3.4908,-3.4605,-3.3809,-3.3695,-3.3005,-3.1212,-3.1033,-3.0693,-2.9882,-2.9806,-2.9832,-2.9907,-2.9897,-2.9897,-2.9897,-2.9897,-2.9147,-2.7532,-2.818,-2.782,-2.6368,-2.6254,-2.5837,-2.5155,-2.5041,-2.5003,-2.2972,-2.3324,-2.3505,0.0,0.0,0.0,0.0,0.0,0.0,0.0,0.0,0.0,0.0,0.0,0.0,0.0,0.0,0.0,0.0,0.0,0.0,0.0,0.0,0.0,0.0,0.0,0.0,0.0,0.0,-2.4875,-2.4996,-2.5003,-2.5003,-2.5003,-2.5003,-2.5003,-2.5003,-2.5344,-2.5743,-2.6197,-2.6596,-2.6577,-2.6178,-2.5724,-2.5534,-2.5534,-2.5534,-2.5534,-2.5553,-2.6008,-2.616,-2.6178,-2.7134,-2.7209,-2.6861,-2.7714,-2.7809,-2.7608,-2.8321,-2.8616,-2.876,-2.912,-2.9537,-2.9897,-2.9897,-2.9897,-2.9897,-2.9897,-2.9897,-2.9897,-2.9897,-3.0541,-3.1204,-3.1204,-3.2122,-3.3202,-3.4055,-3.4586,-3.4908,-3.4908,-3.4908,-3.4908,-3.4908,-3.4908,-3.4908,-3.4908,-3.4908,-3.4605,-3.3809,-3.3278,-3.2465,-3.1137,-3.06,-3.0167,-2.9775,-2.9773,-2.9798,-2.9841,-2.9891,-2.9897,-2.9897,-2.9897,-2.9366,-2.8199,-2.8085,-2.7202,-2.5534,-2.5534,-2.5344,-2.5003,-2.5003,-2.5003,0.0,0.0,-2.3505,-2.3505,0.0,0.0,0.0,0.0,0.0,0.0,0.0,0.0,0.0,0.0,0.0,0.0,0.0,0.0,0.0,0.0,0.0,0.0,0.0,0.0,0.0,0.0,0.0,0.0,0.0,-2.4715,-2.4915,-2.4929,-2.4943,-2.5003,-2.5003,-2.5003,-2.5003,-2.5193,-2.5724,-2.652,-2.6311,-2.6197,-2.6178,-2.5363,-2.5003,-2.5003,-2.5003,-2.5117,-2.5344,-2.5951,-2.5856,-2.5458,-2.6925,-2.6982,-2.633,-2.7411,-2.7676,-2.757,-2.796,-2.837,-2.8741,-2.8949,-2.9404,-2.9897,-2.9897,-2.9897,-2.9897,-2.9897,-2.9897,-2.9897,-2.9897,-3.0541,-3.1204,-3.1204,-3.181,-3.2653,-3.3505,-3.432,-3.4908,-3.4908,-3.4908,-3.4879,-3.4879,-3.4889,-3.4898,-3.4879,-3.4889,-3.4605,-3.3809,-3.3108,-3.224,-3.111,-3.0414,-2.9935,-2.9673,-2.9692,-2.9746,-2.9773,-2.9832,-2.9864,-2.9864,-2.988,-2.9518,-2.8722,-2.8104,-2.7088,-2.5629,-2.5629,-2.5629,-2.5629,-2.5629,-2.5629,0.0,-2.2928,0.0,0.0,0.0,0.0,0.0,0.0,0.0,0.0,0.0,0.0,0.0,0.0,0.0,0.0,0.0,0.0,0.0,0.0,0.0,0.0,0.0,0.0,0.0,0.0,0.0,0.0,0.0,-2.4501,-2.4707,-2.4715,-2.4809,-2.4996,-2.5003,-2.5003,-2.5003,-2.5761,-2.6577,-2.7418,-2.6596,-2.6197,-2.6178,-2.5363,-2.5003,-2.5003,-2.5003,-2.542,-2.6141,-2.6178,-2.6178,-2.6235,-2.7134,-2.6982,-2.6406,-2.8021,-2.8142,-2.7714,-2.926,-2.9309,-2.8836,-2.9593,-2.9878,-2.9897,-2.9897,-2.9897,-2.9897,-2.9897,-2.9897,-2.9897,-2.9897,-3.0541,-3.1204,-3.1204,-3.181,-3.2653,-3.3505,-3.432,-3.4908,-3.4908,-3.4908,-3.4879,-3.4819,-3.4869,-3.4879,-3.4819,-3.4869,-3.4605,-3.3809,-3.3545,-3.2798,-3.1092,-3.0807,-3.041,-2.9587,-2.9512,-2.9569,-2.9711,-2.9764,-2.9808,-2.9808,-2.9874,-2.9518,-2.8722,-2.8665,-2.8218,-2.738,-2.738,-2.738,-2.738,-2.738,-2.738,0.0,0.0,0.0,0.0,0.0,0.0,0.0,0.0,0.0,0.0,0.0,0.0,0.0,0.0,0.0,0.0,0.0,0.0,0.0,0.0,0.0,0.0,0.0,0.0,0.0,0.0,0.0,0.0,0.0,0.0,-2.4501,-2.4626,-2.473,-2.4809,-2.4936,-2.5003,-2.5003,-2.5288,-2.5591,-2.5894,-2.5572,-2.5705,-2.6197,-2.5894,-2.5761,-2.5799,-2.6349,-2.6444,-2.6235,-2.6804,-2.7032,-2.7077,-2.738,-2.7304,-2.7107,-2.7714,-2.7752,-2.7589,-2.8169,-2.8502,-2.8665,-2.8427,-2.9071,-2.9802,-2.929,-2.9499,-2.9897,-2.9897,-2.9897,-2.9897,-2.9897,-3.0124,-3.037,-3.037,-3.1412,-3.2492,-3.2804,-3.3941,-3.4908,-3.4908,-3.4879,-3.4839,-3.4798,-3.4749,-3.4699,-3.4676,-3.4678,-3.4597,-3.4314,-3.3304,-3.236,-3.1677,-3.0616,-2.9818,-2.9468,-2.9481,-2.9512,-2.9569,-2.9664,-2.9765,-2.9799,-2.9815,-2.9725,-2.948,-2.948,-2.8825,-2.7494,-2.7494,-2.7494,-2.7494,-2.7494,-2.7494,-2.3247,0.0,0.0,0.0,0.0,0.0,0.0,0.0,0.0,0.0,0.0,0.0,0.0,0.0,0.0,0.0,0.0,0.0,0.0,0.0,0.0,0.0,0.0,0.0,0.0,0.0,0.0,0.0,0.0,0.0,-2.4284,-2.4434,-2.4561,-2.47,-2.4901,-2.5003,-2.5003,-2.5003,-2.5003,-2.5003,-2.5003,-2.542,-2.6197,-2.6197,-2.6197,-2.6254,-2.7115,-2.7172,-2.669,-2.7543,-2.7904,-2.7941,-2.8207,-2.815,-2.7941,-2.8207,-2.8321,-2.8321,-2.8321,-2.8654,-2.9006,-2.8483,-2.9033,-2.9802,-2.9271,-2.948,-2.9897,-2.9897,-2.9897,-2.9897,-2.9897,-2.9897,-2.9897,-2.9897,-3.0932,-3.2012,-3.2296,-3.3677,-3.4879,-3.4879,-3.479,-3.4727,-3.4666,-3.4634,-3.4572,-3.4539,-3.4561,-3.4612,-3.4612,-3.335,-3.2445,-3.242,-3.0872,-2.9851,-2.9816,-2.9599,-2.9471,-2.9471,-2.956,-2.9645,-2.971,-2.9746,-2.9799,-2.9866,-2.9874,-2.9342,-2.8321,-2.8321,-2.8321,-2.8321,-2.8321,-2.8321,0.0,0.0,0.0,0.0,0.0,0.0,0.0,0.0,0.0,0.0,0.0,0.0,0.0,0.0,0.0,0.0,0.0,0.0,0.0,0.0,0.0,0.0,0.0,0.0,0.0,0.0,0.0,0.0,0.0,-2.3888,-2.4087,-2.4107,-2.4275,-2.4692,-2.4901,-2.4996,-2.5003,-2.5003,-2.5003,-2.5003,-2.5003,-2.542,-2.6235,-2.6216,-2.6216,-2.6292,-2.7134,-2.7494,-2.757,-2.837,-2.8703,-2.8779,-2.9593,-2.9404,-2.8798,-2.9593,-2.9878,-2.9878,-2.9897,-2.9897,-2.9897,-2.9878,-2.9878,-2.9897,-2.9878,-2.9878,-2.9897,-2.9897,-2.9897,-2.9897,-2.9897,-2.9897,-2.9897,-2.9897,-3.0473,-3.1242,-3.2119,-3.359,-3.4751,-3.4788,-3.4676,-3.455,-3.4409,-3.4506,-3.4539,-3.4397,-3.4506,-3.4602,-3.4602,-3.3772,-3.3201,-3.3201,-3.1648,-3.0604,-3.0604,-2.9861,-2.9396,-2.9396,-2.9461,-2.9492,-2.9502,-2.9608,-2.9729,-2.9799,-2.9808,-2.9832,-2.9897,-2.9897,-2.9897,-2.9897,-2.9888,-2.9888,-2.2699,0.0,0.0,0.0,0.0,0.0,-2.3459,-2.3573,0.0,0.0,0.0,0.0,0.0,0.0,0.0,0.0,0.0,0.0,0.0,0.0,0.0,0.0,0.0,0.0,0.0,0.0,0.0,0.0,-2.3806,-2.3827,-2.3888,-2.4029,-2.4275,-2.4692,-2.4746,-2.4853,-2.5003,-2.5003,-2.5003,-2.5003,-2.5003,-2.5743,-2.7115,-2.6482,-2.6539,-2.7153,-2.7399,-2.7494,-2.757,-2.837,-2.8703,-2.8779,-2.9593,-2.9404,-2.8798,-2.9593,-2.9537,-2.912,-2.9707,-2.9897,-2.9802,-2.9215,-2.9423,-2.9802,-2.9215,-2.9442,-2.9897,-2.9897,-2.9897,-2.9897,-2.9897,-2.9897,-2.9897,-2.9897,-3.0543,-3.136,-3.2138,-3.3059,-3.3893,-3.4524,-3.4539,-3.445,-3.4416,-3.434,-3.4293,-3.4257,-3.4281,-3.4305,-3.4305,-3.3573,-3.3048,-3.3048,-3.1574,-3.0604,-3.0604,-2.9861,-2.9396,-2.9396,-2.9427,-2.946,-2.9492,-2.954,-2.9636,-2.9799,-2.9808,-2.9832,-2.9897,-2.9897,-2.9897,-2.9888,-2.9742,-2.9681,0.0,0.0,0.0,0.0,0.0,0.0,-2.3277,-2.3383,-2.3464,0.0,0.0,0.0,0.0,0.0,0.0,0.0,0.0,0.0,0.0,0.0,0.0,0.0,0.0,0.0,0.0,0.0,0.0,-2.3842,-2.3806,-2.3806,-2.3806,-2.3999,-2.4257,-2.4559,-2.4668,-2.4802,-2.5003,-2.5003,-2.5003,-2.5003,-2.5003,-2.5686,-2.6937,-2.6425,-2.6482,-2.6963,-2.6963,-2.6963,-2.7013,-2.7858,-2.84,-2.876,-2.9215,-2.8911,-2.8256,-2.873,-2.8817,-2.8779,-2.9233,-2.9631,-2.9821,-2.9347,-2.9518,-2.9821,-2.9347,-2.9537,-2.9897,-2.9897,-2.9897,-2.9897,-2.9897,-2.9897,-2.9897,-2.9897,-3.0269,-3.0823,-3.1572,-3.2255,-3.312,-3.4292,-3.4416,-3.4316,-3.4316,-3.4257,-3.4197,-3.4197,-3.4197,-3.4197,-3.4197,-3.3788,-3.3373,-3.3039,-3.1868,-3.0957,-3.0623,-2.9861,-2.9396,-2.9396,-2.9396,-2.9427,-2.9451,-2.9451,-2.9531,-2.9664,-2.9728,-2.9745,-2.9724,-2.9813,-2.9823,-2.9726,-2.9408,-2.9338,0.0,0.0,0.0,0.0,0.0,0.0,-2.299,-2.3109,-2.3253,0.0,0.0,0.0,0.0,0.0,0.0,0.0,0.0,0.0,0.0,0.0,0.0,0.0,0.0,0.0,0.0,-2.4447,-2.4574,-2.385,-2.3806,-2.3806,-2.3806,-2.3979,-2.4155,-2.4355,-2.4534,-2.473,-2.4936,-2.4936,-2.4943,-2.4976,-2.4976,-2.5406,-2.6197,-2.6103,-2.6122,-2.6197,-2.6103,-2.6122,-2.6254,-2.7039,-2.7828,-2.8589,-2.8665,-2.8142,-2.738,-2.7562,-2.8029,-2.8589,-2.8779,-2.9309,-2.9916,-3.001,-2.9916,-2.9802,-2.9991,-2.9916,-2.9783,-2.9878,-2.9897,-2.9897,-2.9897,-2.9897,-2.9897,-2.9897,-2.9857,-3.0017,-3.0744,-3.1499,-3.2454,-3.3945,-3.4225,-3.4197,-3.4197,-3.4197,-3.4197,-3.4197,-3.4197,-3.4197,-3.4197,-3.4123,-3.3788,-3.3083,-3.2202,-3.1385,-3.066,-2.9861,-2.9396,-2.9396,-2.9396,-2.9396,-2.9396,-2.9396,-2.9429,-2.9492,-2.9617,-2.9589,-2.9428,-2.9654,-2.9654,-2.9453,-2.9038,-2.903,0.0,0.0,0.0,0.0,0.0,0.0,-2.2699,-2.2965,-2.3126,0.0,0.0,0.0,0.0,0.0,0.0,0.0,0.0,0.0,0.0,0.0,0.0,0.0,0.0,0.0,0.0,-2.394,-2.3958,-2.3813,-2.3806,-2.3806,-2.3806,-2.3837,-2.3941,-2.4145,-2.4211,-2.4301,-2.4518,-2.4526,-2.461,-2.4753,-2.4753,-2.5261,-2.6178,-2.5534,-2.5591,-2.616,-2.5515,-2.5591,-2.6216,-2.6387,-2.6956,-2.7809,-2.8457,-2.7782,-2.6614,-2.7972,-2.8161,-2.7922,-2.9215,-2.9764,-3.0029,-3.0711,-3.0029,-2.9196,-3.0541,-2.9991,-2.9063,-2.9726,-2.9897,-2.9897,-2.9897,-2.9897,-2.9897,-2.9897,-2.988,-3.0067,-3.0744,-3.153,-3.232,-3.3126,-3.3775,-3.4197,-3.4197,-3.4197,-3.4197,-3.4197,-3.4197,-3.4197,-3.4197,-3.3621,-3.3157,-3.3008,-3.1701,-3.0772,-3.0604,-2.9861,-2.9396,-2.9396,-2.9396,-2.9396,-2.9396,-2.9396,-2.9429,-2.9492,-2.9472,-2.9304,-2.9023,-2.9324,-2.9365,-2.918,-2.9075,-2.9336,0.0,0.0,0.0,-2.1969,0.0,0.0,0.0,-2.255,-2.2699,0.0,0.0,0.0,0.0,0.0,0.0,0.0,0.0,0.0,0.0,0.0,0.0,0.0,0.0,0.0,0.0,-2.3806,-2.3806,-2.3806,-2.3806,-2.3806,-2.3806,-2.3806,-2.3899,-2.4079,-2.4107,-2.4192,-2.4398,-2.4398,-2.4441,-2.4543,-2.465,-2.496,-2.5438,-2.5139,-2.5212,-2.5572,-2.5174,-2.5458,-2.6197,-2.6197,-2.6463,-2.688,-2.729,-2.6683,-2.5705,-2.6531,-2.6854,-2.6975,-2.7763,-2.8332,-2.8787,-2.9204,-2.9071,-2.8855,-2.9707,-2.965,-2.9385,-2.9783,-2.9897,-2.9897,-2.9897,-2.9883,-2.9849,-2.9849,-2.9815,-2.9877,-3.0142,-3.117,-3.211,-3.2355,-3.338,-3.4197,-3.4197,-3.3863,-3.3733,-3.4141,-3.3522,-3.315,-3.3559,-3.3262,-3.2853,-3.2444,-3.1682,-3.1032,-3.0623,-2.9861,-2.9396,-2.9396,-2.9396,-2.9396,-2.9396,-2.9787,-3.0169,-3.0541,-2.9998,-2.9577,-2.9357,-2.908,-2.8927,-2.8857,-2.9174,-2.9501,0.0,0.0,0.0,0.0,0.0,-2.1855,0.0,0.0,0.0,0.0,0.0,0.0,0.0,0.0,0.0,0.0,0.0,0.0,0.0,0.0,0.0,0.0,0.0,0.0,0.0,-2.3806,-2.3806,-2.3806,-2.3806,-2.3806,-2.3806,-2.3806,-2.3878,-2.4049,-2.403,-2.4117,-2.4284,-2.4293,-2.4301,-2.4346,-2.4561,-2.4657,-2.4707,-2.4915,-2.5003,-2.5003,-2.5003,-2.5363,-2.597,-2.597,-2.597,-2.5989,-2.6141,-2.5705,-2.5022,-2.5174,-2.5648,-2.6216,-2.6387,-2.6899,-2.7551,-2.7885,-2.8521,-2.912,-2.8798,-2.9271,-2.9897,-2.9897,-2.988,-2.9891,-2.9891,-2.9823,-2.9782,-2.9782,-2.9738,-2.9664,-2.954,-3.0818,-3.1963,-3.1835,-3.3113,-3.4197,-3.4197,-3.3658,-3.341,-3.3881,-3.2871,-3.2277,-3.2927,-3.2871,-3.2593,-3.2072,-3.1756,-3.131,-3.066,-2.9861,-2.9396,-2.9396,-2.9396,-2.9396,-2.9396,-3.0126,-3.0846,-3.1518,-3.0619,-3.0075,-2.9926,-2.9237,-2.885,-2.8763,-2.9319,-2.9755,0.0,0.0,0.0,0.0,-2.1812,0.0,0.0,0.0,0.0,0.0,0.0,0.0,0.0,0.0,0.0,0.0,0.0,0.0,0.0,0.0,0.0,0.0,0.0,0.0,0.0,0.0,-2.3806,-2.3806,-2.3806,-2.3806,-2.3806,-2.3806,-2.3816,-2.3837,-2.3837,-2.3847,-2.3878,-2.3878,-2.3951,-2.4145,-2.4337,-2.4526,-2.4707,-2.4915,-2.5003,-2.5003,-2.5003,-2.5041,-2.5136,-2.5136,-2.5136,-2.5212,-2.5913,-2.5705,-2.5098,-2.5799,-2.6122,-2.6311,-2.7077,-2.7418,-2.7733,-2.9223,-3.0265,-3.0635,-2.9158,-2.9271,-2.9897,-2.9897,-2.9857,-2.9816,-2.9816,-2.9755,-2.9701,-2.9701,-2.9711,-2.9664,-2.954,-3.0818,-3.1963,-3.1835,-3.3113,-3.4197,-3.4197,-3.4123,-3.3844,-3.3231,-3.2983,-3.2908,-3.299,-3.2388,-3.2165,-3.2797,-3.1589,-3.0697,-3.0604,-2.9861,-2.9396,-2.9396,-2.9396,-2.9396,-2.9396,-2.9946,-3.0564,-3.1232,-3.0898,-3.0624,-3.0427,-3.0323,-2.9948,-2.9319,-2.9611,-3.04,0.0,0.0,0.0,0.0,0.0,0.0,-2.1812,0.0,-2.1969,0.0,0.0,0.0,0.0,0.0,0.0,0.0,0.0,0.0,0.0,0.0,0.0,0.0,0.0,0.0,0.0,0.0,0.0,0.0,0.0,-2.3806,-2.3806,-2.3792,-2.3792,-2.3795,-2.3792,-2.3792,-2.3795,-2.3806,-2.3847,-2.3939,-2.4126,-2.4328,-2.4526,-2.4738,-2.4901,-2.5003,-2.5003,-2.5003,-2.5003,-2.5003,-2.5003,-2.5022,-2.5363,-2.5307,-2.5041,-2.5382,-2.5496,-2.5553,-2.5913,-2.6046,-2.633,-2.7998,-2.909,-2.9707,-2.948,-2.9599,-2.9841,-2.9841,-2.9799,-2.9747,-2.9747,-2.9655,-2.9579,-2.9579,-2.9559,-2.95,-2.946,-3.0724,-3.1868,-3.1805,-3.3113,-3.4197,-3.4197,-3.3807,-3.3559,-3.3677,-3.2908,-3.2481,-3.2946,-3.2704,-3.263,-3.2953,-3.1979,-3.1292,-3.1292,-3.0567,-2.9898,-2.9434,-2.9842,-3.0511,-3.144,-3.1597,-3.194,-3.2584,-3.1904,-3.1441,-3.1207,-3.0725,-3.0582,-3.0725,-3.0858,-3.121,-2.1812,0.0,0.0,0.0,0.0,0.0,0.0,0.0,0.0,0.0,0.0,0.0,0.0,0.0,0.0,0.0,0.0,0.0,0.0,0.0,0.0,0.0,0.0,0.0,0.0,0.0,0.0,0.0,0.0,0.0,-2.3803,-2.3807,-2.3797,-2.3803,-2.3807,-2.3807,-2.3795,-2.3806,-2.3795,-2.3803,-2.3989,-2.4155,-2.4301,-2.4551,-2.4761,-2.4922,-2.4983,-2.5003,-2.5003,-2.5003,-2.5003,-2.5003,-2.5003,-2.5003,-2.5003,-2.5003,-2.5003,-2.5003,-2.5003,-2.5307,-2.5894,-2.7096,-2.818,-2.9139,-2.9726,-2.9857,-2.9808,-2.9808,-2.9719,-2.9645,-2.9645,-2.955,-2.9471,-2.9471,-2.944,-2.9396,-2.9396,-3.066,-3.1794,-3.1794,-3.3113,-3.4197,-3.4197,-3.3714,-3.3436,-3.3807,-3.289,-3.2351,-3.2927,-3.3001,-3.3083,-3.3317,-3.2611,-3.2035,-3.1831,-3.105,-3.0344,-2.9768,-3.0474,-3.1552,-3.2946,-3.2748,-3.2933,-3.3587,-3.2752,-3.2227,-3.2028,-3.1439,-3.1457,-3.2025,-3.1796,-3.1842,0.0,0.0,0.0,-2.1812,0.0,0.0,0.0,0.0,-2.1812,0.0,0.0,0.0,0.0,0.0,0.0,0.0,0.0,0.0,0.0,0.0,0.0,0.0,0.0,0.0,0.0,0.0,0.0,0.0,0.0,0.0,-2.3804,-2.3804,-2.3804,-2.3804,-2.3804,-2.3807,-2.3795,-2.3806,-2.3792,-2.3804,-2.3939,-2.402,-2.4022,-2.4424,-2.4631,-2.4723,-2.4922,-2.5003,-2.5003,-2.5003,-2.5003,-2.5003,-2.5003,-2.5003,-2.5003,-2.5003,-2.5003,-2.5003,-2.5003,-2.6065,-2.7437,-2.7475,-2.8559,-2.9878,-2.9897,-2.9857,-2.9808,-2.9808,-2.9654,-2.9502,-2.9502,-2.947,-2.9407,-2.9407,-2.9407,-2.9396,-2.9396,-3.066,-3.1794,-3.1794,-3.3113,-3.4197,-3.4197,-3.4179,-3.39,-3.315,-3.299,-3.2983,-3.3001,-3.3001,-3.3287,-3.4067,-3.3436,-3.2648,-3.1868,-3.105,-3.0586,-3.0567,-3.1329,-3.2128,-3.2983,-3.2627,-3.2771,-3.3587,-3.3129,-3.288,-3.2864,-3.2829,-3.2829,-3.2846,-3.2061,-3.2132,0.0,0.0,-2.1812,-2.1812,0.0,0.0,0.0,0.0,0.0,0.0,0.0,0.0,0.0,0.0,0.0,0.0,0.0,0.0,0.0,0.0,0.0,0.0,0.0,0.0,0.0,0.0,0.0,0.0,0.0,0.0,0.0,-2.3772,-2.3743,-2.3804,-2.3772,-2.3757,-2.3795,-2.381,-2.3797,-2.3804,-2.386,-2.3899,-2.4002,-2.431,-2.4551,-2.4715,-2.4915,-2.5003,-2.5003,-2.5003,-2.5003,-2.5003,-2.5003,-2.5003,-2.5003,-2.5003,-2.5003,-2.5079,-2.561,-2.6539,-2.7589,-2.8123,-2.9025,-2.9994,-3.0474,-3.0215,-2.9832,-3.0264,-2.9932,-2.944,-2.944,-2.9427,-2.9396,-2.9396,-2.9396,-2.9396,-2.9396,-3.066,-3.1645,-3.1106,-3.2741,-3.403,-3.3491,-3.3844,-3.4104,-3.3844,-3.3788,-3.3788,-3.3788,-3.3788,-3.39,-3.416,-3.3473,-3.289,-3.263,-3.1868,-3.1849,-3.2927,-3.2612,-3.2761,-3.3555,-3.3168,-3.3052,-3.3324,-3.3055,-3.29,-3.29,-3.29,-3.29,-3.2882,-3.2614,-3.2632,-2.1812,-2.1812,0.0,-2.1812,-2.1812,0.0,-2.1812,0.0,0.0,0.0,0.0,0.0,0.0,0.0,0.0,0.0,0.0,0.0,0.0,-2.1812,0.0,0.0,0.0,0.0,0.0,0.0,0.0,0.0,0.0,0.0,0.0,0.0,-2.3707,-2.3754,-2.3721,-2.3725,-2.3792,-2.3797,-2.3793,-2.3754,-2.3754,-2.381,-2.3909,-2.4154,-2.4355,-2.4537,-2.473,-2.4846,-2.4882,-2.4882,-2.4882,-2.4882,-2.4882,-2.4882,-2.4908,-2.4964,-2.5003,-2.5117,-2.5913,-2.6766,-2.7638,-2.8406,-2.9204,-2.9944,-3.0394,-3.0114,-2.9654,-2.9811,-2.9627,-2.9322,-2.9025,-2.9174,-2.9396,-2.9396,-2.9396,-2.9471,-2.975,-3.0864,-3.1738,-3.1496,-3.2704,-3.3696,-3.3473,-3.3621,-3.3863,-3.416,-3.4197,-3.4197,-3.4197,-3.3956,-3.3881,-3.416,-3.3473,-3.3001,-3.3001,-3.2518,-3.2667,-3.3714,-3.3426,-3.3437,-3.3876,-3.3541,-3.3294,-3.3205,-3.2993,-3.29,-3.29,-3.29,-3.29,-3.29,-3.3203,-3.3328]},{"header":{"parameterUnit":"m.s-1","parameterCategory":1,"la1":30.6,"la2":29.2853,"lo1":-89.7004,"lo2":-87.6739,"dy":0.0162,"dx":0.0183,"nx":112,"ny":82,"refTime":"2024-04-15T12:00:00:Z","depth":0,"parameterNumber":3,"parameterNumberName":"V-component_of_WINDS"},"data":[0.0,0.0,0.0,0.0,0.0,0.0,0.0,0.0,0.0,0.0,0.0,0.0,0.0,0.0,0.0,0.0,0.0,0.0,0.0,0.0,0.0,0.0,0.0,0.0,0.0,0.0,0.0,0.0,0.0,0.0,0.0,0.0,0.0,0.0,0.0,0.0,0.0,0.0,0.0,0.0,0.0,0.0,0.0,0.0,0.0,0.0,0.0,0.0,0.0,0.0,0.0,0.0,0.0,0.0,0.0,0.0,0.0,0.0,0.0,0.0,0.0,0.0,0.0,0.0,0.0,0.0,0.0,0.0,0.0,0.0,0.0,0.0,0.0,0.0,0.0,0.0,0.0,0.0,0.0,0.0,0.0,0.0,0.0,0.0,0.0,0.0,0.0,0.0,0.0,0.0,0.0,0.1049,0.1317,0.1494,0.1513,0.155,0.1482,0.1228,0.0,0.0,0.0,0.0,0.0,0.0,0.0,0.0,0.0,0.0,0.0,0.0,0.0,0.0,0.0,0.0,0.0,0.0,0.0,0.0,0.0,0.0,0.0,0.0,0.0,0.0,0.0,0.0,0.0,0.0,0.0,0.0,0.0,0.0,0.0,0.0,0.0,0.0,0.0,0.0,0.0,0.0,0.0,0.0,0.0,0.0,0.0,0.0,0.0,0.0,0.0,0.0,0.0,0.0,0.0,0.0,0.0,0.0,0.0,0.0,0.0,0.0,0.0,0.0,0.0,0.0,0.0,0.0,0.0,0.0,0.0,0.0,0.0,0.0,0.0,0.0,0.0,0.0,0.0,0.0,0.0,0.0,0.0,0.0,0.0,0.0,0.0,0.0,0.0,0.0,0.0,0.0,0.0,0.0,0.0,0.0,0.0,0.0,0.0,0.0,0.0,0.0,0.0,0.0,0.095,0.1227,0.1356,0.1466,0.1568,0.1532,0.134,0.0906,0.0,0.0,0.0,0.0,0.0,0.0,0.0,0.0,0.0,0.0,0.0,0.0,0.0,0.0,0.0,0.0,0.0,0.0,0.0,0.0,0.0,0.0,0.0,0.0,0.0,0.0,0.0,0.0,0.0,0.0,0.0,0.0,0.0,0.0,0.0,0.0,0.0,0.0,0.0,0.0,0.0,0.0,0.0,0.0,0.0,0.0,0.0,0.0,0.0,0.0,0.0,0.0,0.0,0.0,0.0,0.0,0.0,0.0,0.0,0.0,0.0,0.0,0.0,0.0,0.0,0.0,0.0,0.0,0.0,0.0,0.0,0.0,0.0,0.0,0.0,0.0,0.0,0.0,0.0,0.0,0.0,0.0,0.0,0.0,0.0,0.0,0.0,0.0,0.0,0.0,0.0,0.0,0.0,0.0,0.0,0.0,0.0,0.0,0.0,0.0,0.0,0.0,0.0,0.0954,0.0959,0.1221,0.1315,0.1363,0.144,0.1408,0.1191,0.0712,0.1113,0.0,0.0,0.0,0.0,0.0,0.0,0.0,0.0,0.0,0.0,0.0,0.0,0.0,0.0,0.0,0.0,0.0,0.0,0.0,0.0,0.0,0.0,0.0,0.0,0.0,0.0,0.0,0.0,0.0,0.0,0.0,0.0,0.0,0.0,0.0,0.0,0.0,0.0,0.0,0.0,0.0,0.0,0.0,0.0,0.0,0.0,0.0,0.0,0.0,0.0,0.0,0.0,0.0,0.0,0.0,0.0,0.0,0.0,0.0,0.0,0.0,0.0,0.0,0.0,0.0,0.0,0.0,0.0,0.0,0.0,0.0,0.0,0.0,0.0,0.0,0.0,0.0,0.0,0.0,0.0,0.0,0.0,0.0,0.0,0.0,0.0,0.0,0.0,0.0,0.0,0.0,0.0,0.0,0.0,0.0,0.0,0.0,0.0,0.0,0.0,0.0,0.0,0.0979,0.0953,0.1142,0.1204,0.1245,0.1259,0.1247,0.1038,0.06,0.093,0.0,0.0,0.0,0.0,0.0,0.0,0.0,0.0,0.0,0.0,0.0,0.0,0.0,0.0,0.0,0.0,0.0,0.0,0.0,0.0,0.0,0.0,0.0,0.0,0.0,0.0,0.0,0.0,0.0,0.0,0.0,0.0,0.0,0.0,0.0,0.0,0.0,0.0,0.0,0.0,0.0,0.0,0.0,0.0,0.0,0.0,0.0,0.0,0.0,0.0,0.0,0.0,0.0,0.0,0.0,0.0,0.0,0.0,0.0,0.0,0.0,0.0,0.0,0.0,0.0,0.0,0.0,0.0,0.0,0.0,0.0,0.0,0.0,0.0,0.0,0.0,0.0,0.0,0.0,0.0,0.0,0.0,0.0,0.0,0.0,0.0,0.0,0.0,0.0,0.0,0.0,0.0,0.0,0.0,0.0,0.0,0.0,0.0,0.0,0.0,0.0,0.0,0.0965,0.0858,0.1,0.1023,0.105,0.1108,0.106,0.088,0.0529,0.0603,0.0,0.0,0.0,0.0,0.0,0.0,0.0,0.0,0.0,0.0,0.0,0.0,0.0,0.0,0.0,0.0,0.0,0.0,0.0,0.0,0.0,0.0,0.0,0.0,0.0,0.0,0.0,0.0,0.0,0.0,0.0,0.0,0.0,0.0,0.0,0.0,0.0,0.0,0.0,0.0,0.0,0.0,0.0,0.0,0.0,0.0,0.0,0.0,0.0,0.0,0.0,0.0,0.0,0.0,0.0,0.0,0.0,0.0,0.0,0.0,0.0,0.0,0.0,0.0,0.0,0.0,0.0,0.0,0.0,0.0,0.0,0.0,0.0,0.0,0.0,0.0,0.0,0.0,0.0,0.0,0.0,0.0,0.0,0.0,0.0,0.0,0.0,0.0,0.0,0.0,0.0,0.0,0.0,0.0,0.0,0.0,0.0,0.0,0.0,0.0,0.0,0.0,0.0982,0.0934,0.0,0.0904,0.0937,0.1092,0.0957,0.0775,0.0507,0.0,0.0,0.0,0.0,0.0,0.0,0.0,0.0,0.0,0.0,0.0,0.0,0.0,0.0,0.0,0.0,0.0,0.0,0.0,0.0,0.0,0.0,0.0,0.0,0.0,0.0,0.0,0.0,0.0,0.0,0.0,0.0,0.0,0.0,0.0,0.0,0.0,0.0,0.0,0.0,0.0,0.0,0.0,0.0,0.0,0.0,0.0,0.0,0.0,0.0,0.0,0.0,0.0,0.0,0.0,0.0,0.0,0.0,0.0,0.0,0.0,0.0,0.0,0.0,0.0,0.0,0.0,0.0,0.0,0.0,0.0,0.0,0.0,0.0,0.0,0.0,0.0,0.0,0.0,0.0,0.0,0.0,0.0,0.0,0.0,0.0,0.0,0.0,0.0,0.0,0.0,0.0,0.0,0.0,0.0,0.0,0.0,0.0,0.0,0.0,0.0,0.0,0.112,0.0986,0.09,0.0,0.0736,0.0744,0.099,0.0833,0.0652,0.0458,0.0,0.0,0.0,0.0,0.0,0.0,0.0,0.0,0.0,0.0,0.0,0.0,0.0,0.0,0.0,0.0,0.0,0.0,0.0,0.0,0.0,0.0,0.0,0.0,0.0,0.0,0.0,0.0,0.0,0.0,0.0,0.0,0.0,0.0,0.0,0.0,0.0,0.0,0.0,0.0,0.0,0.0,0.0,0.0,0.0,0.0,0.0,0.0,0.0,0.0,0.0,0.0,0.0,0.0,0.0,0.0,0.0,0.0,0.0,0.0,0.0,0.0,0.0,0.0,0.0,0.0,0.0,0.0,0.0,0.0,0.0,0.0,0.0,0.0,0.0,0.0,0.0,0.0,0.0,0.0,0.0,0.0,0.0,0.0,0.0,0.0,0.0,0.0,0.0,0.0,0.0,0.0,0.0,0.0,0.0,0.0,0.0,0.0,0.0,0.0,0.0,0.0,0.1296,0.0941,0.0723,0.078,0.0493,0.043,0.0769,0.0673,0.0519,0.0,0.0,0.0,0.0,0.0,0.0,0.0,0.0,0.0,0.0,0.0,0.0,0.0,0.0,0.0,0.0,0.0,0.0,0.0,0.0,0.0,0.0,0.0,0.0,0.0,0.0,0.0,0.0,0.0,0.0,0.0,0.0,0.0,0.0,0.0,0.0,0.0,0.0,0.0,0.0,0.0,0.0,0.0,0.0,0.0,0.0,0.0,0.0,0.0,0.0,0.0,0.0,0.0,0.0,0.0,0.0,0.0,0.0,0.0,0.0,0.0,0.0,0.0,0.0,0.0,0.0,0.0,0.0,0.0,0.0,0.0,0.0,0.0,0.0,0.0,0.0,0.0,0.0,0.0,0.0,0.0,0.0,0.0,0.0,0.0,0.0,0.0,0.0,0.0,0.0,0.0,0.0,0.0,0.0,0.0,0.0,0.0,0.0,0.0,0.0,0.0,0.0,0.0,0.1044,0.0869,0.0647,0.0342,0.0425,0.0423,0.0189,0.0482,0.061,0.0458,0.0,0.0,0.0,0.0,0.0,0.0,0.0,0.0,0.0,0.0,0.0,0.0,0.0,0.0,0.0,0.0,0.0,0.0,0.0,0.0,0.0,0.0,0.0,0.0,0.0,0.0,0.0,0.0,0.0,0.0,0.0,0.0,0.0,0.0,0.0,0.0,0.0,0.0,0.0,0.0,0.0,0.0,0.0,0.0,0.0,0.0,0.0,0.0,0.0,0.0,0.0,0.0,0.0,0.0,0.0,0.0,0.0,0.0,0.0,0.0,0.0,0.0,0.0,0.0,0.0,0.0,0.0,0.0,0.0,0.0,0.0,0.0,0.0,0.0,0.0,0.0,0.0,0.0,0.0,0.0,0.0,0.0,0.0,0.0,0.0,0.0,0.0,0.0,0.0,0.0,0.0,0.0,0.0,0.0,0.0,0.0,0.0,0.0,0.0,0.0,0.0,0.0,0.0921,0.079,0.0616,0.0366,0.0286,0.0261,0.0292,0.0378,0.045,0.0497,0.0,0.0,0.0,0.0,0.0,0.0,0.0,0.0,0.0,0.0,0.0,0.0,0.0,0.0,0.0,0.0,0.0,0.0,0.0,0.0,0.0,0.0,0.0,0.0,0.0,0.0,0.0,0.0,0.0,0.0,0.0,0.0,0.0,0.0,0.0,0.0,0.0,0.0,0.0,0.0,0.0,0.0,0.0,0.0,0.0,0.0,0.0,0.0,0.0,0.0,0.0,0.0,0.0,0.0,0.0,0.0,0.0,0.0,0.0,0.0,0.0,0.0,0.0,0.0,0.0,0.0,0.0,0.0,0.0,0.0,0.0,0.0,0.0,0.0,0.0,0.0,0.0,0.0,0.0,0.0,0.0,0.0,0.0,0.0,0.0,0.0,0.0,0.0,0.0,0.0,0.0,0.0,0.0,0.0,0.0,0.0,0.0,0.0,0.0,0.0,0.0,0.0,0.0898,0.0723,0.0606,0.0637,0.0124,0.0062,0.073,0.036,0.0203,0.0474,0.0,0.0,0.0,0.0,0.0,0.0,0.0,0.0,0.0,0.0,0.0,0.0,0.0,0.0,0.0,0.0,0.0,0.0,0.0,0.0,0.0,0.0,0.0,0.0,0.0,0.0,0.0,0.0,0.0,0.0,0.0,0.0,0.0,0.0,0.0,0.0,0.0,0.0,0.0,0.0,0.0,0.0,0.0,0.0,0.0,0.0,0.0,0.0,0.0,0.0,0.0,0.0,0.0,0.0,0.0,0.0,0.0,0.0,0.0,0.0,0.2349,0.0,0.0,0.0,0.0,0.0,0.0,0.0,0.0,0.0,0.0,0.0,0.0,0.0,0.0,0.0,0.0,0.0,0.0,0.0,0.0,0.0,0.0,0.0,0.0,0.0,0.0,0.0,0.0,0.0,0.0,0.0,0.0,0.0,0.0,0.0,0.0,0.0,0.0,0.0,0.0,0.0,0.0835,0.0649,0.0429,0.0181,0.0346,0.0346,-0.0016,0.0417,0.0645,0.0502,0.0647,0.0,0.0,0.0,0.0,0.0,0.0,0.0,0.0,0.0,0.0,0.0,0.0,0.0,0.0,0.0,0.0,0.0,0.0,0.0,0.0,0.0,0.0,0.0,0.0,0.0,0.0,0.0,0.0,0.0,0.0,0.0,0.0,0.0,0.0,0.0,0.0,0.0,0.0,0.0,0.0,0.0,0.0,0.0,0.0,0.0,0.0,0.0,0.0,0.0,0.0,0.0,0.0,0.0,0.0,0.0,0.0,0.0,0.0,0.0,0.0,0.248,0.0,0.0,0.0,0.0,0.0,0.0,0.0,0.0,0.0,0.0,0.0,0.0,0.0,0.0,0.0,0.0,0.0,0.0,0.0,0.0,0.0,0.0,0.0,0.0,0.0,0.0,0.0,0.0,0.0,0.0,0.0,0.0,0.0,0.0,0.0,0.0,0.0,0.0,0.0,0.0,0.0819,0.0622,0.0437,0.0252,0.0319,0.034,0.0279,0.052,0.0711,0.082,0.0937,0.0,0.0,0.0,0.0,0.0,0.0,0.0,0.0,0.0,0.0,0.0,0.0,0.0,0.0,0.0,0.0,0.0,0.0,0.0,0.0,0.0,0.0,0.0,0.0,0.0,0.0,0.0,0.0,0.0,0.0,0.0,0.0,0.0,0.0,0.0,0.0,0.0,0.0,0.0,0.0,0.0,0.0,0.0,0.0,0.0,0.0,0.0,0.0,0.0,0.0,0.0,0.0,0.0,0.2477,0.2414,0.2306,0.2291,0.2186,0.204,0.2146,0.2188,0.2206,0.0,0.0,0.0,0.0,0.0,0.0,0.0,0.0,0.0,0.0,0.0,0.0,0.0,0.0,0.0,0.0,0.0,0.0,0.0,0.0,0.0,0.0,0.0,0.0,0.0,0.1316,0.1472,0.0,0.0,0.0,0.0,0.0,0.0,0.0,0.0,0.0,0.0,0.0,0.0,0.0824,0.0635,0.0512,0.0512,0.0273,0.0313,0.0836,0.0649,0.069,0.1129,0.1245,0.1339,0.0,0.0,0.0,0.0,0.0,0.0,0.0,0.0,0.0,0.0,0.0,0.0,0.0,0.0,0.0,0.0,0.0,0.0,0.0,0.0,0.0,0.0,0.0,0.0,0.0,0.0,0.0,0.0,0.0,0.0,0.0,0.0,0.6652,0.6364,0.0,0.0,0.0,0.0,0.0,0.0,0.0,0.0,0.0,0.0,0.0,0.0,0.0,0.2483,0.2218,0.2227,0.2165,0.2002,0.1921,0.1919,0.1958,0.1906,0.183,0.1758,0.1767,0.0,0.2206,0.2232,0.0,0.0,0.0,0.0,0.0,0.0,0.0,0.0,0.0,0.0,0.0,0.0,0.0,0.0,0.0,0.0,0.0,0.0,0.0,0.0,0.0,0.0,0.1313,0.1365,0.1377,0.1403,0.0,0.1484,0.1456,0.1456,0.1433,0.0,0.0,0.0,0.0,0.0,0.0,0.0,0.0815,0.0668,0.0595,0.0595,0.0541,0.0597,0.0802,0.0829,0.0895,0.1015,0.1147,0.1215,0.1242,0.1554,0.0,0.0,0.0,0.0,0.0,0.0,0.0,0.0,0.0,0.0,0.0,0.0,0.0,0.0,0.0,0.0,0.0,0.0,0.0,0.0,0.0,0.0,0.0,0.0,0.0,0.0,0.0,0.0,0.0,0.6544,0.6273,0.62,0.6146,0.6119,0.0,0.0,0.0,0.0,0.0,0.0,0.0,0.0,0.0,0.2395,0.2404,0.231,0.2027,0.2066,0.2037,0.1911,0.1856,0.1886,0.1909,0.1856,0.1849,0.1854,0.182,0.187,0.1972,0.1932,0.2101,0.2376,0.0,0.0,0.0,0.0,0.2634,0.2534,0.2394,0.2302,0.0,0.2206,0.0,0.0,0.0,0.0,0.0,0.0,0.0,0.0,0.0,0.0,0.0,0.1382,0.1363,0.1348,0.1381,0.1411,0.1411,0.0,0.1362,0.1349,0.1339,0.0,0.0,0.0,0.0,0.0903,0.0762,0.0663,0.0609,0.0609,0.0609,0.0692,0.089,0.0947,0.1034,0.1208,0.1274,0.1294,0.1262,0.1571,0.1745,0.0,0.0,0.0,0.0,0.0,0.0,0.0,0.0,0.0,0.0,0.0,0.0,0.0,0.0,0.0,0.0,0.0,0.0,0.0,0.0,0.0,0.0,0.0,0.0,0.0,0.0,0.0,0.0,0.6257,0.6004,0.6173,0.5873,0.5707,0.0,0.0,0.0,0.0,0.0,0.0,0.3227,0.3096,0.2748,0.213,0.2154,0.2072,0.1911,0.1957,0.1941,0.1868,0.1868,0.1874,0.189,0.186,0.1906,0.2024,0.1856,0.1768,0.1759,0.1727,0.1843,0.2053,0.2073,0.2213,0.2435,0.2435,0.2437,0.2356,0.2166,0.2082,0.2075,0.2022,0.0,0.1986,0.2108,0.0,0.0,0.0,0.0,0.1859,0.1824,0.162,0.1434,0.1434,0.1378,0.1353,0.1382,0.1377,0.137,0.0,0.1353,0.1316,0.1336,0.0,0.0,0.0,0.0,0.0843,0.0708,0.0666,0.062,0.062,0.062,0.0731,0.0987,0.1021,0.1127,0.1386,0.1411,0.1369,0.1325,0.1564,0.1647,0.1502,0.0,0.0,0.0,0.0,0.0,0.0,0.0,0.0,0.0,0.0,0.0,0.0,0.0,0.0,0.0,0.0,0.0,0.0,0.0,0.0,0.0,0.0,0.0,0.0,0.0,0.0,0.0,0.0,0.0,0.6154,0.5292,0.0,0.0,0.0,0.0,0.3971,0.3579,0.3206,0.295,0.251,0.2124,0.1821,0.1826,0.1856,0.1909,0.1914,0.1881,0.1797,0.1797,0.1823,0.1905,0.1704,0.178,0.2059,0.1701,0.1552,0.1614,0.1732,0.1725,0.1625,0.1713,0.1737,0.1738,0.1738,0.18,0.1849,0.1824,0.1784,0.1732,0.1732,0.1666,0.1629,0.1712,0.1687,0.0,0.0,0.1574,0.1542,0.1597,0.1565,0.1495,0.1495,0.1494,0.1477,0.1423,0.1345,0.1321,0.0,0.1386,0.1385,0.1389,0.0,0.1161,0.1009,0.0947,0.0842,0.0712,0.0692,0.0692,0.0692,0.0692,0.0777,0.099,0.1048,0.1184,0.1389,0.1411,0.1387,0.1385,0.141,0.1539,0.1772,0.1632,0.0,0.0,0.0,0.0,0.0,0.0,0.0,0.0,0.0,0.0,0.0,0.0,0.0,0.0,0.0,0.0,0.0,0.0,0.0,0.0,0.0,0.0,0.0,0.0,0.0,0.0,0.0,0.0,0.5218,0.4545,0.0,0.4396,0.3761,0.3309,0.3264,0.2717,0.2347,0.2188,0.2087,0.1966,0.188,0.1958,0.2009,0.2028,0.2069,0.2078,0.2055,0.1923,0.1866,0.1884,0.1681,0.174,0.1956,0.1822,0.1815,0.1936,0.1977,0.1816,0.1544,0.1701,0.1709,0.1654,0.1737,0.1699,0.1635,0.1756,0.1732,0.1647,0.1647,0.1659,0.167,0.1653,0.1607,0.1591,0.1591,0.1575,0.1572,0.1658,0.1603,0.1568,0.1607,0.1557,0.1494,0.1473,0.1451,0.1443,0.1465,0.1399,0.1313,0.1286,0.1235,0.1127,0.0911,0.0889,0.0851,0.0721,0.0773,0.0791,0.0705,0.0769,0.09,0.1053,0.1088,0.1186,0.1389,0.1411,0.1411,0.1411,0.1411,0.1402,0.1424,0.1435,0.1684,0.0,0.0,0.0,0.0,0.0,0.0,0.0,0.0,0.0,0.0,0.0,0.0,0.0,0.0,0.0,0.0,0.0,0.0,0.0,0.0,0.0,0.0,0.0,0.0,0.0,0.0,0.4597,0.4816,0.4006,0.3519,0.3738,0.3098,0.262,0.2565,0.2148,0.1904,0.1857,0.1921,0.1951,0.1972,0.2052,0.2105,0.2127,0.2167,0.212,0.1985,0.1918,0.1817,0.1681,0.1547,0.1648,0.1884,0.1715,0.1731,0.1928,0.1909,0.1743,0.1527,0.1707,0.1729,0.1656,0.1738,0.1699,0.1604,0.1731,0.1714,0.1646,0.1646,0.1673,0.1699,0.1658,0.1646,0.1616,0.1596,0.1591,0.1604,0.1691,0.1676,0.1655,0.1696,0.1644,0.1556,0.1534,0.153,0.153,0.153,0.1461,0.1391,0.1343,0.1289,0.1198,0.0973,0.0973,0.0958,0.082,0.0933,0.101,0.0915,0.0983,0.107,0.1167,0.1182,0.1269,0.1391,0.143,0.1432,0.1412,0.1411,0.1357,0.126,0.1401,0.1632,0.1967,0.0,0.0,0.0,0.0,0.0,0.0,0.0,0.0,0.0,0.0,0.0,0.0,0.0,0.0,0.0,0.0,0.0,0.0,0.0,0.0,0.0,0.0,0.0,0.6246,0.5038,0.4423,0.4991,0.3661,0.277,0.3046,0.2434,0.198,0.1918,0.1916,0.1944,0.2002,0.2008,0.2037,0.2096,0.2098,0.2127,0.2186,0.2188,0.2018,0.1614,0.1817,0.1681,0.1311,0.1311,0.1513,0.185,0.1344,0.1311,0.161,0.1532,0.1512,0.1531,0.1721,0.1763,0.1711,0.171,0.1747,0.1789,0.1728,0.1707,0.1708,0.1704,0.1704,0.1706,0.1706,0.1704,0.1692,0.1608,0.1592,0.1604,0.1693,0.1707,0.1707,0.1708,0.1706,0.1687,0.16,0.1589,0.1591,0.1591,0.1592,0.1592,0.1588,0.149,0.1357,0.1214,0.1216,0.0,0.1025,0.1185,0.1313,0.1312,0.1312,0.1292,0.1292,0.1358,0.1393,0.1402,0.1471,0.1477,0.1419,0.1416,0.1416,0.1416,0.154,0.1653,0.1738,0.0,0.0,0.0,0.0,0.0,0.0,0.0,0.0,0.0,0.0,0.0,0.0,0.0,0.0,0.0,0.0,0.0,0.0,0.0,0.0,0.0,0.0,0.6388,0.6167,0.5063,0.4288,0.4358,0.3121,0.2311,0.2425,0.2224,0.2044,0.1983,0.206,0.2099,0.2071,0.2113,0.2145,0.2161,0.2161,0.2171,0.2188,0.2188,0.2154,0.2018,0.1951,0.1783,0.1513,0.1513,0.1513,0.148,0.1614,0.1648,0.1611,0.1695,0.1686,0.1645,0.1805,0.1791,0.1718,0.1761,0.1782,0.1789,0.1728,0.1734,0.1758,0.1669,0.167,0.1706,0.1706,0.1676,0.1646,0.1673,0.165,0.164,0.1745,0.1738,0.1718,0.1762,0.1704,0.1599,0.1538,0.1558,0.1591,0.1591,0.1573,0.1524,0.1517,0.1488,0.1429,0.1285,0.135,0.0,0.1246,0.136,0.1404,0.1315,0.1337,0.1382,0.1367,0.138,0.1451,0.1544,0.1556,0.1558,0.1542,0.1541,0.1541,0.1541,0.1857,0.213,0.0,0.0,0.0,0.0,0.0,0.0,0.0,0.0,0.0,0.0,0.0,0.0,0.0,0.0,0.0,0.0,0.0,0.0,0.0,0.0,0.0,0.0,0.6744,0.6734,0.6688,0.5478,0.4542,0.4412,0.3253,0.2436,0.2297,0.2233,0.2177,0.2093,0.2151,0.2199,0.2138,0.2168,0.2188,0.2188,0.2188,0.2188,0.2188,0.2188,0.2154,0.2087,0.2052,0.1884,0.1614,0.1661,0.1585,0.0,0.1652,0.1674,0.156,0.1767,0.1806,0.0,0.0,0.0,0.0,0.0,0.1797,0.1792,0.1756,0.1767,0.1785,0.1714,0.1715,0.1744,0.1744,0.1719,0.1699,0.1734,0.1719,0.1713,0.1808,0.1807,0.1782,0.1794,0.1781,0.1728,0.1566,0.1649,0.1711,0.1662,0.1623,0.0,0.1547,0.1466,0.1407,0.143,0.1433,0.1379,0.1297,0.1372,0.1378,0.1297,0.1347,0.1365,0.137,0.144,0.0,0.0,0.0,0.1616,0.1592,0.1591,0.0,0.0,0.0,0.2091,0.226,0.0,0.0,0.0,0.3164,0.3451,0.0,0.0,0.0,0.0,0.0,0.0,0.0,0.0,0.0,0.0,0.0,0.0,0.0,0.0,0.0,0.0,0.714,0.7369,0.7575,0.626,0.5152,0.4876,0.3806,0.291,0.2448,0.2366,0.2318,0.2208,0.22,0.2211,0.219,0.0,0.0,0.0,0.0,0.2188,0.2188,0.2188,0.212,0.1951,0.2114,0.1976,0.1638,0.1755,0.1732,0.1571,0.1576,0.1556,0.1528,0.1772,0.1843,0.1786,0.1756,0.1769,0.1798,0.1888,0.1915,0.1909,0.1916,0.0,0.0,0.1825,0.1797,0.1798,0.1805,0.1807,0.1808,0.1815,0.1816,0.1828,0.1908,0.1915,0.1896,0.1811,0.1877,0.1922,0.1673,0.1755,0.1839,0.1728,0.1749,0.173,0.1619,0.1447,0.1381,0.1536,0.1403,0.1291,0.1291,0.1291,0.1291,0.1291,0.0,0.0,0.1344,0.1518,0.1559,0.1462,0.1608,0.1692,0.1612,0.1635,0.1661,0.1715,0.1717,0.1743,0.1853,0.2074,0.224,0.2322,0.3037,0.3369,0.0,0.0,0.0,0.0,0.0,0.0,0.0,0.0,0.0,0.0,0.0,0.0,0.0,0.0,0.0,0.7574,0.7778,0.7984,0.8182,0.7477,0.6454,0.5131,0.4152,0.3226,0.2392,0.2272,0.2214,0.2211,0.2206,0.22,0.2188,0.2188,0.0,0.2188,0.2188,0.2188,0.2188,0.2188,0.2188,0.2153,0.0,0.0,0.1752,0.1891,0.1773,0.1466,0.1819,0.1799,0.1503,0.1747,0.1789,0.1738,0.1871,0.1891,0.1887,0.2538,0.266,0.2553,0.2711,0.266,0.2434,0.1964,0.1797,0.1805,0.1852,0.1894,0.0,0.1955,0.1969,0.197,0.1983,0.1948,0.1896,0.1811,0.1815,0.1805,0.1708,0.1755,0.1792,0.1721,0.1635,0.1589,0.167,0.1617,0.1504,0.1373,0.1319,0.1291,0.1291,0.1291,0.1291,0.1291,0.1431,0.154,0.1529,0.1679,0.176,0.1735,0.1746,0.1774,0.1762,0.1762,0.1767,0.1779,0.1779,0.1895,0.2128,0.2184,0.2462,0.2935,0.3081,0.3157,0.0,0.0,0.0,0.0,0.0,0.0,0.0,0.0,0.0,0.0,0.0,0.7744,0.7553,0.0,0.7759,0.8037,0.8102,0.8179,0.8367,0.7848,0.7028,0.5896,0.4705,0.3722,0.3048,0.2542,0.2229,0.2204,0.2199,0.2185,0.2189,0.2188,0.2188,0.2188,0.2188,0.2188,0.2188,0.2157,0.2142,0.2141,0.2078,0.2001,0.1964,0.2,0.1865,0.1611,0.1954,0.1917,0.1608,0.1857,0.1916,0.1953,0.2394,0.2482,0.2472,0.3141,0.3401,0.3404,0.352,0.3473,0.3302,0.2625,0.2413,0.2332,0.1989,0.1911,0.1923,0.1986,0.2002,0.2002,0.2002,0.198,0.1934,0.1817,0.1865,0.188,0.17,0.1802,0.1915,0.1736,0.1699,0.17,0.1647,0.1526,0.1451,0.1481,0.1285,0.1176,0.1367,0.1222,0.1122,0.1206,0.129,0.1347,0.1347,0.1572,0.1741,0.1797,0.1797,0.1797,0.1797,0.1797,0.1797,0.1797,0.1797,0.1852,0.199,0.199,0.2214,0.2657,0.2826,0.3051,0.0,0.0,0.0,0.0,0.0,0.0,0.0,0.0,0.8948,0.8303,0.8061,0.7959,0.7959,0.8112,0.8269,0.8486,0.8426,0.8391,0.8502,0.8038,0.7427,0.6774,0.5333,0.4208,0.3688,0.2818,0.2257,0.2197,0.2193,0.2206,0.219,0.2188,0.2188,0.2188,0.2188,0.2188,0.2188,0.2138,0.2113,0.2113,0.2051,0.2046,0.2094,0.2031,0.1936,0.1854,0.1993,0.1907,0.1682,0.1862,0.2079,0.2306,0.2934,0.3308,0.352,0.3925,0.4168,0.4293,0.432,0.4311,0.4151,0.3431,0.3128,0.2878,0.2291,0.1999,0.1921,0.197,0.1994,0.1999,0.1988,0.1986,0.1958,0.1823,0.1945,0.1992,0.1719,0.1857,0.1998,0.1763,0.18,0.1817,0.1649,0.1473,0.1407,0.1594,0.1238,0.1076,0.1426,0.1186,0.101,0.1122,0.1178,0.1206,0.1234,0.1487,0.1685,0.1797,0.1797,0.1797,0.1797,0.1797,0.1797,0.1797,0.1797,0.1797,0.1797,0.1853,0.2018,0.2296,0.2633,0.3023,1.0859,1.0667,1.0308,0.955,0.9342,0.9149,0.0,0.0,0.7925,0.8011,0.7926,0.7808,0.7808,0.8248,0.8703,0.8882,0.9045,0.9114,0.895,0.8555,0.8065,0.7472,0.5878,0.4443,0.3434,0.2642,0.2194,0.2203,0.2199,0.2195,0.2188,0.2188,0.2188,0.2188,0.2188,0.2188,0.2188,0.2181,0.2177,0.2177,0.2114,0.2089,0.2094,0.2031,0.2006,0.1985,0.1879,0.1736,0.1607,0.1455,0.194,0.2867,0.3279,0.4129,0.5147,0.5135,0.504,0.4925,0.5092,0.5051,0.481,0.4182,0.3537,0.2966,0.2817,0.2378,0.1912,0.1919,0.1961,0.199,0.1936,0.1921,0.1905,0.1812,0.185,0.1922,0.1887,0.1907,0.1908,0.1802,0.1798,0.1788,0.1699,0.1583,0.1434,0.1362,0.12,0.1143,0.1311,0.1287,0.1262,0.1262,0.1431,0.16,0.1713,0.1769,0.1797,0.1797,0.1797,0.1797,0.1797,0.1797,0.1797,0.1797,0.1797,0.1797,0.1797,0.2046,0.2326,0.2663,0.2938,0.3105,1.0938,1.0454,0.9978,1.0008,0.9771,0.9419,0.8867,0.87,0.8532,0.7985,0.802,0.8141,0.8141,0.8552,0.8921,0.0,0.8971,0.8891,0.8681,0.8147,0.7548,0.6924,0.5777,0.4766,0.4109,0.2931,0.2215,0.219,0.2188,0.2188,0.2188,0.2153,0.215,0.2186,0.2153,0.2134,0.2134,0.2134,0.2116,0.208,0.2053,0.206,0.2095,0.194,0.1852,0.1753,0.171,0.1652,0.162,0.1972,0.2385,0.2883,0.3868,0.4668,0.5266,0.5666,0.5816,0.5818,0.5923,0.59,0.5696,0.5032,0.459,0.4256,0.3753,0.3095,0.2525,0.2525,0.2227,0.1864,0.1839,0.1832,0.1827,0.1802,0.1839,0.1901,0.1839,0.1915,0.1937,0.1815,0.1824,0.1827,0.177,0.1649,0.1574,0.1597,0.138,0.128,0.1498,0.1386,0.1347,0.1459,0.1543,0.1657,0.1797,0.1797,0.1797,0.1797,0.1797,0.1797,0.1797,0.1797,0.1797,0.1797,0.1797,0.1797,0.1797,0.2074,0.238,0.2719,0.2965,0.3216,1.1072,1.0583,1.0178,1.0401,1.0251,0.9853,0.9204,0.9142,0.9003,0.828,0.826,0.8401,0.8401,0.8647,0.8869,0.8926,0.883,0.8679,0.843,0.7873,0.722,0.6572,0.5659,0.4992,0.4694,0.3282,0.2341,0.2195,0.2161,0.217,0.2186,0.2145,0.2142,0.2186,0.2145,0.2121,0.2121,0.2121,0.2098,0.2053,0.2053,0.2077,0.2121,0.1924,0.1707,0.1529,0.1508,0.1473,0.1497,0.2243,0.2684,0.3052,0.4251,0.4984,0.5375,0.5912,0.6238,0.6387,0.6387,0.6387,0.6322,0.573,0.542,0.5171,0.4547,0.3865,0.3268,0.3064,0.2578,0.207,0.1881,0.182,0.182,0.182,0.1852,0.1898,0.183,0.1916,0.1947,0.1816,0.183,0.1845,0.1804,0.1713,0.1685,0.1797,0.1594,0.1514,0.1705,0.1548,0.1487,0.1629,0.1657,0.1685,0.1797,0.1797,0.1797,0.1797,0.1797,0.1797,0.1797,0.1797,0.1797,0.1797,0.1797,0.1797,0.1797,0.2074,0.2324,0.2577,0.2854,0.3163,1.1308,0.0,1.1223,1.0352,1.0349,1.0295,0.9231,0.8867,0.8776,0.8917,0.868,0.8401,0.8401,0.8411,0.8486,0.868,0.8888,0.8871,0.8469,0.8098,0.7586,0.6779,0.5751,0.5006,0.0,0.3635,0.2656,0.2158,0.2098,0.2124,0.2183,0.2185,0.2185,0.2188,0.2185,0.2185,0.2185,0.2185,0.2183,0.2182,0.2182,0.2182,0.2185,0.1982,0.1688,0.1324,0.1295,0.1193,0.1069,0.1827,0.2649,0.3553,0.4323,0.5123,0.5888,0.5885,0.6115,0.6387,0.6387,0.6387,0.6388,0.6237,0.5765,0.5266,0.5044,0.4564,0.392,0.3193,0.2979,0.2804,0.2071,0.1908,0.1908,0.1908,0.1909,0.1909,0.1908,0.1911,0.1896,0.1808,0.1798,0.18,0.1797,0.1797,0.1797,0.1797,0.1796,0.1794,0.1794,0.1796,0.1797,0.1797,0.1797,0.1797,0.1797,0.1797,0.1797,0.1797,0.1797,0.1797,0.1797,0.1797,0.1797,0.1797,0.1797,0.1797,0.1797,0.2074,0.2212,0.2212,0.2549,0.2856,1.168,0.0,1.1413,1.1247,1.1115,1.0816,1.0152,0.9646,0.9206,0.8888,0.8359,0.7957,0.7811,0.7798,0.7856,0.8068,0.8264,0.8325,0.8051,0.7727,0.7192,0.6411,0.5774,0.0,0.0,0.0,0.0,0.2699,0.232,0.2123,0.2183,0.2149,0.2145,0.2186,0.2147,0.2127,0.2127,0.2167,0.2167,0.2127,0.2168,0.212,0.1985,0.1918,0.174,0.1492,0.1373,0.1538,0.1989,0.2573,0.3316,0.4087,0.4858,0.5359,0.5686,0.5686,0.5855,0.6086,0.6218,0.628,0.6272,0.6314,0.6197,0.6026,0.5964,0.5452,0.4838,0.4587,0.3776,0.2948,0.2703,0.2305,0.1972,0.1972,0.1972,0.1972,0.1972,0.1972,0.1954,0.1893,0.1853,0.1841,0.1804,0.1828,0.1853,0.1853,0.1822,0.1797,0.1797,0.1797,0.1797,0.1797,0.1797,0.1797,0.1797,0.1797,0.1797,0.1797,0.1797,0.1797,0.1797,0.1797,0.1797,0.1797,0.1797,0.1797,0.1797,0.2074,0.2212,0.2212,0.2715,0.2912,1.2051,1.2218,1.236,1.2323,1.2158,1.1794,1.1046,1.0224,0.9474,0.8898,0.8284,0.7755,0.7321,0.7348,0.7417,0.7332,0.7508,0.7588,0.7503,0.7227,0.6826,0.6276,0.5952,0.5526,0.0,0.0,0.0,0.3004,0.2681,0.2417,0.2217,0.2149,0.2146,0.2185,0.216,0.2128,0.2128,0.2168,0.2168,0.2128,0.2168,0.2087,0.1884,0.1884,0.1783,0.1614,0.1747,0.2082,0.2584,0.3384,0.3987,0.4489,0.519,0.5522,0.5598,0.5671,0.5759,0.5836,0.6006,0.6148,0.6203,0.6213,0.6302,0.6404,0.6339,0.6028,0.5635,0.5406,0.4437,0.3396,0.3143,0.2554,0.2046,0.206,0.2069,0.2042,0.2064,0.2051,0.2017,0.1955,0.1925,0.1898,0.1834,0.1857,0.1904,0.1854,0.1838,0.182,0.18,0.1797,0.1797,0.1797,0.1797,0.1797,0.1797,0.1797,0.1797,0.1797,0.1797,0.1797,0.1797,0.1797,0.1797,0.1797,0.1797,0.1797,0.1797,0.1964,0.21,0.2212,0.2601,0.2798,1.2459,1.3316,1.3991,1.3404,1.3339,1.3107,1.187,1.0589,0.9524,0.8996,0.8366,0.7696,0.0,0.0,0.7115,0.6601,0.6699,0.685,0.693,0.6766,0.6594,0.0,0.0,0.0,0.0,0.0,0.0,0.3158,0.0,0.2922,0.2315,0.2214,0.2214,0.2214,0.2191,0.2195,0.2197,0.2195,0.2193,0.2193,0.2189,0.2087,0.1918,0.1918,0.1817,0.1681,0.2351,0.2686,0.2854,0.4064,0.4597,0.4725,0.5395,0.5619,0.5628,0.5814,0.5787,0.5658,0.5844,0.602,0.6154,0.5962,0.6121,0.6355,0.6245,0.6278,0.6284,0.5646,0.4921,0.4195,0.3458,0.2706,0.2172,0.2187,0.2158,0.2121,0.2179,0.2143,0.2081,0.202,0.1958,0.1915,0.1915,0.1912,0.1891,0.1809,0.1845,0.1886,0.1804,0.1797,0.1797,0.1797,0.1797,0.1797,0.1797,0.1797,0.1797,0.1797,0.1797,0.1797,0.1797,0.1797,0.1797,0.1797,0.1825,0.1825,0.1825,0.1825,0.1964,0.224,0.224,0.2545,1.3501,1.4263,1.4757,1.4162,1.3873,1.3273,1.1677,1.0325,0.923,0.8578,0.7828,0.7137,0.0,0.0,0.0,0.6729,0.6946,0.0,0.732,0.7311,0.0,0.701,0.0,0.67,0.6503,0.6498,0.0,0.0,0.3863,0.3219,0.3235,0.2633,0.2276,0.2276,0.2218,0.2208,0.2289,0.2209,0.2187,0.2186,0.221,0.2188,0.212,0.212,0.2087,0.2052,0.2085,0.2684,0.3689,0.4005,0.4707,0.5601,0.5925,0.5958,0.5814,0.5874,0.5885,0.5848,0.587,0.5818,0.5807,0.6032,0.6179,0.6239,0.6196,0.6277,0.635,0.6181,0.5732,0.5071,0.4283,0.3665,0.3048,0.2412,0.2218,0.2169,0.2183,0.2173,0.2146,0.2084,0.2022,0.198,0.198,0.1941,0.1905,0.189,0.1837,0.1813,0.18,0.1797,0.1797,0.1797,0.1797,0.1797,0.1797,0.1797,0.1797,0.1797,0.1797,0.1797,0.1797,0.1797,0.1797,0.1797,0.199,0.2102,0.2102,0.2355,0.2495,0.2577,0.277,0.2854,1.421,1.4975,1.5478,1.4833,1.4342,1.3622,1.2044,1.0568,0.9334,0.8545,0.7867,0.0,0.6632,0.0,0.0,0.0,0.0,0.0,0.7021,0.725,0.7367,0.0,0.7351,0.0,0.6988,0.7052,0.6904,0.0,0.5156,0.4362,0.4166,0.3368,0.2927,0.2927,0.2495,0.2265,0.2299,0.2265,0.2249,0.2248,0.2223,0.2194,0.2194,0.2194,0.2194,0.2229,0.0,0.3541,0.4301,0.4835,0.5528,0.6241,0.6218,0.6207,0.6194,0.6252,0.621,0.6127,0.6221,0.6011,0.5785,0.6112,0.621,0.6226,0.6271,0.6311,0.6349,0.6441,0.6026,0.5347,0.4687,0.3987,0.3281,0.2542,0.2289,0.2217,0.2244,0.2217,0.217,0.2107,0.2089,0.2067,0.2012,0.2019,0.2004,0.1922,0.1907,0.1856,0.1804,0.1797,0.1797,0.1797,0.1797,0.1797,0.1797,0.1797,0.1797,0.1797,0.1797,0.1797,0.1797,0.1797,0.1797,0.1797,0.1936,0.2018,0.2018,0.2216,0.2355,0.2493,0.2798,0.2912,1.4717,1.5475,1.6039,1.5356,1.4692,1.3846,1.2545,1.1026,0.9643,0.872,0.0,0.7638,0.6634,0.6813,0.6802,0.594,0.0,0.6323,0.6553,0.6951,0.7325,0.7539,0.7759,0.778,0.748,0.7413,0.7377,0.7286,0.6611,0.5857,0.511,0.4209,0.3638,0.3515,0.2751,0.2319,0.231,0.231,0.231,0.231,0.2249,0.2221,0.2221,0.2221,0.2221,0.2294,0.0,0.0,0.4704,0.5888,0.6518,0.6718,0.6431,0.6476,0.6669,0.6725,0.6639,0.6493,0.6633,0.641,0.6018,0.6156,0.6197,0.6236,0.6335,0.6334,0.6336,0.653,0.6118,0.5518,0.4975,0.4193,0.3391,0.2807,0.2449,0.2236,0.2288,0.2247,0.2181,0.212,0.215,0.215,0.2035,0.2105,0.2116,0.1937,0.1963,0.1959,0.1812,0.1797,0.1797,0.1797,0.1797,0.1797,0.1797,0.1797,0.1797,0.1797,0.1797,0.1797,0.1797,0.1797,0.1797,0.1797,0.1825,0.1853,0.1853,0.1909,0.2048,0.2268,0.2577,0.2828,1.5441,1.584,1.6039,1.5356,1.4443,1.3406,1.2246,1.0909,0.0,0.0,0.8307,0.7913,0.7378,0.7192,0.7014,0.6804,0.0,0.0,0.0,0.0,0.7574,0.0,0.0,0.0,0.0,0.0,0.0,0.0,0.0,0.6858,0.6008,0.458,0.3429,0.2648,0.2536,0.2455,0.2369,0.2367,0.2367,0.2366,0.231,0.2283,0.2283,0.2283,0.2283,0.2356,0.334,0.0,0.4679,0.5788,0.6506,0.6964,0.7013,0.6977,0.6917,0.6928,0.6924,0.6888,0.6741,0.663,0.6517,0.6262,0.6279,0.6343,0.626,0.6545,0.681,0.6511,0.6646,0.6666,0.5775,0.5127,0.4482,0.3694,0.2858,0.2287,0.2297,0.2244,0.2211,0.2183,0.2181,0.2165,0.2092,0.2098,0.2066,0.1932,0.1963,0.1959,0.1812,0.1797,0.1797,0.1797,0.1797,0.1797,0.1797,0.1797,0.1797,0.1797,0.1797,0.1797,0.1797,0.1797,0.1797,0.1797,0.2018,0.2128,0.2128,0.2411,0.2579,0.2607,0.2663,0.2719,1.6039,1.6214,1.6039,1.5356,1.4379,1.3313,1.2181,0.0,0.0,0.0,0.8771,0.8243,0.7877,0.7429,0.0,0.0,0.0,0.0,0.0,0.0,0.0,0.0,0.0,0.0,0.0,0.0,0.0,0.0,0.0,0.7407,0.6899,0.5732,0.4663,0.377,0.3385,0.3154,0.3116,0.3116,0.2887,0.2466,0.2858,0.2787,0.2379,0.2824,0.3046,0.3087,0.4393,0.0,0.5501,0.6358,0.6923,0.7257,0.7123,0.718,0.7253,0.7127,0.7094,0.7082,0.6993,0.6903,0.6814,0.6656,0.6516,0.6409,0.6417,0.6608,0.6853,0.6829,0.6957,0.692,0.6159,0.5397,0.4642,0.3921,0.3023,0.2334,0.2305,0.2252,0.2201,0.2207,0.2202,0.2181,0.2154,0.2136,0.2116,0.2026,0.2033,0.2019,0.1929,0.1861,0.183,0.18,0.1797,0.1797,0.1797,0.1797,0.1797,0.1797,0.1797,0.1797,0.1797,0.1797,0.1797,0.1797,0.1936,0.199,0.199,0.216,0.2244,0.2244,0.2382,0.2437,1.6047,1.619,1.5888,1.5054,1.4127,1.3108,1.2131,1.1145,0.0,0.9892,0.9223,0.862,0.8263,0.0,0.7058,0.0,0.6633,0.0,0.0,0.0,0.0,0.0,0.0,0.0,0.0,0.0,0.0,0.0,0.0,0.0,0.7249,0.6588,0.5815,0.5043,0.4377,0.4066,0.4066,0.4066,0.3715,0.3056,0.3687,0.3614,0.2969,0.3654,0.3996,0.4076,0.5538,0.0,0.0,0.6957,0.7362,0.7456,0.7212,0.7273,0.7464,0.733,0.7281,0.7277,0.7203,0.7131,0.7041,0.7,0.6812,0.6573,0.6675,0.6757,0.6895,0.7092,0.7182,0.7069,0.6614,0.5813,0.4911,0.4042,0.31,0.2389,0.2346,0.2288,0.2242,0.223,0.2208,0.221,0.2196,0.2194,0.2188,0.2111,0.2106,0.2088,0.2013,0.1972,0.1922,0.1823,0.1804,0.1797,0.1797,0.1797,0.1797,0.1797,0.1797,0.1797,0.1797,0.1797,0.1797,0.1797,0.1797,0.1797,0.1797,0.1853,0.1853,0.1797,0.2158,0.2268,1.4859,1.5268,1.5404,1.4061,1.3219,1.2487,1.171,0.0,1.0365,0.9899,0.9458,0.9028,0.8626,0.775,0.7166,0.7386,0.0,0.6415,0.0,0.0,0.0,0.0,0.0,0.0,0.0,0.0,0.0,0.0,0.0,0.0,0.636,0.624,0.5815,0.5043,0.4927,0.4885,0.4885,0.4885,0.4849,0.4771,0.4836,0.483,0.4753,0.483,0.4872,0.4949,0.5809,0.0,0.0,0.7119,0.7468,0.748,0.7486,0.749,0.748,0.7464,0.746,0.7439,0.7281,0.7179,0.7171,0.7045,0.7054,0.711,0.6997,0.7179,0.7374,0.7082,0.7371,0.7655,0.7439,0.699,0.6182,0.4418,0.3218,0.25,0.2496,0.2447,0.2351,0.23,0.2237,0.2195,0.2188,0.2193,0.2174,0.2105,0.2143,0.2136,0.2017,0.2046,0.2034,0.1915,0.1828,0.1797,0.1797,0.1797,0.1797,0.1797,0.1797,0.1797,0.1797,0.1797,0.1797,0.1797,0.1797,0.1797,0.1797,0.2046,0.2046,0.1825,0.2383,0.2493,1.4188,1.4645,1.4768,1.3584,1.2957,1.2351,1.14,0.0,1.0445,1.0249,0.988,0.9432,0.9021,0.8276,0.7664,0.7515,0.0,0.0,0.6961,0.0,0.0,0.0,0.0,0.0,0.0,0.0,0.0,0.0,0.0,0.0,0.7015,0.6976,0.6822,0.6514,0.6009,0.5738,0.5738,0.5738,0.5467,0.5004,0.5506,0.5467,0.5004,0.5506,0.5738,0.5777,0.663,0.0,0.0,0.7365,0.7484,0.7484,0.7484,0.7484,0.7484,0.7484,0.7484,0.7472,0.7403,0.7378,0.737,0.7335,0.7322,0.735,0.7171,0.7289,0.7452,0.7347,0.7547,0.7784,0.7706,0.6815,0.5634,0.435,0.3333,0.262,0.262,0.2572,0.25,0.2367,0.2319,0.224,0.22,0.2188,0.2179,0.2154,0.2172,0.217,0.212,0.2103,0.2062,0.1975,0.1912,0.1834,0.18,0.1797,0.1797,0.1797,0.1797,0.188,0.2046,0.2046,0.213,0.2327,0.2355,0.2355,0.2355,0.2437,0.2437,0.2355,0.2579,0.2635,1.3236,1.3785,1.39,1.2877,1.2463,1.2025,0.0,0.0,1.0496,1.0496,1.0138,0.9692,0.9283,0.8587,0.8004,0.7676,0.0,0.6899,0.7121,0.0,0.0,0.0,0.0,0.0,0.0,0.0,0.0,0.0,0.0,0.0,0.0,0.7522,0.7484,0.7484,0.6899,0.6591,0.6591,0.6591,0.6318,0.5738,0.6321,0.6279,0.5777,0.6318,0.6591,0.663,0.0,0.0,0.0,0.7484,0.7484,0.7484,0.7484,0.7484,0.7484,0.7484,0.7484,0.7484,0.7484,0.7484,0.7484,0.7484,0.7484,0.7472,0.7403,0.7468,0.7604,0.7604,0.7775,0.7971,0.8024,0.6961,0.567,0.478,0.3833,0.3062,0.2827,0.2684,0.2598,0.2493,0.236,0.2267,0.2199,0.22,0.2188,0.2188,0.2188,0.2188,0.2188,0.2149,0.2099,0.2037,0.1975,0.1907,0.1804,0.1797,0.1797,0.1797,0.1797,0.188,0.2074,0.2074,0.2242,0.2549,0.2549,0.2605,0.2691,0.2772,0.2772,0.2691,0.2886,0.297,1.1809,1.2456,1.2853,1.1773,1.1503,1.132,0.0,0.0,1.0496,1.0496,1.0138,0.9692,0.9283,0.8587,0.8057,0.7922,0.7434,0.0,0.7467,0.0,0.0,0.0,0.0,0.0,0.0,0.0,0.0,0.0,0.0,0.0,0.0,0.7603,0.7484,0.7484,0.7484,0.7484,0.7484,0.7484,0.7484,0.748,0.7484,0.7484,0.748,0.7484,0.7484,0.0,0.0,0.0,0.0,0.7484,0.7484,0.7484,0.7484,0.7484,0.7484,0.7484,0.7484,0.7484,0.7484,0.7484,0.7484,0.7484,0.7484,0.7555,0.7739,0.7796,0.7796,0.7796,0.8053,0.8325,0.8555,0.7812,0.6777,0.5907,0.4927,0.397,0.3081,0.2777,0.2673,0.261,0.2418,0.228,0.222,0.2194,0.2188,0.2188,0.2188,0.2188,0.2188,0.2186,0.2163,0.21,0.204,0.1954,0.1807,0.1797,0.1797,0.1797,0.1797,0.1797,0.1797,0.1797,0.1936,0.2212,0.2212,0.238,0.2691,0.2965,0.2965,0.2719,0.3304,0.3583,1.0939,1.1331,1.1463,1.0629,1.0788,1.0963,1.0256,1.0288,1.0496,1.0496,1.0385,1.0146,0.9692,0.9197,0.8758,0.8415,0.7809,0.0,0.0,0.0,0.0,0.0,0.0,0.0,0.0,0.0,0.0,0.0,0.0,0.0,0.0,0.7522,0.7484,0.7484,0.7484,0.7484,0.7484,0.7484,0.7484,0.7484,0.7484,0.7484,0.7484,0.7484,0.0,0.0,0.0,0.0,0.0,0.7484,0.7484,0.7496,0.7661,0.7633,0.7512,0.7756,0.7691,0.75,0.7665,0.7629,0.7504,0.7669,0.7624,0.7541,0.7841,0.7894,0.7853,0.8098,0.8203,0.8333,0.8563,0.7855,0.6836,0.5869,0.4932,0.3984,0.3036,0.2782,0.2723,0.2621,0.2489,0.2324,0.2226,0.2195,0.2188,0.2188,0.2188,0.2188,0.2188,0.2188,0.2164,0.2102,0.2302,0.2265,0.1894,0.182,0.1797,0.1797,0.1797,0.188,0.2074,0.2074,0.2214,0.2549,0.2715,0.288,0.2965,0.3302,0.3388,0.3332,0.3499,0.3613,1.0353,1.0439,1.0388,0.9835,1.0065,1.028,0.9803,0.0,1.0264,1.0264,1.04,1.036,0.9899,0.9588,0.9256,0.8679,0.8203,0.0,0.0,0.0,0.0,0.0,0.0,0.0,0.0,0.0,0.0,0.0,0.0,0.0,0.0,0.7603,0.7565,0.7484,0.7484,0.7484,0.7484,0.7484,0.7484,0.7484,0.7484,0.7484,0.7484,0.7484,0.0,0.0,0.0,0.0,0.0,0.7484,0.7484,0.7492,0.7649,0.7665,0.7653,0.7837,0.7817,0.7691,0.7784,0.7722,0.7637,0.7682,0.7706,0.7736,0.8028,0.8044,0.8061,0.8312,0.8394,0.8422,0.858,0.812,0.7339,0.5976,0.5225,0.4461,0.3133,0.28,0.276,0.2684,0.2553,0.2393,0.232,0.2258,0.2188,0.2188,0.2203,0.2255,0.2388,0.2388,0.2404,0.2494,0.2693,0.2666,0.2383,0.2255,0.2131,0.1965,0.2076,0.2216,0.238,0.238,0.2605,0.3107,0.3269,0.3408,0.3516,0.358,0.3666,0.3827,0.3827,0.391,0.0,0.9808,0.9585,0.9372,0.9358,0.9398,0.9398,0.0,0.0,0.9937,1.0232,1.036,0.9925,0.9814,0.9555,0.8804,0.8626,0.0,0.0,0.0,0.0,0.0,0.0,0.0,0.0,0.0,0.0,0.0,0.0,0.0,0.0,0.7795,0.7723,0.7522,0.7522,0.7522,0.7484,0.7484,0.7484,0.7484,0.7484,0.7484,0.7484,0.7484,0.0,0.0,0.0,0.0,0.0,0.7484,0.7484,0.7484,0.7496,0.7649,0.7804,0.7829,0.789,0.7992,0.789,0.7829,0.7788,0.7616,0.7764,0.8081,0.8239,0.83,0.8345,0.8563,0.8612,0.8612,0.8612,0.8612,0.8116,0.6242,0.5758,0.5184,0.3396,0.2904,0.2775,0.2771,0.2625,0.2503,0.2499,0.232,0.2209,0.2244,0.2226,0.2357,0.2735,0.276,0.2857,0.3169,0.3187,0.3129,0.3091,0.2982,0.2725,0.228,0.2525,0.2691,0.2691,0.2719,0.3079,0.3741,0.3824,0.3987,0.426,0.3885,0.3882,0.426,0.426,0.4484,0.9997,0.0,0.8898,0.8675,0.9031,0.9398,0.0,0.9882,0.0,0.0,0.0,0.0,0.0,1.0035,0.9736,0.9555,0.0,0.0,0.0,0.0,0.0,0.0,0.0,0.0,0.0,0.0,0.0,0.0,0.0,0.0,0.0,0.7947,0.7953,0.7723,0.7723,0.7642,0.7484,0.7484,0.7484,0.7484,0.7484,0.7484,0.7484,0.7484,0.0,0.0,0.0,0.0,0.7484,0.7484,0.7484,0.7496,0.7677,0.7763,0.7833,0.8106,0.8101,0.8028,0.813,0.8073,0.7947,0.7902,0.8138,0.8418,0.8321,0.839,0.8555,0.86,0.8612,0.8612,0.8612,0.8612,0.8265,0.6993,0.6177,0.5362,0.4077,0.3231,0.27,0.2653,0.2534,0.2389,0.2347,0.2268,0.2314,0.2697,0.2633,0.2763,0.3303,0.3206,0.3151,0.3324,0.3518,0.3493,0.3127,0.2982,0.2868,0.2731,0.2725,0.2691,0.2691,0.2991,0.3236,0.34,0.4015,0.446,0.4732,0.4653,0.4649,0.4732,0.4732,0.4787,0.9933,0.9394,0.8889,0.8675,0.9009,0.9398,0.9398,0.0,0.0,0.0,0.0,0.0,0.0,0.0,0.0,0.0,0.0,0.0,0.0,0.0,0.0,0.0,0.0,0.0,0.0,0.0,0.0,0.0,0.0,0.0,0.0,0.8192,0.8096,0.7824,0.7905,0.7795,0.7522,0.7484,0.7484,0.7484,0.7484,0.7484,0.7484,0.7484,0.7439,0.0,0.0,0.0,0.737,0.7452,0.7484,0.7492,0.7633,0.7726,0.7833,0.8065,0.8154,0.8154,0.8256,0.8117,0.7923,0.8089,0.8219,0.8325,0.8398,0.8531,0.8612,0.8612,0.8612,0.8612,0.8612,0.8612,0.8321,0.7302,0.6328,0.5382,0.4365,0.3357,0.269,0.2889,0.2823,0.2769,0.2994,0.294,0.2976,0.3228,0.3191,0.3276,0.377,0.3692,0.3718,0.3985,0.4067,0.4009,0.3749,0.3506,0.3278,0.3085,0.3109,0.319,0.338,0.3597,0.3926,0.434,0.4791,0.5069,0.523,0.5007,0.5007,0.523,0.523,0.5317,0.9903,0.9556,0.9251,0.8979,0.9191,0.9477,0.9477,0.0,0.0,0.0,0.0,0.0,0.0,0.0,0.0,0.0,0.0,0.0,0.0,0.0,0.0,0.0,0.0,0.0,0.0,0.0,0.0,0.0,0.0,0.0,0.0,0.8363,0.8224,0.7805,0.7994,0.7893,0.7517,0.7507,0.752,0.7482,0.7453,0.7415,0.7443,0.7415,0.7322,0.0,0.0,0.0,0.7196,0.737,0.7443,0.7447,0.7504,0.7673,0.7861,0.7992,0.8174,0.8333,0.8333,0.8175,0.7971,0.8235,0.8227,0.8154,0.8514,0.8612,0.8612,0.8612,0.8612,0.8612,0.8612,0.8592,0.8348,0.7504,0.6424,0.5336,0.4549,0.3503,0.2817,0.3192,0.3216,0.3338,0.3804,0.3756,0.3684,0.3774,0.3732,0.383,0.4193,0.4206,0.4328,0.4654,0.4577,0.4498,0.4482,0.4212,0.3917,0.3579,0.3638,0.391,0.4401,0.4426,0.4814,0.5677,0.5704,0.5704,0.5704,0.5285,0.5312,0.5704,0.5704,0.5868,0.9903,0.9833,0.9712,0.9057,0.9359,0.9819,0.9819,1.0129,0.0,0.0,0.0,0.0,0.0,0.0,0.0,0.0,0.0,0.0,0.0,0.0,0.0,0.0,0.0,0.0,0.0,0.0,0.0,0.0,0.0,0.0,0.0,0.8223,0.8208,0.7816,0.7979,0.7891,0.7506,0.7515,0.7484,0.748,0.7216,0.7151,0.7261,0.7143,0.7057,0.0,0.0,0.7053,0.7045,0.7192,0.7265,0.7297,0.7641,0.7821,0.7996,0.8178,0.8365,0.8567,0.8567,0.8531,0.8498,0.8551,0.8551,0.8535,0.8596,0.8612,0.8612,0.8612,0.8612,0.8612,0.8612,0.8494,0.829,0.8158,0.6746,0.5396,0.517,0.407,0.3112,0.3144,0.3333,0.3577,0.3705,0.3618,0.3683,0.4136,0.4102,0.4213,0.478,0.4707,0.4617,0.469,0.4577,0.4465,0.4336,0.4596,0.4734,0.465,0.4303,0.4484,0.5344,0.5399,0.5618,0.6096,0.6123,0.6123,0.6123,0.6037,0.6037,0.6123,0.6123,0.615,1.0128,1.0035,0.9869,0.9354,0.972,1.0216,1.0216,1.0376,0.0,0.0,0.0,0.0,0.0,0.0,0.0,0.0,0.0,0.0,0.0,0.0,0.0,0.0,0.0,0.0,0.0,0.0,0.0,0.0,0.0,0.0,0.0,0.0,0.8096,0.7824,0.798,0.7898,0.7516,0.7508,0.7517,0.7509,0.7351,0.7248,0.7215,0.7128,0.7005,0.6853,0.0,0.6935,0.6865,0.7005,0.7139,0.7207,0.7407,0.7638,0.791,0.8187,0.8406,0.8612,0.8612,0.8547,0.8434,0.858,0.8543,0.8438,0.858,0.8582,0.8587,0.8461,0.8535,0.8588,0.8616,0.8439,0.8306,0.8417,0.7293,0.6097,0.5833,0.4848,0.3963,0.3847,0.3921,0.4121,0.4354,0.4353,0.4412,0.4653,0.4619,0.47,0.4963,0.492,0.4825,0.4757,0.4895,0.4941,0.4847,0.5057,0.5188,0.5219,0.5144,0.5309,0.5739,0.5871,0.6009,0.6205,0.6205,0.6205,0.6205,0.6205,0.6205,0.6205,0.6205,0.6205,1.0341,1.0243,1.0096,0.9713,1.0064,1.0472,1.0384,1.0432,0.0,0.0,0.0,0.0,0.0,0.0,0.0,0.0,0.0,0.0,0.0,0.0,0.0,0.0,0.0,0.0,0.0,0.0,0.0,0.0,0.0,0.0,0.0,0.0,0.7949,0.7745,0.7935,0.7864,0.7493,0.7493,0.7507,0.7491,0.7412,0.7303,0.7196,0.7154,0.6995,0.6742,0.6908,0.6892,0.6746,0.6958,0.708,0.7143,0.7265,0.752,0.7881,0.82,0.8353,0.8494,0.858,0.8418,0.8256,0.8486,0.8406,0.8316,0.8502,0.857,0.8581,0.8416,0.849,0.8578,0.8556,0.8443,0.838,0.852,0.7652,0.6731,0.6413,0.5574,0.4844,0.4807,0.4634,0.4704,0.5318,0.5184,0.5021,0.5165,0.5093,0.5057,0.521,0.5093,0.5046,0.522,0.5347,0.5448,0.561,0.5688,0.5778,0.5967,0.6058,0.6087,0.6039,0.6183,0.6252,0.6205,0.6205,0.6205,0.6205,0.6205,0.6205,0.6205,0.6205,0.6205,1.04,1.0515,1.0625,1.009,1.0229,1.04,1.0041,1.0224,0.0,1.0496,0.0,0.0,0.0,0.0,0.0,0.0,0.0,0.0,0.0,0.0,0.0,0.0,0.0,0.0,0.0,0.0,0.0,0.0,0.0,0.0,0.0,0.0,0.0,0.7522,0.7721,0.7726,0.7493,0.7508,0.7493,0.7498,0.7111,0.7045,0.7206,0.6998,0.6915,0.6902,0.6915,0.6915,0.6915,0.7103,0.7087,0.6965,0.7481,0.7812,0.7992,0.8242,0.8191,0.8101,0.849,0.8333,0.8065,0.8251,0.83,0.8292,0.8304,0.8466,0.8581,0.8581,0.8593,0.8552,0.8379,0.8361,0.8383,0.8405,0.7626,0.688,0.6841,0.6012,0.5422,0.597,0.5375,0.5182,0.6531,0.5676,0.5036,0.5729,0.5362,0.521,0.5747,0.5362,0.539,0.6444,0.5855,0.5723,0.6523,0.6593,0.6828,0.7316,0.6953,0.6649,0.6454,0.6459,0.6393,0.6205,0.6205,0.6205,0.6205,0.6205,0.6205,0.6205,0.6205,0.6205,1.0699,1.0689,1.0643,1.024,1.0319,0.0,0.0,1.0701,1.0796,1.0796,1.0796,0.0,0.0,0.0,0.0,0.0,0.0,0.0,0.0,0.0,0.0,0.0,0.0,0.0,0.0,0.0,0.0,0.0,0.0,0.0,0.0,0.0,0.0,0.7304,0.7384,0.7389,0.7304,0.7427,0.7437,0.7302,0.7279,0.724,0.7209,0.7109,0.7007,0.6913,0.6913,0.6913,0.6918,0.6992,0.7055,0.7142,0.7716,0.8003,0.8112,0.8525,0.8547,0.8383,0.856,0.8522,0.8357,0.8309,0.8371,0.8496,0.8496,0.858,0.8648,0.8521,0.8582,0.8658,0.8551,0.8484,0.8431,0.854,0.8184,0.7748,0.7514,0.7126,0.6815,0.6668,0.6353,0.6325,0.698,0.6528,0.6248,0.6631,0.6422,0.6247,0.6479,0.6325,0.6304,0.6667,0.6523,0.6615,0.717,0.7204,0.7242,0.7313,0.7157,0.7007,0.6927,0.6667,0.6468,0.6389,0.6266,0.6205,0.6205,0.6205,0.6205,0.6205,0.6205,0.6205,1.0873,1.0786,1.0642,1.0378,0.0,0.0,1.0945,1.0995,1.0995,1.0995,1.0995,0.0,0.0,0.0,0.0,0.0,0.0,0.0,0.0,0.0,0.0,0.0,0.0,0.0,0.0,0.0,0.0,0.0,0.0,0.0,0.0,0.0,0.0,0.0,0.7064,0.7064,0.7064,0.7201,0.7201,0.7064,0.7201,0.7269,0.7297,0.7297,0.7232,0.7073,0.7073,0.7073,0.7073,0.7073,0.7182,0.7315,0.7681,0.7866,0.7965,0.8361,0.843,0.8356,0.8489,0.8453,0.833,0.8279,0.8253,0.833,0.8395,0.8524,0.8587,0.8528,0.8592,0.8698,0.8693,0.8608,0.8528,0.866,0.8589,0.8437,0.8127,0.7936,0.7744,0.7514,0.7169,0.7053,0.7591,0.7247,0.7014,0.7321,0.7126,0.6976,0.7169,0.7015,0.6916,0.6968,0.7193,0.7416,0.7593,0.7536,0.7432,0.7294,0.7285,0.7228,0.7069,0.6755,0.6539,0.6412,0.6276,0.6205,0.6205,0.6266,0.6266,0.6205,0.6266,0.6261,1.0804,1.0739,1.0687,0.0,0.0,0.0,1.0934,1.0995,1.0995,1.1003,0.0,1.0949,0.0,0.0,0.0,0.0,0.0,0.0,0.0,0.0,0.0,0.0,0.0,0.0,0.0,0.0,0.0,0.0,0.0,0.0,0.0,0.0,0.0,0.0,0.6791,0.6791,0.6791,0.6791,0.6791,0.6791,0.6791,0.7033,0.7489,0.7489,0.7489,0.7489,0.7489,0.7489,0.7489,0.7489,0.7489,0.748,0.7283,0.7334,0.7525,0.7658,0.7762,0.7856,0.8177,0.8094,0.7834,0.8031,0.7924,0.776,0.8036,0.8246,0.844,0.8649,0.8709,0.8699,0.8699,0.8699,0.8699,0.8703,0.8703,0.8703,0.8703,0.8241,0.7974,0.8589,0.7744,0.7284,0.8513,0.7706,0.713,0.771,0.7288,0.713,0.7744,0.7284,0.7068,0.7463,0.7848,0.8034,0.7835,0.7617,0.7489,0.7489,0.7489,0.7277,0.6815,0.6791,0.6599,0.6214,0.6205,0.6205,0.6205,0.6403,0.6398,0.621,0.6407,0.6393,1.1267,1.1039,0.0,1.108,0.0,0.0,0.0,1.082,0.0,0.0,0.0,0.0,0.0,0.0,0.0,0.0,0.0,0.0,0.0,0.0,0.0,0.0,0.0,0.0,0.0,0.0,0.0,0.0,0.0,0.0,0.0,0.0,0.0,0.0,0.66,0.66,0.66,0.6716,0.6716,0.66,0.6721,0.6962,0.728,0.728,0.7356,0.7489,0.7489,0.7489,0.7489,0.7489,0.7489,0.7512,0.7591,0.7641,0.7761,0.8065,0.812,0.8032,0.8123,0.8074,0.8005,0.7925,0.7938,0.8005,0.8065,0.816,0.8206,0.8271,0.828,0.8297,0.8453,0.8491,0.8529,0.867,0.8703,0.8703,0.8703,0.8546,0.847,0.8665,0.8394,0.8324,0.8824,0.849,0.8291,0.8595,0.8374,0.8241,0.8394,0.8163,0.8071,0.8298,0.8058,0.7935,0.802,0.7698,0.7489,0.7489,0.7489,0.737,0.7078,0.6901,0.6665,0.6421,0.6276,0.6205,0.6205,0.6261,0.6332,0.6412,0.6332,0.6337,1.0937,1.0804,0.0,1.0971,1.0781,1.0496,1.0496,0.0,0.0,0.0,0.0,0.0,0.0,0.0,0.0,0.0,0.0,0.0,0.0,0.0,0.0,0.0,0.0,0.0,0.0,0.0,0.0,0.0,0.0,0.0,0.0,0.0,0.0,0.0,0.6384,0.6384,0.6384,0.6511,0.6511,0.6384,0.6516,0.6727,0.704,0.7152,0.7256,0.737,0.737,0.7413,0.7489,0.7489,0.7489,0.7503,0.7636,0.7683,0.7717,0.7968,0.7999,0.7981,0.7971,0.7964,0.7962,0.7822,0.7836,0.7883,0.7968,0.7996,0.8011,0.8091,0.8141,0.824,0.8368,0.8463,0.8552,0.867,0.8703,0.8703,0.8703,0.8703,0.8703,0.8703,0.8703,0.8741,0.8874,0.8789,0.8746,0.8874,0.8784,0.8703,0.8703,0.8595,0.8538,0.8581,0.8174,0.7949,0.7992,0.7683,0.7489,0.7489,0.7489,0.7399,0.7199,0.6934,0.6693,0.6506,0.6384,0.6365,0.645,0.645,0.6468,0.6501,0.6379,0.6346,1.0299,0.0,0.0,1.0565,1.0547,0.0,0.0,0.0,0.0,0.0,0.0,0.0,0.0,0.0,0.0,0.0,0.0,0.0,0.0,0.0,0.0,0.0,0.0,0.0,0.0,0.0,0.0,0.0,0.0,0.0,0.0,0.0,0.0,0.6205,0.6205,0.6205,0.6205,0.6205,0.6205,0.0,0.6205,0.6421,0.6796,0.7045,0.7171,0.719,0.719,0.7294,0.7465,0.7465,0.7474,0.7489,0.7489,0.7489,0.7489,0.7489,0.7617,0.7783,0.7783,0.7783,0.7783,0.7783,0.765,0.7527,0.7726,0.7783,0.7821,0.8006,0.8165,0.8321,0.834,0.8481,0.8623,0.8637,0.8675,0.8703,0.8703,0.8703,0.8703,0.8703,0.8703,0.8703,0.8703,0.8703,0.8703,0.8703,0.8703,0.8703,0.8703,0.867,0.8581,0.842,0.8174,0.7992,0.783,0.7617,0.7489,0.7489,0.7489,0.7399,0.7199,0.6979,0.6751,0.6534,0.653,0.6619,0.6763,0.6763,0.6694,0.6501,0.6483,0.6389,1.1658,1.1161,0.0,0.0,1.082,0.0,0.0,0.0,0.0,0.0,0.0,0.0,0.0,0.0,0.0,0.0,0.0,0.0,0.0,0.0,0.0,0.0,0.0,0.0,0.0,0.0,0.0,0.0,0.0,0.0,0.0,0.0,0.0,0.6205,0.6205,0.6205,0.6205,0.6205,0.6205,0.0,0.6205,0.6421,0.6796,0.6868,0.7007,0.719,0.719,0.7213,0.7256,0.7256,0.7346,0.7489,0.7489,0.7489,0.7489,0.7489,0.7522,0.756,0.756,0.756,0.756,0.756,0.7527,0.7498,0.7546,0.756,0.7569,0.7612,0.766,0.7731,0.7906,0.7947,0.8018,0.8174,0.8463,0.8703,0.8703,0.8703,0.8703,0.8703,0.8703,0.8703,0.8703,0.8703,0.8703,0.8703,0.8703,0.8703,0.8703,0.8415,0.8259,0.8392,0.7949,0.7674,0.7802,0.7617,0.7489,0.7489,0.7489,0.7399,0.7199,0.7147,0.6998,0.673,0.6726,0.6665,0.6572,0.6572,0.6548,0.6497,0.6341,0.6327,1.1482,0.0,0.0,1.0855,0.0,0.0,0.0,0.0,0.0,0.0,0.0,0.0,0.0,0.0,0.0,0.0,0.0,0.0,0.0,0.0,0.0,0.0,0.0,0.0,0.0,0.0,0.0,0.0,0.0,0.0,0.0,0.6205,0.6205,0.6205,0.6205,0.6205,0.6205,0.6205,0.6252,0.6346,0.6346,0.6516,0.6791,0.6791,0.6882,0.7007,0.6903,0.6917,0.7021,0.7147,0.7194,0.7187,0.7413,0.7432,0.7356,0.7455,0.7489,0.7489,0.7489,0.7489,0.7489,0.7489,0.7489,0.7489,0.7489,0.7489,0.7489,0.7489,0.7565,0.7674,0.7783,0.7929,0.8103,0.8207,0.8401,0.8557,0.8557,0.8633,0.8703,0.8703,0.8703,0.8703,0.8703,0.8703,0.8703,0.8703,0.8703,0.8666,0.8571,0.8368,0.8203,0.8113,0.784,0.765,0.766,0.7555,0.7489,0.7489,0.7489,0.7441,0.7337,0.7332,0.7158,0.6796,0.6791,0.674,0.6657,0.6553,0.6501,0.6497,0.6294,0.6257,1.1011,0.0,1.0496,1.0496,1.0496,0.0,0.0,0.0,0.0,0.0,0.0,0.0,0.0,0.0,0.0,0.0,0.0,0.0,0.0,0.0,0.0,0.0,0.0,0.0,0.0,0.0,0.0,0.0,0.0,0.0,0.6205,0.6205,0.6205,0.6205,0.6205,0.6205,0.6205,0.6238,0.6337,0.6501,0.6539,0.6628,0.674,0.674,0.674,0.673,0.6577,0.6605,0.6754,0.6979,0.6969,0.6824,0.7225,0.7285,0.7161,0.7365,0.7413,0.7399,0.7465,0.747,0.7446,0.7479,0.7489,0.7489,0.7489,0.7489,0.7489,0.7489,0.7622,0.7759,0.7759,0.8009,0.8297,0.8297,0.8349,0.8411,0.8448,0.8585,0.8703,0.8703,0.8703,0.8703,0.8703,0.8703,0.8703,0.8703,0.8703,0.8628,0.8429,0.8401,0.8276,0.7927,0.7879,0.7793,0.7611,0.7587,0.7559,0.7489,0.7489,0.7489,0.7489,0.7489,0.7267,0.6801,0.6859,0.684,0.6735,0.6586,0.6483,0.6445,0.628,0.6205,0.0,0.0,1.0496,0.0,1.0496,0.0,0.0,0.0,0.0,0.0,0.0,0.0,0.0,0.0,0.0,0.0,0.0,0.0,0.0,0.0,0.0,0.0,0.0,0.0,0.0,0.0,0.0,0.0,0.0,0.0,0.6205,0.6205,0.6205,0.6205,0.6205,0.6205,0.6205,0.6374,0.6473,0.6506,0.6665,0.6699,0.6544,0.6544,0.6544,0.6544,0.6516,0.652,0.6548,0.6572,0.668,0.6796,0.6882,0.6887,0.6887,0.7152,0.7088,0.6953,0.737,0.7375,0.7261,0.7432,0.7489,0.7489,0.7489,0.7489,0.7489,0.7489,0.7512,0.7531,0.7531,0.7717,0.7897,0.7897,0.8136,0.8448,0.8623,0.868,0.8703,0.8703,0.8703,0.8703,0.8703,0.8703,0.8703,0.8703,0.8703,0.8628,0.8429,0.8401,0.8344,0.8254,0.8243,0.8153,0.7937,0.7917,0.7819,0.7526,0.7489,0.7489,0.7489,0.7489,0.7267,0.6801,0.7026,0.6936,0.6544,0.6516,0.6412,0.6243,0.6214,0.6205,1.1266,1.0845,1.0496,0.0,0.0,0.0,0.0,0.0,0.0,0.0,0.0,0.0,0.0,0.0,0.0,0.0,0.0,0.0,0.0,0.0,0.0,0.0,0.0,0.0,0.0,0.0,0.0,0.0,0.0,0.6549,0.6232,0.6205,0.6205,0.6205,0.6205,0.6205,0.6205,0.629,0.6389,0.6501,0.66,0.6596,0.6497,0.6384,0.6337,0.6337,0.6337,0.6337,0.6341,0.6454,0.6492,0.6497,0.6702,0.6721,0.6666,0.6878,0.6901,0.6819,0.7028,0.7135,0.7204,0.7294,0.7399,0.7489,0.7489,0.7489,0.7489,0.7489,0.7489,0.7489,0.7489,0.765,0.7816,0.7816,0.8009,0.8278,0.8491,0.8623,0.8703,0.8703,0.8703,0.8703,0.8703,0.8703,0.8703,0.8703,0.8703,0.8628,0.8429,0.8297,0.8245,0.8307,0.8199,0.8154,0.8257,0.8117,0.7949,0.7787,0.7591,0.7489,0.7489,0.7489,0.7356,0.7031,0.7002,0.6751,0.6337,0.6337,0.629,0.6205,0.6205,0.6205,0.0,0.0,1.0496,1.0496,0.0,0.0,0.0,0.0,0.0,0.0,0.0,0.0,0.0,0.0,0.0,0.0,0.0,0.0,0.0,0.0,0.0,0.0,0.0,0.0,0.0,0.0,0.0,0.0,0.0,0.7058,0.6472,0.6418,0.6364,0.6205,0.6205,0.6205,0.6205,0.6252,0.6384,0.6581,0.653,0.6501,0.6497,0.6294,0.6205,0.6205,0.6205,0.6233,0.629,0.644,0.6417,0.6318,0.6651,0.6665,0.6534,0.6802,0.6868,0.681,0.6939,0.7073,0.7199,0.7251,0.7365,0.7489,0.7489,0.7489,0.7489,0.7489,0.7489,0.7489,0.7489,0.765,0.7816,0.7816,0.7968,0.8141,0.8354,0.8557,0.8703,0.8703,0.8703,0.8737,0.8818,0.878,0.8742,0.8818,0.878,0.8628,0.8429,0.8332,0.8338,0.8409,0.8363,0.8407,0.8614,0.8409,0.8214,0.8117,0.7819,0.7619,0.7619,0.7554,0.7394,0.7194,0.7007,0.6723,0.636,0.636,0.636,0.636,0.636,0.636,0.0,1.0208,0.0,0.0,0.0,0.0,0.0,0.0,0.0,0.0,0.0,0.0,0.0,0.0,0.0,0.0,0.0,0.0,0.0,0.0,0.0,0.0,0.0,0.0,0.0,0.0,0.0,0.0,0.0,0.7637,0.7085,0.7058,0.6793,0.6232,0.6205,0.6205,0.6205,0.6393,0.6596,0.6773,0.66,0.6501,0.6497,0.6294,0.6205,0.6205,0.6205,0.6309,0.6487,0.6497,0.6497,0.6511,0.6702,0.6665,0.6553,0.7019,0.7017,0.6878,0.7295,0.7342,0.7223,0.7413,0.7484,0.7489,0.7489,0.7489,0.7489,0.7489,0.7489,0.7489,0.7489,0.765,0.7816,0.7816,0.7968,0.8141,0.8354,0.8557,0.8703,0.8703,0.8703,0.8818,0.9208,0.8937,0.8818,0.9208,0.8937,0.8628,0.8429,0.8675,0.8827,0.8769,0.9052,0.9152,0.8975,0.8952,0.8829,0.8484,0.8149,0.7987,0.7987,0.7657,0.7394,0.7194,0.718,0.7036,0.6763,0.6763,0.6763,0.6763,0.6763,0.6763,0.0,0.0,0.0,0.0,0.0,0.0,0.0,0.0,0.0,0.0,0.0,0.0,0.0,0.0,0.0,0.0,0.0,0.0,0.0,0.0,0.0,0.0,0.0,0.0,0.0,0.0,0.0,0.0,0.0,0.0,0.7637,0.7295,0.7004,0.6793,0.6391,0.6205,0.6205,0.6276,0.6351,0.6426,0.6346,0.6379,0.6501,0.6426,0.6393,0.6403,0.6539,0.6563,0.6511,0.6652,0.6708,0.6688,0.6763,0.6744,0.6727,0.6878,0.6887,0.6815,0.6991,0.7106,0.718,0.7088,0.7248,0.7465,0.7337,0.7389,0.7489,0.7489,0.7489,0.7489,0.7489,0.7546,0.7607,0.7607,0.7868,0.8139,0.8179,0.8463,0.8703,0.8703,0.8899,0.9132,0.9284,0.9392,0.9501,0.9657,0.9576,0.9432,0.9355,0.9197,0.9165,0.9346,0.9214,0.9152,0.9291,0.9119,0.8952,0.8829,0.8506,0.822,0.8019,0.7884,0.7687,0.7384,0.7384,0.7187,0.6791,0.6791,0.6791,0.6791,0.6791,0.6791,1.0964,0.0,0.0,0.0,0.0,0.0,0.0,0.0,0.0,0.0,0.0,0.0,0.0,0.0,0.0,0.0,0.0,0.0,0.0,0.0,0.0,0.0,0.0,0.0,0.0,0.0,0.0,0.0,0.0,0.0,0.8243,0.7851,0.7509,0.7112,0.6527,0.6205,0.6205,0.6205,0.6205,0.6205,0.6205,0.6309,0.6501,0.6501,0.6501,0.6516,0.6698,0.6712,0.6624,0.6835,0.6925,0.6934,0.7,0.6986,0.6934,0.7,0.7028,0.7028,0.7028,0.7144,0.7266,0.7102,0.7239,0.7465,0.7332,0.7384,0.7489,0.7489,0.7489,0.7489,0.7489,0.7489,0.7489,0.7489,0.7856,0.8204,0.8277,0.8631,0.8899,0.8899,0.9241,0.9549,0.9695,0.9809,0.9954,1.0067,0.9992,0.9884,0.9884,0.9681,0.9572,0.9796,0.9512,0.9376,0.9616,0.9332,0.9151,0.9151,0.8861,0.8571,0.8344,0.8214,0.8019,0.7689,0.7657,0.7452,0.7028,0.7028,0.7028,0.7028,0.7028,0.7028,0.0,0.0,0.0,0.0,0.0,0.0,0.0,0.0,0.0,0.0,0.0,0.0,0.0,0.0,0.0,0.0,0.0,0.0,0.0,0.0,0.0,0.0,0.0,0.0,0.0,0.0,0.0,0.0,0.0,0.938,0.8856,0.8804,0.827,0.7139,0.6527,0.6232,0.6205,0.6205,0.6205,0.6205,0.6205,0.6309,0.6511,0.6506,0.6506,0.6525,0.6702,0.6791,0.681,0.7073,0.719,0.7209,0.7413,0.7365,0.7213,0.7413,0.7484,0.7484,0.7489,0.7489,0.7489,0.7484,0.7484,0.7489,0.7484,0.7484,0.7489,0.7489,0.7489,0.7489,0.7489,0.7489,0.7489,0.7489,0.7916,0.8371,0.8644,0.904,0.9311,0.9322,0.9657,1.003,1.0438,1.018,1.0067,1.0475,1.018,0.9922,0.9922,1.0044,1.0111,1.0111,0.9978,0.9907,0.9907,0.9666,0.9516,0.9516,0.9183,0.9017,0.8985,0.87,0.8349,0.8019,0.7987,0.7819,0.7489,0.7489,0.7489,0.7489,0.7521,0.7521,1.1974,0.0,0.0,0.0,0.0,0.0,1.0598,1.0342,0.0,0.0,0.0,0.0,0.0,0.0,0.0,0.0,0.0,0.0,0.0,0.0,0.0,0.0,0.0,0.0,0.0,0.0,0.0,0.0,0.9588,0.9536,0.938,0.9014,0.827,0.7139,0.695,0.663,0.6205,0.6205,0.6205,0.6205,0.6205,0.6389,0.6698,0.6572,0.6586,0.6707,0.6768,0.6791,0.681,0.7073,0.719,0.7209,0.7413,0.7365,0.7213,0.7413,0.7399,0.7294,0.7441,0.7489,0.7465,0.7318,0.737,0.7465,0.7318,0.7375,0.7489,0.7489,0.7489,0.7489,0.7489,0.7489,0.7489,0.7489,0.7721,0.8074,0.8574,0.9129,0.9559,0.9696,1.0067,1.0368,1.0481,1.0663,1.0812,1.0925,1.085,1.0775,1.0775,1.0626,1.0539,1.0539,1.0145,0.9907,0.9907,0.9666,0.9516,0.9516,0.942,0.9253,0.9017,0.8926,0.8603,0.8019,0.7987,0.7819,0.7489,0.7489,0.7489,0.7521,0.8004,0.8231,0.0,0.0,0.0,0.0,0.0,0.0,1.0947,1.0718,1.0539,0.0,0.0,0.0,0.0,0.0,0.0,0.0,0.0,0.0,0.0,0.0,0.0,0.0,0.0,0.0,0.0,0.0,0.0,0.9603,0.9588,0.9588,0.9588,0.9093,0.8382,0.745,0.7219,0.682,0.6205,0.6205,0.6205,0.6205,0.6205,0.6374,0.6685,0.6558,0.6572,0.666,0.666,0.666,0.6704,0.6946,0.7114,0.7204,0.7318,0.7242,0.7045,0.7163,0.7218,0.7209,0.7323,0.7422,0.747,0.7351,0.7394,0.747,0.7351,0.7399,0.7489,0.7489,0.7489,0.7489,0.7489,0.7489,0.7489,0.7489,0.7687,0.8043,0.8645,0.9249,0.9771,1.0077,1.0481,1.0738,1.0738,1.0925,1.1111,1.1111,1.1111,1.1111,1.1111,1.0979,1.0803,1.0695,1.0316,1.0021,0.9913,0.9666,0.9516,0.9516,0.9516,0.942,0.9215,0.9215,0.8958,0.8436,0.8279,0.8144,0.7999,0.7814,0.7852,0.8139,0.9026,0.925,0.0,0.0,0.0,0.0,0.0,0.0,1.1494,1.1209,1.0905,0.0,0.0,0.0,0.0,0.0,0.0,0.0,0.0,0.0,0.0,0.0,0.0,0.0,0.0,0.0,0.0,0.9877,0.9929,0.9636,0.9588,0.9588,0.9588,0.9145,0.8613,0.8031,0.753,0.7004,0.6391,0.6391,0.6364,0.6314,0.6314,0.6364,0.6501,0.6478,0.6483,0.6501,0.6478,0.6483,0.6516,0.6679,0.6906,0.7161,0.718,0.7017,0.6763,0.684,0.6988,0.7161,0.7209,0.7342,0.7493,0.7517,0.7493,0.7465,0.7512,0.7493,0.746,0.7484,0.7489,0.7489,0.7489,0.7489,0.7489,0.7489,0.7722,0.8113,0.8779,0.933,0.9884,1.0418,1.0832,1.1111,1.1111,1.1111,1.1111,1.1111,1.1111,1.1111,1.1111,1.1087,1.0979,1.0749,1.0424,1.016,0.9925,0.9666,0.9516,0.9516,0.9516,0.9516,0.9516,0.9516,0.935,0.9017,0.8738,0.8694,0.8892,0.8398,0.8468,0.9145,1.0212,1.0351,0.0,0.0,0.0,0.0,0.0,0.0,1.1974,1.1544,1.1217,0.0,0.0,0.0,0.0,0.0,0.0,0.0,0.0,0.0,0.0,0.0,0.0,0.0,0.0,0.0,0.0,0.9672,0.968,0.9621,0.9588,0.9588,0.9588,0.951,0.919,0.8639,0.8514,0.819,0.7584,0.7557,0.7348,0.6923,0.6923,0.6769,0.6497,0.6337,0.6351,0.6492,0.6332,0.6351,0.6506,0.6548,0.669,0.6901,0.7128,0.6927,0.6605,0.6974,0.7021,0.693,0.7318,0.7455,0.7522,0.7693,0.7522,0.7313,0.765,0.7512,0.728,0.7446,0.7489,0.7489,0.7489,0.7489,0.7489,0.7489,0.7554,0.7846,0.8707,0.9153,0.965,1.0484,1.0893,1.1111,1.1111,1.1111,1.1111,1.1111,1.1111,1.1111,1.1111,1.0924,1.0773,1.0725,1.0262,0.9961,0.9907,0.9666,0.9516,0.9516,0.9516,0.9516,0.9516,0.9516,0.935,0.9017,0.9081,0.9486,1.0135,0.9422,0.9294,0.9799,1.0047,1.0424,0.0,0.0,0.0,1.3266,0.0,0.0,0.0,1.2212,1.1974,0.0,0.0,0.0,0.0,0.0,0.0,0.0,0.0,0.0,0.0,0.0,0.0,0.0,0.0,0.0,0.0,0.9588,0.9588,0.9588,0.9588,0.9588,0.9588,0.9588,0.9354,0.8823,0.8804,0.8508,0.7898,0.7898,0.7765,0.7503,0.7214,0.6981,0.6786,0.6385,0.6257,0.6346,0.6247,0.6318,0.6501,0.6501,0.6567,0.6671,0.6804,0.6653,0.6379,0.6615,0.6695,0.6694,0.6922,0.7064,0.7177,0.7281,0.7248,0.7228,0.7441,0.7427,0.7361,0.746,0.7489,0.7489,0.7489,0.7624,0.7754,0.7754,0.7884,0.818,0.8821,0.927,0.974,1.0396,1.0846,1.1111,1.1111,1.1003,1.096,1.1093,1.0851,1.0731,1.0863,1.0767,1.0635,1.0503,1.0256,1.0045,0.9913,0.9666,0.9516,0.9516,0.9516,0.9516,0.9516,0.9642,0.973,0.985,1.0183,1.0619,1.1159,1.0728,1.0636,1.0825,1.1199,1.1546,0.0,0.0,0.0,0.0,0.0,1.3491,0.0,0.0,0.0,0.0,0.0,0.0,0.0,0.0,0.0,0.0,0.0,0.0,0.0,0.0,0.0,0.0,0.0,0.0,0.0,0.9588,0.9588,0.9588,0.9588,0.9588,0.9588,0.9588,0.9406,0.8961,0.8955,0.8718,0.8243,0.8217,0.819,0.8057,0.7509,0.7187,0.7085,0.6472,0.6205,0.6205,0.6205,0.6294,0.6445,0.6445,0.6445,0.645,0.6487,0.6379,0.621,0.6247,0.6365,0.6506,0.6548,0.6675,0.6805,0.692,0.7111,0.7294,0.7213,0.7332,0.7489,0.7489,0.7554,0.7591,0.7591,0.7852,0.8084,0.8084,0.8317,0.8576,0.8926,0.9422,0.9887,1.0229,1.0719,1.1111,1.1111,1.0936,1.0815,1.1009,1.0641,1.0448,1.0659,1.0641,1.0551,1.0382,1.028,1.0136,0.9925,0.9666,0.9516,0.9516,0.9516,0.9516,0.9516,0.9861,1.0358,1.093,1.141,1.1847,1.2167,1.2148,1.2061,1.1914,1.2407,1.263,0.0,0.0,0.0,0.0,1.3597,0.0,0.0,0.0,0.0,0.0,0.0,0.0,0.0,0.0,0.0,0.0,0.0,0.0,0.0,0.0,0.0,0.0,0.0,0.0,0.0,0.0,0.9588,0.9588,0.9588,0.9588,0.9588,0.9588,0.9562,0.951,0.951,0.9484,0.9406,0.9406,0.9164,0.8699,0.8084,0.7557,0.7085,0.6472,0.6205,0.6205,0.6205,0.6214,0.6238,0.6238,0.6238,0.6257,0.6431,0.6379,0.6229,0.6403,0.6483,0.653,0.6688,0.6773,0.6882,0.7286,0.7546,0.7674,0.7304,0.7332,0.7489,0.7489,0.7722,0.7954,0.7954,0.8182,0.8447,0.8447,0.8484,0.8576,0.8926,0.9422,0.9887,1.0229,1.0719,1.1111,1.1111,1.1087,1.0997,1.0797,1.0677,1.0653,1.0719,1.0485,1.0412,1.0617,1.0226,0.9937,0.9907,0.9666,0.9516,0.9516,0.9516,0.9516,0.9516,1.0275,1.1049,1.1833,1.2366,1.2881,1.3388,1.3382,1.3216,1.29,1.2417,1.2709,0.0,0.0,0.0,0.0,0.0,0.0,1.3597,0.0,1.3266,0.0,0.0,0.0,0.0,0.0,0.0,0.0,0.0,0.0,0.0,0.0,0.0,0.0,0.0,0.0,0.0,0.0,0.0,0.0,0.0,0.9588,0.9588,0.9673,0.9673,0.9614,0.9673,0.9673,0.9614,0.9588,0.9484,0.9249,0.8692,0.8111,0.7557,0.6977,0.6527,0.6205,0.6205,0.6205,0.6205,0.6205,0.6205,0.621,0.6294,0.628,0.6214,0.6299,0.6327,0.6341,0.6431,0.6464,0.6534,0.6948,0.7253,0.7441,0.7384,0.7551,0.7787,0.7787,0.8019,0.8284,0.8284,0.8538,0.8797,0.8797,0.8931,0.9125,0.9253,0.9724,1.0124,1.0257,1.0719,1.1111,1.1111,1.0985,1.0863,1.0942,1.0653,1.0515,1.0665,1.0587,1.0563,1.0707,1.0352,1.013,1.013,0.9895,0.9678,0.9528,0.966,0.9877,1.0178,1.088,1.1665,1.2508,1.285,1.3305,1.3894,1.368,1.3616,1.368,1.3377,1.3449,1.3597,0.0,0.0,0.0,0.0,0.0,0.0,0.0,0.0,0.0,0.0,0.0,0.0,0.0,0.0,0.0,0.0,0.0,0.0,0.0,0.0,0.0,0.0,0.0,0.0,0.0,0.0,0.0,0.0,0.0,0.9647,0.974,0.9766,0.9647,0.974,0.974,0.9614,0.9588,0.9614,0.9647,0.9119,0.8613,0.819,0.7477,0.6896,0.6445,0.6287,0.6205,0.6205,0.6205,0.6205,0.6205,0.6205,0.6205,0.6205,0.6205,0.6205,0.6205,0.6205,0.628,0.6426,0.6693,0.7026,0.7299,0.7446,0.7722,0.7987,0.7987,0.8312,0.8641,0.8641,0.8894,0.9151,0.9151,0.9318,0.9516,0.9516,0.9925,1.0292,1.0292,1.0719,1.1111,1.1111,1.0954,1.0864,1.0985,1.0647,1.0472,1.0659,1.0683,1.0749,1.0785,1.0557,1.037,1.0304,1.0051,0.9823,0.9636,0.9865,1.0214,1.0665,1.1436,1.2191,1.2893,1.3357,1.3804,1.426,1.3997,1.4005,1.4217,1.4156,1.4052,0.0,0.0,0.0,1.3597,0.0,0.0,0.0,0.0,1.3597,0.0,0.0,0.0,0.0,0.0,0.0,0.0,0.0,0.0,0.0,0.0,0.0,0.0,0.0,0.0,0.0,0.0,0.0,0.0,0.0,0.0,0.9799,0.9799,0.9799,0.9799,0.9799,0.974,0.9614,0.9588,0.9673,0.9799,0.9249,0.8981,0.8922,0.7818,0.7208,0.7031,0.6445,0.6205,0.6205,0.6205,0.6205,0.6205,0.6205,0.6205,0.6205,0.6205,0.6205,0.6205,0.6205,0.6468,0.6777,0.6787,0.7121,0.7484,0.7489,0.7722,0.7987,0.7987,0.8468,0.8985,0.8985,0.9221,0.9484,0.9484,0.9484,0.9516,0.9516,0.9925,1.0292,1.0292,1.0719,1.1111,1.1111,1.1105,1.1015,1.0731,1.0719,1.0677,1.0683,1.0683,1.0816,1.1069,1.0864,1.0569,1.0316,1.0051,0.9901,0.9895,1.0142,1.04,1.0677,1.1835,1.2621,1.2893,1.3977,1.4553,1.4589,1.4573,1.4573,1.4581,1.4233,1.4264,0.0,0.0,1.3597,1.3597,0.0,0.0,0.0,0.0,0.0,0.0,0.0,0.0,0.0,0.0,0.0,0.0,0.0,0.0,0.0,0.0,0.0,0.0,0.0,0.0,0.0,0.0,0.0,0.0,0.0,0.0,0.0,0.9877,0.9895,0.9799,0.9877,0.981,0.9614,0.9681,0.9766,0.9799,0.961,0.9354,0.8974,0.8104,0.7477,0.7058,0.6472,0.6205,0.6205,0.6205,0.6205,0.6205,0.6205,0.6205,0.6205,0.6205,0.6205,0.6224,0.6356,0.6586,0.6815,0.7012,0.727,0.7583,0.7988,0.8202,0.8414,0.8821,0.9115,0.9318,0.9318,0.942,0.9516,0.9516,0.9516,0.9516,0.9516,0.9925,1.0244,1.0069,1.0599,1.1057,1.0882,1.0997,1.1081,1.0997,1.0979,1.0979,1.0979,1.0979,1.1015,1.1099,1.0876,1.0647,1.0563,1.0316,1.031,1.0659,1.0991,1.128,1.1554,1.2732,1.3396,1.3506,1.4201,1.4605,1.4605,1.4605,1.4605,1.4597,1.4478,1.4486,1.3597,1.3597,0.0,1.3597,1.3597,0.0,1.3597,0.0,0.0,0.0,0.0,0.0,0.0,0.0,0.0,0.0,0.0,0.0,0.0,1.3597,0.0,0.0,0.0,0.0,0.0,0.0,0.0,0.0,0.0,0.0,0.0,0.0,1.0032,0.987,0.9947,0.9888,0.9673,0.9766,0.9825,0.987,0.987,0.9681,0.9328,0.8672,0.809,0.7589,0.7004,0.6657,0.6522,0.6522,0.6522,0.6522,0.6522,0.6522,0.65,0.6282,0.6205,0.6233,0.6431,0.6643,0.6859,0.7247,0.7519,0.7779,0.8286,0.8564,0.8749,0.9043,0.9306,0.9492,0.9396,0.9444,0.9516,0.9516,0.9516,0.954,0.963,0.9991,1.0274,1.0196,1.0587,1.0948,1.0876,1.0924,1.1003,1.1099,1.1111,1.1111,1.1111,1.1033,1.1009,1.1099,1.0876,1.0683,1.0683,1.0527,1.0575,1.0954,1.1265,1.1595,1.1996,1.2959,1.3579,1.3796,1.4346,1.4605,1.4605,1.4605,1.4605,1.4605,1.474,1.4795]}]]